<?xml version="1.0" encoding="UTF-8" standalone="no" ?>
<gpx xmlns="http://www.topografix.com/GPX/1/1" xmlns:xsi="http://www.w3.org/2001/XMLSchema-instance" xsi:schemaLocation="http://www.topografix.com/GPX/1/1 http://www.topografix.com/GPX/1/1/gpx.xsd" version="1.1" creator="VisuGPX - https://www.visugpx.com">
  <metadata>
    <name>Parcours Marathon 2013 (idem 2014)</name>
    <desc><![CDATA[Parcours Marathon 2013 (idem 2014)]]></desc>
  </metadata>
  <trk>
    <name><![CDATA[Marathon Toulouse]]></name>
    <trkseg>
      <trkpt lat="43.58451" lon="1.43203">
        <ele>147.80000305176</ele>
        <time>2013-10-27T07:45:07.000Z</time>
      </trkpt>
      <trkpt lat="43.58449" lon="1.43209">
        <ele>147.80000305176</ele>
        <time>2013-10-27T07:45:10.000Z</time>
      </trkpt>
      <trkpt lat="43.5845" lon="1.43234">
        <ele>147.80000305176</ele>
        <time>2013-10-27T07:45:15.000Z</time>
      </trkpt>
      <trkpt lat="43.58447" lon="1.43261">
        <ele>147.80000305176</ele>
        <time>2013-10-27T07:45:20.000Z</time>
      </trkpt>
      <trkpt lat="43.58446" lon="1.43282">
        <ele>147.80000305176</ele>
        <time>2013-10-27T07:45:24.000Z</time>
      </trkpt>
      <trkpt lat="43.58444" lon="1.43305">
        <ele>147.80000305176</ele>
        <time>2013-10-27T07:45:28.000Z</time>
      </trkpt>
      <trkpt lat="43.58442" lon="1.43317">
        <ele>147.80000305176</ele>
        <time>2013-10-27T07:45:30.000Z</time>
      </trkpt>
      <trkpt lat="43.58442" lon="1.43353">
        <ele>147.80000305176</ele>
        <time>2013-10-27T07:45:36.000Z</time>
      </trkpt>
      <trkpt lat="43.58443" lon="1.4337">
        <ele>147.80000305176</ele>
        <time>2013-10-27T07:45:39.000Z</time>
      </trkpt>
      <trkpt lat="43.58443" lon="1.43404">
        <ele>147.80000305176</ele>
        <time>2013-10-27T07:45:44.000Z</time>
      </trkpt>
      <trkpt lat="43.58443" lon="1.43411">
        <ele>147.80000305176</ele>
        <time>2013-10-27T07:45:45.000Z</time>
      </trkpt>
      <trkpt lat="43.58443" lon="1.43439">
        <ele>147.80000305176</ele>
        <time>2013-10-27T07:45:49.000Z</time>
      </trkpt>
      <trkpt lat="43.58442" lon="1.43469">
        <ele>147.80000305176</ele>
        <time>2013-10-27T07:45:54.000Z</time>
      </trkpt>
      <trkpt lat="43.58441" lon="1.43489">
        <ele>147.80000305176</ele>
        <time>2013-10-27T07:45:57.000Z</time>
      </trkpt>
      <trkpt lat="43.58439" lon="1.43502">
        <ele>147.80000305176</ele>
        <time>2013-10-27T07:45:59.000Z</time>
      </trkpt>
      <trkpt lat="43.58439" lon="1.43526">
        <ele>147.80000305176</ele>
        <time>2013-10-27T07:46:03.000Z</time>
      </trkpt>
      <trkpt lat="43.58436" lon="1.4355">
        <ele>147.80000305176</ele>
        <time>2013-10-27T07:46:07.000Z</time>
      </trkpt>
      <trkpt lat="43.58436" lon="1.43563">
        <ele>147.80000305176</ele>
        <time>2013-10-27T07:46:09.000Z</time>
      </trkpt>
      <trkpt lat="43.58437" lon="1.43575">
        <ele>147.80000305176</ele>
        <time>2013-10-27T07:46:11.000Z</time>
      </trkpt>
      <trkpt lat="43.58436" lon="1.43599">
        <ele>147.80000305176</ele>
        <time>2013-10-27T07:46:15.000Z</time>
      </trkpt>
      <trkpt lat="43.58435" lon="1.43612">
        <ele>147.80000305176</ele>
        <time>2013-10-27T07:46:17.000Z</time>
      </trkpt>
      <trkpt lat="43.58434" lon="1.43624">
        <ele>147.80000305176</ele>
        <time>2013-10-27T07:46:19.000Z</time>
      </trkpt>
      <trkpt lat="43.58434" lon="1.4366">
        <ele>147.80000305176</ele>
        <time>2013-10-27T07:46:25.000Z</time>
      </trkpt>
      <trkpt lat="43.58433" lon="1.43685">
        <ele>148.19999694824</ele>
        <time>2013-10-27T07:46:29.000Z</time>
      </trkpt>
      <trkpt lat="43.58432" lon="1.43691">
        <ele>148.39999389648</ele>
        <time>2013-10-27T07:46:30.000Z</time>
      </trkpt>
      <trkpt lat="43.58432" lon="1.43703">
        <ele>148.60000610352</ele>
        <time>2013-10-27T07:46:32.000Z</time>
      </trkpt>
      <trkpt lat="43.5843" lon="1.43739">
        <ele>149.19999694824</ele>
        <time>2013-10-27T07:46:38.000Z</time>
      </trkpt>
      <trkpt lat="43.58429" lon="1.43745">
        <ele>149.19999694824</ele>
        <time>2013-10-27T07:46:39.000Z</time>
      </trkpt>
      <trkpt lat="43.58428" lon="1.43776">
        <ele>149.39999389648</ele>
        <time>2013-10-27T07:46:44.000Z</time>
      </trkpt>
      <trkpt lat="43.58426" lon="1.43805">
        <ele>149.80000305176</ele>
        <time>2013-10-27T07:46:49.000Z</time>
      </trkpt>
      <trkpt lat="43.58425" lon="1.43834">
        <ele>150.60000610352</ele>
        <time>2013-10-27T07:46:54.000Z</time>
      </trkpt>
      <trkpt lat="43.58424" lon="1.43859">
        <ele>151</ele>
        <time>2013-10-27T07:46:58.000Z</time>
      </trkpt>
      <trkpt lat="43.58425" lon="1.43871">
        <ele>151.19999694824</ele>
        <time>2013-10-27T07:47:00.000Z</time>
      </trkpt>
      <trkpt lat="43.58422" lon="1.43902">
        <ele>151.39999389648</ele>
        <time>2013-10-27T07:47:05.000Z</time>
      </trkpt>
      <trkpt lat="43.58421" lon="1.43933">
        <ele>151.60000610352</ele>
        <time>2013-10-27T07:47:10.000Z</time>
      </trkpt>
      <trkpt lat="43.58421" lon="1.43939">
        <ele>151.60000610352</ele>
        <time>2013-10-27T07:47:11.000Z</time>
      </trkpt>
      <trkpt lat="43.5842" lon="1.43965">
        <ele>151.80000305176</ele>
        <time>2013-10-27T07:47:15.000Z</time>
      </trkpt>
      <trkpt lat="43.58419" lon="1.4399">
        <ele>151.80000305176</ele>
        <time>2013-10-27T07:47:19.000Z</time>
      </trkpt>
      <trkpt lat="43.58418" lon="1.44014">
        <ele>151.80000305176</ele>
        <time>2013-10-27T07:47:23.000Z</time>
      </trkpt>
      <trkpt lat="43.58415" lon="1.44033">
        <ele>151.80000305176</ele>
        <time>2013-10-27T07:47:26.000Z</time>
      </trkpt>
      <trkpt lat="43.58413" lon="1.44065">
        <ele>151.80000305176</ele>
        <time>2013-10-27T07:47:31.000Z</time>
      </trkpt>
      <trkpt lat="43.58412" lon="1.44096">
        <ele>151.80000305176</ele>
        <time>2013-10-27T07:47:36.000Z</time>
      </trkpt>
      <trkpt lat="43.58412" lon="1.44126">
        <ele>152.39999389648</ele>
        <time>2013-10-27T07:47:41.000Z</time>
      </trkpt>
      <trkpt lat="43.58411" lon="1.44132">
        <ele>152.60000610352</ele>
        <time>2013-10-27T07:47:42.000Z</time>
      </trkpt>
      <trkpt lat="43.58409" lon="1.44156">
        <ele>153</ele>
        <time>2013-10-27T07:47:46.000Z</time>
      </trkpt>
      <trkpt lat="43.58407" lon="1.44173">
        <ele>153.19999694824</ele>
        <time>2013-10-27T07:47:49.000Z</time>
      </trkpt>
      <trkpt lat="43.58407" lon="1.44202">
        <ele>153.80000305176</ele>
        <time>2013-10-27T07:47:54.000Z</time>
      </trkpt>
      <trkpt lat="43.58407" lon="1.44208">
        <ele>154</ele>
        <time>2013-10-27T07:47:55.000Z</time>
      </trkpt>
      <trkpt lat="43.58406" lon="1.44219">
        <ele>154.39999389648</ele>
        <time>2013-10-27T07:47:57.000Z</time>
      </trkpt>
      <trkpt lat="43.58405" lon="1.44242">
        <ele>155</ele>
        <time>2013-10-27T07:48:01.000Z</time>
      </trkpt>
      <trkpt lat="43.58405" lon="1.44248">
        <ele>155</ele>
        <time>2013-10-27T07:48:02.000Z</time>
      </trkpt>
      <trkpt lat="43.58403" lon="1.44277">
        <ele>156.39999389648</ele>
        <time>2013-10-27T07:48:07.000Z</time>
      </trkpt>
      <trkpt lat="43.58402" lon="1.44283">
        <ele>156.60000610352</ele>
        <time>2013-10-27T07:48:08.000Z</time>
      </trkpt>
      <trkpt lat="43.58401" lon="1.443">
        <ele>157</ele>
        <time>2013-10-27T07:48:11.000Z</time>
      </trkpt>
      <trkpt lat="43.58401" lon="1.44331">
        <ele>157.60000610352</ele>
        <time>2013-10-27T07:48:16.000Z</time>
      </trkpt>
      <trkpt lat="43.584" lon="1.44361">
        <ele>157.80000305176</ele>
        <time>2013-10-27T07:48:21.000Z</time>
      </trkpt>
      <trkpt lat="43.58398" lon="1.44386">
        <ele>158.39999389648</ele>
        <time>2013-10-27T07:48:25.000Z</time>
      </trkpt>
      <trkpt lat="43.58398" lon="1.44417">
        <ele>159.19999694824</ele>
        <time>2013-10-27T07:48:30.000Z</time>
      </trkpt>
      <trkpt lat="43.58397" lon="1.44427">
        <ele>159.39999389648</ele>
        <time>2013-10-27T07:48:32.000Z</time>
      </trkpt>
      <trkpt lat="43.58398" lon="1.4444">
        <ele>159.60000610352</ele>
        <time>2013-10-27T07:48:34.000Z</time>
      </trkpt>
      <trkpt lat="43.58401" lon="1.44463">
        <ele>160</ele>
        <time>2013-10-27T07:48:38.000Z</time>
      </trkpt>
      <trkpt lat="43.58401" lon="1.44469">
        <ele>160</ele>
        <time>2013-10-27T07:48:39.000Z</time>
      </trkpt>
      <trkpt lat="43.58401" lon="1.44475">
        <ele>160</ele>
        <time>2013-10-27T07:48:40.000Z</time>
      </trkpt>
      <trkpt lat="43.58404" lon="1.44492">
        <ele>160.19999694824</ele>
        <time>2013-10-27T07:48:43.000Z</time>
      </trkpt>
      <trkpt lat="43.58404" lon="1.44503">
        <ele>160.19999694824</ele>
        <time>2013-10-27T07:48:45.000Z</time>
      </trkpt>
      <trkpt lat="43.58407" lon="1.44523">
        <ele>160.39999389648</ele>
        <time>2013-10-27T07:48:49.000Z</time>
      </trkpt>
      <trkpt lat="43.58413" lon="1.44546">
        <ele>160.39999389648</ele>
        <time>2013-10-27T07:48:54.000Z</time>
      </trkpt>
      <trkpt lat="43.58416" lon="1.44576">
        <ele>160.39999389648</ele>
        <time>2013-10-27T07:49:00.000Z</time>
      </trkpt>
      <trkpt lat="43.58422" lon="1.44602">
        <ele>160.39999389648</ele>
        <time>2013-10-27T07:49:05.000Z</time>
      </trkpt>
      <trkpt lat="43.58423" lon="1.44623">
        <ele>160.39999389648</ele>
        <time>2013-10-27T07:49:09.000Z</time>
      </trkpt>
      <trkpt lat="43.58426" lon="1.44648">
        <ele>160.39999389648</ele>
        <time>2013-10-27T07:49:14.000Z</time>
      </trkpt>
      <trkpt lat="43.58431" lon="1.44675">
        <ele>161.19999694824</ele>
        <time>2013-10-27T07:49:19.000Z</time>
      </trkpt>
      <trkpt lat="43.58432" lon="1.44687">
        <ele>161.39999389648</ele>
        <time>2013-10-27T07:49:21.000Z</time>
      </trkpt>
      <trkpt lat="43.58435" lon="1.44704">
        <ele>161.80000305176</ele>
        <time>2013-10-27T07:49:24.000Z</time>
      </trkpt>
      <trkpt lat="43.58444" lon="1.44733">
        <ele>162</ele>
        <time>2013-10-27T07:49:29.000Z</time>
      </trkpt>
      <trkpt lat="43.58448" lon="1.44756">
        <ele>162.19999694824</ele>
        <time>2013-10-27T07:49:33.000Z</time>
      </trkpt>
      <trkpt lat="43.58434" lon="1.44815">
        <ele>162.39999389648</ele>
        <time>2013-10-27T07:49:41.000Z</time>
      </trkpt>
      <trkpt lat="43.5843" lon="1.44843">
        <ele>162.39999389648</ele>
        <time>2013-10-27T07:49:45.000Z</time>
      </trkpt>
      <trkpt lat="43.58429" lon="1.44854">
        <ele>162.39999389648</ele>
        <time>2013-10-27T07:49:47.000Z</time>
      </trkpt>
      <trkpt lat="43.58424" lon="1.44878">
        <ele>162.60000610352</ele>
        <time>2013-10-27T07:49:51.000Z</time>
      </trkpt>
      <trkpt lat="43.58416" lon="1.44911">
        <ele>162.60000610352</ele>
        <time>2013-10-27T07:49:57.000Z</time>
      </trkpt>
      <trkpt lat="43.58414" lon="1.44917">
        <ele>162.60000610352</ele>
        <time>2013-10-27T07:49:58.000Z</time>
      </trkpt>
      <trkpt lat="43.58411" lon="1.44934">
        <ele>162.60000610352</ele>
        <time>2013-10-27T07:50:01.000Z</time>
      </trkpt>
      <trkpt lat="43.58405" lon="1.44955">
        <ele>162.60000610352</ele>
        <time>2013-10-27T07:50:05.000Z</time>
      </trkpt>
      <trkpt lat="43.58394" lon="1.44982">
        <ele>161.80000305176</ele>
        <time>2013-10-27T07:50:10.000Z</time>
      </trkpt>
      <trkpt lat="43.58392" lon="1.44989">
        <ele>161.60000610352</ele>
        <time>2013-10-27T07:50:11.000Z</time>
      </trkpt>
      <trkpt lat="43.58386" lon="1.45004">
        <ele>161.19999694824</ele>
        <time>2013-10-27T07:50:14.000Z</time>
      </trkpt>
      <trkpt lat="43.58381" lon="1.45025">
        <ele>160.60000610352</ele>
        <time>2013-10-27T07:50:19.000Z</time>
      </trkpt>
      <trkpt lat="43.58379" lon="1.45031">
        <ele>160.39999389648</ele>
        <time>2013-10-27T07:50:20.000Z</time>
      </trkpt>
      <trkpt lat="43.58375" lon="1.4506">
        <ele>159.60000610352</ele>
        <time>2013-10-27T07:50:25.000Z</time>
      </trkpt>
      <trkpt lat="43.58374" lon="1.4507">
        <ele>159.39999389648</ele>
        <time>2013-10-27T07:50:27.000Z</time>
      </trkpt>
      <trkpt lat="43.58382" lon="1.45092">
        <ele>159</ele>
        <time>2013-10-27T07:50:32.000Z</time>
      </trkpt>
      <trkpt lat="43.58394" lon="1.45114">
        <ele>158.80000305176</ele>
        <time>2013-10-27T07:50:37.000Z</time>
      </trkpt>
      <trkpt lat="43.58404" lon="1.45137">
        <ele>158.60000610352</ele>
        <time>2013-10-27T07:50:42.000Z</time>
      </trkpt>
      <trkpt lat="43.58409" lon="1.45152">
        <ele>158.60000610352</ele>
        <time>2013-10-27T07:50:45.000Z</time>
      </trkpt>
      <trkpt lat="43.58418" lon="1.45169">
        <ele>158.39999389648</ele>
        <time>2013-10-27T07:50:49.000Z</time>
      </trkpt>
      <trkpt lat="43.58425" lon="1.45189">
        <ele>159</ele>
        <time>2013-10-27T07:50:53.000Z</time>
      </trkpt>
      <trkpt lat="43.58437" lon="1.45218">
        <ele>159.60000610352</ele>
        <time>2013-10-27T07:50:59.000Z</time>
      </trkpt>
      <trkpt lat="43.58439" lon="1.45224">
        <ele>159.80000305176</ele>
        <time>2013-10-27T07:51:00.000Z</time>
      </trkpt>
      <trkpt lat="43.58445" lon="1.45238">
        <ele>160</ele>
        <time>2013-10-27T07:51:03.000Z</time>
      </trkpt>
      <trkpt lat="43.58461" lon="1.45266">
        <ele>160.19999694824</ele>
        <time>2013-10-27T07:51:09.000Z</time>
      </trkpt>
      <trkpt lat="43.58466" lon="1.45275">
        <ele>160.19999694824</ele>
        <time>2013-10-27T07:51:11.000Z</time>
      </trkpt>
      <trkpt lat="43.58472" lon="1.45295">
        <ele>160.19999694824</ele>
        <time>2013-10-27T07:51:15.000Z</time>
      </trkpt>
      <trkpt lat="43.58476" lon="1.45306">
        <ele>160.19999694824</ele>
        <time>2013-10-27T07:51:17.000Z</time>
      </trkpt>
      <trkpt lat="43.58484" lon="1.45326">
        <ele>160.39999389648</ele>
        <time>2013-10-27T07:51:21.000Z</time>
      </trkpt>
      <trkpt lat="43.58488" lon="1.45338">
        <ele>160.39999389648</ele>
        <time>2013-10-27T07:51:23.000Z</time>
      </trkpt>
      <trkpt lat="43.58493" lon="1.45348">
        <ele>160.39999389648</ele>
        <time>2013-10-27T07:51:25.000Z</time>
      </trkpt>
      <trkpt lat="43.58503" lon="1.45375">
        <ele>160.39999389648</ele>
        <time>2013-10-27T07:51:30.000Z</time>
      </trkpt>
      <trkpt lat="43.58516" lon="1.45393">
        <ele>160.39999389648</ele>
        <time>2013-10-27T07:51:35.000Z</time>
      </trkpt>
      <trkpt lat="43.58527" lon="1.45427">
        <ele>160.39999389648</ele>
        <time>2013-10-27T07:51:41.000Z</time>
      </trkpt>
      <trkpt lat="43.58529" lon="1.45433">
        <ele>160.39999389648</ele>
        <time>2013-10-27T07:51:42.000Z</time>
      </trkpt>
      <trkpt lat="43.58535" lon="1.45454">
        <ele>160.39999389648</ele>
        <time>2013-10-27T07:51:46.000Z</time>
      </trkpt>
      <trkpt lat="43.58538" lon="1.45464">
        <ele>160.39999389648</ele>
        <time>2013-10-27T07:51:48.000Z</time>
      </trkpt>
      <trkpt lat="43.58544" lon="1.45473">
        <ele>160.39999389648</ele>
        <time>2013-10-27T07:51:50.000Z</time>
      </trkpt>
      <trkpt lat="43.58555" lon="1.45498">
        <ele>160.39999389648</ele>
        <time>2013-10-27T07:51:55.000Z</time>
      </trkpt>
      <trkpt lat="43.58559" lon="1.4551">
        <ele>160.39999389648</ele>
        <time>2013-10-27T07:51:57.000Z</time>
      </trkpt>
      <trkpt lat="43.58567" lon="1.45534">
        <ele>160.39999389648</ele>
        <time>2013-10-27T07:52:01.000Z</time>
      </trkpt>
      <trkpt lat="43.5858" lon="1.4555">
        <ele>160.39999389648</ele>
        <time>2013-10-27T07:52:05.000Z</time>
      </trkpt>
      <trkpt lat="43.58587" lon="1.45569">
        <ele>160.39999389648</ele>
        <time>2013-10-27T07:52:09.000Z</time>
      </trkpt>
      <trkpt lat="43.58588" lon="1.45572">
        <ele>160.39999389648</ele>
        <time>2013-10-27T07:52:10.000Z</time>
      </trkpt>
      <trkpt lat="43.5859" lon="1.45581">
        <ele>160.39999389648</ele>
        <time>2013-10-27T07:52:11.000Z</time>
      </trkpt>
      <trkpt lat="43.58594" lon="1.45593">
        <ele>160.39999389648</ele>
        <time>2013-10-27T07:52:13.000Z</time>
      </trkpt>
      <trkpt lat="43.58601" lon="1.45613">
        <ele>160.39999389648</ele>
        <time>2013-10-27T07:52:17.000Z</time>
      </trkpt>
      <trkpt lat="43.58605" lon="1.45622">
        <ele>160.39999389648</ele>
        <time>2013-10-27T07:52:19.000Z</time>
      </trkpt>
      <trkpt lat="43.58614" lon="1.45642">
        <ele>160.39999389648</ele>
        <time>2013-10-27T07:52:23.000Z</time>
      </trkpt>
      <trkpt lat="43.5862" lon="1.45656">
        <ele>160.39999389648</ele>
        <time>2013-10-27T07:52:26.000Z</time>
      </trkpt>
      <trkpt lat="43.58623" lon="1.45666">
        <ele>160.39999389648</ele>
        <time>2013-10-27T07:52:28.000Z</time>
      </trkpt>
      <trkpt lat="43.58636" lon="1.45692">
        <ele>160.39999389648</ele>
        <time>2013-10-27T07:52:34.000Z</time>
      </trkpt>
      <trkpt lat="43.58646" lon="1.45718">
        <ele>160.39999389648</ele>
        <time>2013-10-27T07:52:39.000Z</time>
      </trkpt>
      <trkpt lat="43.58651" lon="1.45731">
        <ele>160.39999389648</ele>
        <time>2013-10-27T07:52:42.000Z</time>
      </trkpt>
      <trkpt lat="43.58664" lon="1.45755">
        <ele>160.39999389648</ele>
        <time>2013-10-27T07:52:47.000Z</time>
      </trkpt>
      <trkpt lat="43.58667" lon="1.45759">
        <ele>160.39999389648</ele>
        <time>2013-10-27T07:52:48.000Z</time>
      </trkpt>
      <trkpt lat="43.58677" lon="1.45784">
        <ele>160.39999389648</ele>
        <time>2013-10-27T07:52:53.000Z</time>
      </trkpt>
      <trkpt lat="43.58678" lon="1.45789">
        <ele>160.39999389648</ele>
        <time>2013-10-27T07:52:54.000Z</time>
      </trkpt>
      <trkpt lat="43.58684" lon="1.45804">
        <ele>160.39999389648</ele>
        <time>2013-10-27T07:52:57.000Z</time>
      </trkpt>
      <trkpt lat="43.58694" lon="1.45825">
        <ele>160.39999389648</ele>
        <time>2013-10-27T07:53:02.000Z</time>
      </trkpt>
      <trkpt lat="43.58704" lon="1.45849">
        <ele>160.39999389648</ele>
        <time>2013-10-27T07:53:07.000Z</time>
      </trkpt>
      <trkpt lat="43.58709" lon="1.45861">
        <ele>160.39999389648</ele>
        <time>2013-10-27T07:53:09.000Z</time>
      </trkpt>
      <trkpt lat="43.58722" lon="1.45886">
        <ele>160.39999389648</ele>
        <time>2013-10-27T07:53:14.000Z</time>
      </trkpt>
      <trkpt lat="43.58732" lon="1.45909">
        <ele>160.39999389648</ele>
        <time>2013-10-27T07:53:18.000Z</time>
      </trkpt>
      <trkpt lat="43.58734" lon="1.45916">
        <ele>160.39999389648</ele>
        <time>2013-10-27T07:53:19.000Z</time>
      </trkpt>
      <trkpt lat="43.58745" lon="1.45939">
        <ele>160.19999694824</ele>
        <time>2013-10-27T07:53:23.000Z</time>
      </trkpt>
      <trkpt lat="43.5875" lon="1.45948">
        <ele>159.80000305176</ele>
        <time>2013-10-27T07:53:25.000Z</time>
      </trkpt>
      <trkpt lat="43.58755" lon="1.45957">
        <ele>159.60000610352</ele>
        <time>2013-10-27T07:53:27.000Z</time>
      </trkpt>
      <trkpt lat="43.58769" lon="1.45983">
        <ele>159</ele>
        <time>2013-10-27T07:53:32.000Z</time>
      </trkpt>
      <trkpt lat="43.58772" lon="1.45987">
        <ele>159</ele>
        <time>2013-10-27T07:53:33.000Z</time>
      </trkpt>
      <trkpt lat="43.58779" lon="1.45989">
        <ele>158.80000305176</ele>
        <time>2013-10-27T07:53:36.000Z</time>
      </trkpt>
      <trkpt lat="43.58784" lon="1.45978">
        <ele>158.80000305176</ele>
        <time>2013-10-27T07:53:38.000Z</time>
      </trkpt>
      <trkpt lat="43.58799" lon="1.45951">
        <ele>158.60000610352</ele>
        <time>2013-10-27T07:53:44.000Z</time>
      </trkpt>
      <trkpt lat="43.58802" lon="1.45947">
        <ele>158.60000610352</ele>
        <time>2013-10-27T07:53:45.000Z</time>
      </trkpt>
      <trkpt lat="43.58814" lon="1.45924">
        <ele>158.39999389648</ele>
        <time>2013-10-27T07:53:49.000Z</time>
      </trkpt>
      <trkpt lat="43.58816" lon="1.45919">
        <ele>158.19999694824</ele>
        <time>2013-10-27T07:53:50.000Z</time>
      </trkpt>
      <trkpt lat="43.58824" lon="1.45896">
        <ele>157.60000610352</ele>
        <time>2013-10-27T07:53:54.000Z</time>
      </trkpt>
      <trkpt lat="43.58827" lon="1.45891">
        <ele>157.39999389648</ele>
        <time>2013-10-27T07:53:55.000Z</time>
      </trkpt>
      <trkpt lat="43.58837" lon="1.45868">
        <ele>157.19999694824</ele>
        <time>2013-10-27T07:53:59.000Z</time>
      </trkpt>
      <trkpt lat="43.58845" lon="1.45851">
        <ele>157</ele>
        <time>2013-10-27T07:54:02.000Z</time>
      </trkpt>
      <trkpt lat="43.58857" lon="1.45827">
        <ele>156.60000610352</ele>
        <time>2013-10-27T07:54:07.000Z</time>
      </trkpt>
      <trkpt lat="43.58866" lon="1.45808">
        <ele>156.60000610352</ele>
        <time>2013-10-27T07:54:11.000Z</time>
      </trkpt>
      <trkpt lat="43.58867" lon="1.45802">
        <ele>156.60000610352</ele>
        <time>2013-10-27T07:54:12.000Z</time>
      </trkpt>
      <trkpt lat="43.58869" lon="1.45789">
        <ele>156.39999389648</ele>
        <time>2013-10-27T07:54:15.000Z</time>
      </trkpt>
      <trkpt lat="43.58872" lon="1.45773">
        <ele>156.19999694824</ele>
        <time>2013-10-27T07:54:19.000Z</time>
      </trkpt>
      <trkpt lat="43.58878" lon="1.45763">
        <ele>155.80000305176</ele>
        <time>2013-10-27T07:54:21.000Z</time>
      </trkpt>
      <trkpt lat="43.5889" lon="1.45738">
        <ele>155.19999694824</ele>
        <time>2013-10-27T07:54:26.000Z</time>
      </trkpt>
      <trkpt lat="43.58895" lon="1.45727">
        <ele>155</ele>
        <time>2013-10-27T07:54:28.000Z</time>
      </trkpt>
      <trkpt lat="43.58899" lon="1.45715">
        <ele>155</ele>
        <time>2013-10-27T07:54:30.000Z</time>
      </trkpt>
      <trkpt lat="43.58907" lon="1.45696">
        <ele>154.60000610352</ele>
        <time>2013-10-27T07:54:34.000Z</time>
      </trkpt>
      <trkpt lat="43.58912" lon="1.45685">
        <ele>154.60000610352</ele>
        <time>2013-10-27T07:54:36.000Z</time>
      </trkpt>
      <trkpt lat="43.58914" lon="1.45679">
        <ele>154.60000610352</ele>
        <time>2013-10-27T07:54:37.000Z</time>
      </trkpt>
      <trkpt lat="43.58924" lon="1.45651">
        <ele>154.19999694824</ele>
        <time>2013-10-27T07:54:42.000Z</time>
      </trkpt>
      <trkpt lat="43.58925" lon="1.45646">
        <ele>154</ele>
        <time>2013-10-27T07:54:43.000Z</time>
      </trkpt>
      <trkpt lat="43.58927" lon="1.45641">
        <ele>153.80000305176</ele>
        <time>2013-10-27T07:54:44.000Z</time>
      </trkpt>
      <trkpt lat="43.58932" lon="1.45631">
        <ele>153.60000610352</ele>
        <time>2013-10-27T07:54:46.000Z</time>
      </trkpt>
      <trkpt lat="43.58939" lon="1.45617">
        <ele>153.19999694824</ele>
        <time>2013-10-27T07:54:49.000Z</time>
      </trkpt>
      <trkpt lat="43.58946" lon="1.45603">
        <ele>153</ele>
        <time>2013-10-27T07:54:52.000Z</time>
      </trkpt>
      <trkpt lat="43.58957" lon="1.4558">
        <ele>152.60000610352</ele>
        <time>2013-10-27T07:54:57.000Z</time>
      </trkpt>
      <trkpt lat="43.58968" lon="1.45553">
        <ele>152.60000610352</ele>
        <time>2013-10-27T07:55:02.000Z</time>
      </trkpt>
      <trkpt lat="43.5897" lon="1.45548">
        <ele>152.60000610352</ele>
        <time>2013-10-27T07:55:03.000Z</time>
      </trkpt>
      <trkpt lat="43.58977" lon="1.45533">
        <ele>152.39999389648</ele>
        <time>2013-10-27T07:55:06.000Z</time>
      </trkpt>
      <trkpt lat="43.5898" lon="1.45523">
        <ele>152.39999389648</ele>
        <time>2013-10-27T07:55:08.000Z</time>
      </trkpt>
      <trkpt lat="43.58984" lon="1.45512">
        <ele>152.39999389648</ele>
        <time>2013-10-27T07:55:10.000Z</time>
      </trkpt>
      <trkpt lat="43.58992" lon="1.45489">
        <ele>152.39999389648</ele>
        <time>2013-10-27T07:55:14.000Z</time>
      </trkpt>
      <trkpt lat="43.59002" lon="1.45472">
        <ele>152.39999389648</ele>
        <time>2013-10-27T07:55:18.000Z</time>
      </trkpt>
      <trkpt lat="43.59008" lon="1.45457">
        <ele>152.39999389648</ele>
        <time>2013-10-27T07:55:21.000Z</time>
      </trkpt>
      <trkpt lat="43.59015" lon="1.45442">
        <ele>152.39999389648</ele>
        <time>2013-10-27T07:55:24.000Z</time>
      </trkpt>
      <trkpt lat="43.59024" lon="1.45422">
        <ele>152.39999389648</ele>
        <time>2013-10-27T07:55:28.000Z</time>
      </trkpt>
      <trkpt lat="43.59031" lon="1.45408">
        <ele>152.19999694824</ele>
        <time>2013-10-27T07:55:31.000Z</time>
      </trkpt>
      <trkpt lat="43.59041" lon="1.45388">
        <ele>152.19999694824</ele>
        <time>2013-10-27T07:55:35.000Z</time>
      </trkpt>
      <trkpt lat="43.59043" lon="1.45382">
        <ele>152.19999694824</ele>
        <time>2013-10-27T07:55:36.000Z</time>
      </trkpt>
      <trkpt lat="43.59055" lon="1.4536">
        <ele>152.19999694824</ele>
        <time>2013-10-27T07:55:41.000Z</time>
      </trkpt>
      <trkpt lat="43.59062" lon="1.45353">
        <ele>152.19999694824</ele>
        <time>2013-10-27T07:55:43.000Z</time>
      </trkpt>
      <trkpt lat="43.59071" lon="1.4535">
        <ele>152.19999694824</ele>
        <time>2013-10-27T07:55:45.000Z</time>
      </trkpt>
      <trkpt lat="43.5908" lon="1.45351">
        <ele>152.19999694824</ele>
        <time>2013-10-27T07:55:47.000Z</time>
      </trkpt>
      <trkpt lat="43.59097" lon="1.45348">
        <ele>152.19999694824</ele>
        <time>2013-10-27T07:55:51.000Z</time>
      </trkpt>
      <trkpt lat="43.59105" lon="1.45346">
        <ele>152.19999694824</ele>
        <time>2013-10-27T07:55:53.000Z</time>
      </trkpt>
      <trkpt lat="43.59123" lon="1.45341">
        <ele>152.19999694824</ele>
        <time>2013-10-27T07:55:57.000Z</time>
      </trkpt>
      <trkpt lat="43.59127" lon="1.45339">
        <ele>152.19999694824</ele>
        <time>2013-10-27T07:55:58.000Z</time>
      </trkpt>
      <trkpt lat="43.59135" lon="1.45335">
        <ele>152.19999694824</ele>
        <time>2013-10-27T07:56:00.000Z</time>
      </trkpt>
      <trkpt lat="43.59155" lon="1.45327">
        <ele>152.19999694824</ele>
        <time>2013-10-27T07:56:05.000Z</time>
      </trkpt>
      <trkpt lat="43.59163" lon="1.45325">
        <ele>152.19999694824</ele>
        <time>2013-10-27T07:56:07.000Z</time>
      </trkpt>
      <trkpt lat="43.59173" lon="1.45323">
        <ele>152.19999694824</ele>
        <time>2013-10-27T07:56:09.000Z</time>
      </trkpt>
      <trkpt lat="43.59194" lon="1.45325">
        <ele>152.60000610352</ele>
        <time>2013-10-27T07:56:14.000Z</time>
      </trkpt>
      <trkpt lat="43.59216" lon="1.45324">
        <ele>153.39999389648</ele>
        <time>2013-10-27T07:56:19.000Z</time>
      </trkpt>
      <trkpt lat="43.5922" lon="1.45323">
        <ele>153.39999389648</ele>
        <time>2013-10-27T07:56:20.000Z</time>
      </trkpt>
      <trkpt lat="43.59227" lon="1.45321">
        <ele>153.60000610352</ele>
        <time>2013-10-27T07:56:22.000Z</time>
      </trkpt>
      <trkpt lat="43.59242" lon="1.45312">
        <ele>153.80000305176</ele>
        <time>2013-10-27T07:56:26.000Z</time>
      </trkpt>
      <trkpt lat="43.59261" lon="1.45303">
        <ele>154</ele>
        <time>2013-10-27T07:56:31.000Z</time>
      </trkpt>
      <trkpt lat="43.59265" lon="1.45303">
        <ele>154</ele>
        <time>2013-10-27T07:56:32.000Z</time>
      </trkpt>
      <trkpt lat="43.59279" lon="1.453">
        <ele>154.19999694824</ele>
        <time>2013-10-27T07:56:35.000Z</time>
      </trkpt>
      <trkpt lat="43.5929" lon="1.45299">
        <ele>154.19999694824</ele>
        <time>2013-10-27T07:56:38.000Z</time>
      </trkpt>
      <trkpt lat="43.59307" lon="1.45286">
        <ele>154.19999694824</ele>
        <time>2013-10-27T07:56:44.000Z</time>
      </trkpt>
      <trkpt lat="43.59329" lon="1.45287">
        <ele>154.19999694824</ele>
        <time>2013-10-27T07:56:49.000Z</time>
      </trkpt>
      <trkpt lat="43.59333" lon="1.45289">
        <ele>154.39999389648</ele>
        <time>2013-10-27T07:56:50.000Z</time>
      </trkpt>
      <trkpt lat="43.5935" lon="1.45286">
        <ele>154.39999389648</ele>
        <time>2013-10-27T07:56:54.000Z</time>
      </trkpt>
      <trkpt lat="43.59373" lon="1.45283">
        <ele>154.39999389648</ele>
        <time>2013-10-27T07:57:00.000Z</time>
      </trkpt>
      <trkpt lat="43.59377" lon="1.45283">
        <ele>154.39999389648</ele>
        <time>2013-10-27T07:57:01.000Z</time>
      </trkpt>
      <trkpt lat="43.59386" lon="1.45284">
        <ele>154.39999389648</ele>
        <time>2013-10-27T07:57:03.000Z</time>
      </trkpt>
      <trkpt lat="43.59407" lon="1.45283">
        <ele>154.39999389648</ele>
        <time>2013-10-27T07:57:08.000Z</time>
      </trkpt>
      <trkpt lat="43.59416" lon="1.45282">
        <ele>154.39999389648</ele>
        <time>2013-10-27T07:57:10.000Z</time>
      </trkpt>
      <trkpt lat="43.59424" lon="1.4528">
        <ele>154.39999389648</ele>
        <time>2013-10-27T07:57:12.000Z</time>
      </trkpt>
      <trkpt lat="43.59444" lon="1.45276">
        <ele>154.39999389648</ele>
        <time>2013-10-27T07:57:17.000Z</time>
      </trkpt>
      <trkpt lat="43.59451" lon="1.45275">
        <ele>154.39999389648</ele>
        <time>2013-10-27T07:57:19.000Z</time>
      </trkpt>
      <trkpt lat="43.5946" lon="1.45279">
        <ele>154.39999389648</ele>
        <time>2013-10-27T07:57:21.000Z</time>
      </trkpt>
      <trkpt lat="43.59474" lon="1.45296">
        <ele>154.39999389648</ele>
        <time>2013-10-27T07:57:24.000Z</time>
      </trkpt>
      <trkpt lat="43.59488" lon="1.45311">
        <ele>154.39999389648</ele>
        <time>2013-10-27T07:57:27.000Z</time>
      </trkpt>
      <trkpt lat="43.59496" lon="1.4532">
        <ele>154.39999389648</ele>
        <time>2013-10-27T07:57:29.000Z</time>
      </trkpt>
      <trkpt lat="43.59506" lon="1.45329">
        <ele>154.39999389648</ele>
        <time>2013-10-27T07:57:32.000Z</time>
      </trkpt>
      <trkpt lat="43.59517" lon="1.4535">
        <ele>154.39999389648</ele>
        <time>2013-10-27T07:57:36.000Z</time>
      </trkpt>
      <trkpt lat="43.59522" lon="1.4536">
        <ele>154.39999389648</ele>
        <time>2013-10-27T07:57:38.000Z</time>
      </trkpt>
      <trkpt lat="43.59528" lon="1.45367">
        <ele>154.60000610352</ele>
        <time>2013-10-27T07:57:40.000Z</time>
      </trkpt>
      <trkpt lat="43.59538" lon="1.45374">
        <ele>155</ele>
        <time>2013-10-27T07:57:42.000Z</time>
      </trkpt>
      <trkpt lat="43.59549" lon="1.45382">
        <ele>155.39999389648</ele>
        <time>2013-10-27T07:57:46.000Z</time>
      </trkpt>
      <trkpt lat="43.59569" lon="1.45389">
        <ele>155.80000305176</ele>
        <time>2013-10-27T07:57:52.000Z</time>
      </trkpt>
      <trkpt lat="43.59585" lon="1.45386">
        <ele>156</ele>
        <time>2013-10-27T07:57:56.000Z</time>
      </trkpt>
      <trkpt lat="43.59603" lon="1.45377">
        <ele>156.19999694824</ele>
        <time>2013-10-27T07:58:00.000Z</time>
      </trkpt>
      <trkpt lat="43.59606" lon="1.45375">
        <ele>156.19999694824</ele>
        <time>2013-10-27T07:58:01.000Z</time>
      </trkpt>
      <trkpt lat="43.59622" lon="1.45359">
        <ele>156.19999694824</ele>
        <time>2013-10-27T07:58:07.000Z</time>
      </trkpt>
      <trkpt lat="43.59637" lon="1.45339">
        <ele>156.39999389648</ele>
        <time>2013-10-27T07:58:12.000Z</time>
      </trkpt>
      <trkpt lat="43.59644" lon="1.45325">
        <ele>156.39999389648</ele>
        <time>2013-10-27T07:58:15.000Z</time>
      </trkpt>
      <trkpt lat="43.59653" lon="1.45301">
        <ele>156.39999389648</ele>
        <time>2013-10-27T07:58:20.000Z</time>
      </trkpt>
      <trkpt lat="43.5966" lon="1.45276">
        <ele>156.39999389648</ele>
        <time>2013-10-27T07:58:24.000Z</time>
      </trkpt>
      <trkpt lat="43.5967" lon="1.45267">
        <ele>156.39999389648</ele>
        <time>2013-10-27T07:58:27.000Z</time>
      </trkpt>
      <trkpt lat="43.59674" lon="1.45266">
        <ele>156.39999389648</ele>
        <time>2013-10-27T07:58:28.000Z</time>
      </trkpt>
      <trkpt lat="43.59678" lon="1.45264">
        <ele>156.39999389648</ele>
        <time>2013-10-27T07:58:29.000Z</time>
      </trkpt>
      <trkpt lat="43.59693" lon="1.45259">
        <ele>155.60000610352</ele>
        <time>2013-10-27T07:58:33.000Z</time>
      </trkpt>
      <trkpt lat="43.5971" lon="1.45251">
        <ele>155.19999694824</ele>
        <time>2013-10-27T07:58:38.000Z</time>
      </trkpt>
      <trkpt lat="43.59714" lon="1.4525">
        <ele>155</ele>
        <time>2013-10-27T07:58:39.000Z</time>
      </trkpt>
      <trkpt lat="43.59738" lon="1.4524">
        <ele>154.80000305176</ele>
        <time>2013-10-27T07:58:45.000Z</time>
      </trkpt>
      <trkpt lat="43.59747" lon="1.45238">
        <ele>154.60000610352</ele>
        <time>2013-10-27T07:58:47.000Z</time>
      </trkpt>
      <trkpt lat="43.59761" lon="1.45235">
        <ele>154.60000610352</ele>
        <time>2013-10-27T07:58:50.000Z</time>
      </trkpt>
      <trkpt lat="43.59775" lon="1.45231">
        <ele>154.39999389648</ele>
        <time>2013-10-27T07:58:54.000Z</time>
      </trkpt>
      <trkpt lat="43.59794" lon="1.45233">
        <ele>154.39999389648</ele>
        <time>2013-10-27T07:58:59.000Z</time>
      </trkpt>
      <trkpt lat="43.59798" lon="1.45232">
        <ele>154.39999389648</ele>
        <time>2013-10-27T07:59:00.000Z</time>
      </trkpt>
      <trkpt lat="43.59821" lon="1.45227">
        <ele>154.39999389648</ele>
        <time>2013-10-27T07:59:05.000Z</time>
      </trkpt>
      <trkpt lat="43.59836" lon="1.45224">
        <ele>154.39999389648</ele>
        <time>2013-10-27T07:59:09.000Z</time>
      </trkpt>
      <trkpt lat="43.59858" lon="1.45221">
        <ele>155</ele>
        <time>2013-10-27T07:59:14.000Z</time>
      </trkpt>
      <trkpt lat="43.59875" lon="1.45219">
        <ele>155.39999389648</ele>
        <time>2013-10-27T07:59:18.000Z</time>
      </trkpt>
      <trkpt lat="43.59879" lon="1.45219">
        <ele>155.60000610352</ele>
        <time>2013-10-27T07:59:19.000Z</time>
      </trkpt>
      <trkpt lat="43.59887" lon="1.45217">
        <ele>155.80000305176</ele>
        <time>2013-10-27T07:59:21.000Z</time>
      </trkpt>
      <trkpt lat="43.59908" lon="1.45213">
        <ele>156.80000305176</ele>
        <time>2013-10-27T07:59:26.000Z</time>
      </trkpt>
      <trkpt lat="43.59919" lon="1.4521">
        <ele>157.19999694824</ele>
        <time>2013-10-27T07:59:29.000Z</time>
      </trkpt>
      <trkpt lat="43.59931" lon="1.45207">
        <ele>157.80000305176</ele>
        <time>2013-10-27T07:59:32.000Z</time>
      </trkpt>
      <trkpt lat="43.59939" lon="1.45205">
        <ele>158.39999389648</ele>
        <time>2013-10-27T07:59:34.000Z</time>
      </trkpt>
      <trkpt lat="43.59964" lon="1.45202">
        <ele>159.60000610352</ele>
        <time>2013-10-27T07:59:40.000Z</time>
      </trkpt>
      <trkpt lat="43.59979" lon="1.45201">
        <ele>160.39999389648</ele>
        <time>2013-10-27T07:59:43.000Z</time>
      </trkpt>
      <trkpt lat="43.59987" lon="1.452">
        <ele>161</ele>
        <time>2013-10-27T07:59:45.000Z</time>
      </trkpt>
      <trkpt lat="43.59994" lon="1.452">
        <ele>161.80000305176</ele>
        <time>2013-10-27T07:59:47.000Z</time>
      </trkpt>
      <trkpt lat="43.60012" lon="1.45197">
        <ele>163.39999389648</ele>
        <time>2013-10-27T07:59:51.000Z</time>
      </trkpt>
      <trkpt lat="43.60028" lon="1.45185">
        <ele>165.39999389648</ele>
        <time>2013-10-27T07:59:56.000Z</time>
      </trkpt>
      <trkpt lat="43.60032" lon="1.45167">
        <ele>166.60000610352</ele>
        <time>2013-10-27T08:00:00.000Z</time>
      </trkpt>
      <trkpt lat="43.60033" lon="1.45162">
        <ele>167</ele>
        <time>2013-10-27T08:00:01.000Z</time>
      </trkpt>
      <trkpt lat="43.60039" lon="1.45134">
        <ele>167.80000305176</ele>
        <time>2013-10-27T08:00:06.000Z</time>
      </trkpt>
      <trkpt lat="43.60045" lon="1.45109">
        <ele>168.39999389648</ele>
        <time>2013-10-27T08:00:11.000Z</time>
      </trkpt>
      <trkpt lat="43.60049" lon="1.45102">
        <ele>168.60000610352</ele>
        <time>2013-10-27T08:00:12.000Z</time>
      </trkpt>
      <trkpt lat="43.60062" lon="1.45077">
        <ele>168.80000305176</ele>
        <time>2013-10-27T08:00:17.000Z</time>
      </trkpt>
      <trkpt lat="43.60064" lon="1.45063">
        <ele>169</ele>
        <time>2013-10-27T08:00:21.000Z</time>
      </trkpt>
      <trkpt lat="43.60064" lon="1.45059">
        <ele>169</ele>
        <time>2013-10-27T08:00:22.000Z</time>
      </trkpt>
      <trkpt lat="43.60062" lon="1.45049">
        <ele>169</ele>
        <time>2013-10-27T08:00:24.000Z</time>
      </trkpt>
      <trkpt lat="43.60057" lon="1.45031">
        <ele>169</ele>
        <time>2013-10-27T08:00:28.000Z</time>
      </trkpt>
      <trkpt lat="43.60061" lon="1.45004">
        <ele>169.19999694824</ele>
        <time>2013-10-27T08:00:33.000Z</time>
      </trkpt>
      <trkpt lat="43.6006" lon="1.44999">
        <ele>169.19999694824</ele>
        <time>2013-10-27T08:00:34.000Z</time>
      </trkpt>
      <trkpt lat="43.60058" lon="1.44975">
        <ele>169.19999694824</ele>
        <time>2013-10-27T08:00:39.000Z</time>
      </trkpt>
      <trkpt lat="43.60059" lon="1.44955">
        <ele>169.19999694824</ele>
        <time>2013-10-27T08:00:44.000Z</time>
      </trkpt>
      <trkpt lat="43.60055" lon="1.44937">
        <ele>169.19999694824</ele>
        <time>2013-10-27T08:00:48.000Z</time>
      </trkpt>
      <trkpt lat="43.60057" lon="1.44932">
        <ele>169.19999694824</ele>
        <time>2013-10-27T08:00:49.000Z</time>
      </trkpt>
      <trkpt lat="43.60056" lon="1.44909">
        <ele>169.19999694824</ele>
        <time>2013-10-27T08:00:53.000Z</time>
      </trkpt>
      <trkpt lat="43.60055" lon="1.44882">
        <ele>168.80000305176</ele>
        <time>2013-10-27T08:00:58.000Z</time>
      </trkpt>
      <trkpt lat="43.60055" lon="1.44876">
        <ele>168.60000610352</ele>
        <time>2013-10-27T08:00:59.000Z</time>
      </trkpt>
      <trkpt lat="43.60055" lon="1.44866">
        <ele>168.39999389648</ele>
        <time>2013-10-27T08:01:01.000Z</time>
      </trkpt>
      <trkpt lat="43.60054" lon="1.44844">
        <ele>168</ele>
        <time>2013-10-27T08:01:05.000Z</time>
      </trkpt>
      <trkpt lat="43.60055" lon="1.44826">
        <ele>167.60000610352</ele>
        <time>2013-10-27T08:01:09.000Z</time>
      </trkpt>
      <trkpt lat="43.60053" lon="1.44809">
        <ele>167.60000610352</ele>
        <time>2013-10-27T08:01:12.000Z</time>
      </trkpt>
      <trkpt lat="43.60053" lon="1.44803">
        <ele>167.60000610352</ele>
        <time>2013-10-27T08:01:13.000Z</time>
      </trkpt>
      <trkpt lat="43.60057" lon="1.44775">
        <ele>167.39999389648</ele>
        <time>2013-10-27T08:01:18.000Z</time>
      </trkpt>
      <trkpt lat="43.60059" lon="1.44765">
        <ele>167.39999389648</ele>
        <time>2013-10-27T08:01:20.000Z</time>
      </trkpt>
      <trkpt lat="43.60058" lon="1.44726">
        <ele>166.60000610352</ele>
        <time>2013-10-27T08:01:25.000Z</time>
      </trkpt>
      <trkpt lat="43.60059" lon="1.4471">
        <ele>166.19999694824</ele>
        <time>2013-10-27T08:01:28.000Z</time>
      </trkpt>
      <trkpt lat="43.6006" lon="1.44697">
        <ele>166</ele>
        <time>2013-10-27T08:01:30.000Z</time>
      </trkpt>
      <trkpt lat="43.60059" lon="1.44683">
        <ele>165.80000305176</ele>
        <time>2013-10-27T08:01:32.000Z</time>
      </trkpt>
      <trkpt lat="43.60056" lon="1.44666">
        <ele>165.60000610352</ele>
        <time>2013-10-27T08:01:35.000Z</time>
      </trkpt>
      <trkpt lat="43.6005" lon="1.44641">
        <ele>165.39999389648</ele>
        <time>2013-10-27T08:01:39.000Z</time>
      </trkpt>
      <trkpt lat="43.60046" lon="1.4462">
        <ele>165</ele>
        <time>2013-10-27T08:01:43.000Z</time>
      </trkpt>
      <trkpt lat="43.6004" lon="1.44605">
        <ele>164.19999694824</ele>
        <time>2013-10-27T08:01:47.000Z</time>
      </trkpt>
      <trkpt lat="43.60037" lon="1.44578">
        <ele>163.80000305176</ele>
        <time>2013-10-27T08:01:52.000Z</time>
      </trkpt>
      <trkpt lat="43.60034" lon="1.44563">
        <ele>163.60000610352</ele>
        <time>2013-10-27T08:01:54.000Z</time>
      </trkpt>
      <trkpt lat="43.60035" lon="1.4453">
        <ele>163.39999389648</ele>
        <time>2013-10-27T08:01:59.000Z</time>
      </trkpt>
      <trkpt lat="43.60036" lon="1.44523">
        <ele>163.39999389648</ele>
        <time>2013-10-27T08:02:00.000Z</time>
      </trkpt>
      <trkpt lat="43.60036" lon="1.44498">
        <ele>163.19999694824</ele>
        <time>2013-10-27T08:02:04.000Z</time>
      </trkpt>
      <trkpt lat="43.60036" lon="1.44487">
        <ele>163.19999694824</ele>
        <time>2013-10-27T08:02:06.000Z</time>
      </trkpt>
      <trkpt lat="43.60034" lon="1.44474">
        <ele>163.19999694824</ele>
        <time>2013-10-27T08:02:08.000Z</time>
      </trkpt>
      <trkpt lat="43.60035" lon="1.44443">
        <ele>163.19999694824</ele>
        <time>2013-10-27T08:02:13.000Z</time>
      </trkpt>
      <trkpt lat="43.60032" lon="1.44408">
        <ele>163</ele>
        <time>2013-10-27T08:02:19.000Z</time>
      </trkpt>
      <trkpt lat="43.60031" lon="1.44396">
        <ele>163</ele>
        <time>2013-10-27T08:02:21.000Z</time>
      </trkpt>
      <trkpt lat="43.60033" lon="1.44369">
        <ele>163</ele>
        <time>2013-10-27T08:02:26.000Z</time>
      </trkpt>
      <trkpt lat="43.60029" lon="1.44351">
        <ele>163</ele>
        <time>2013-10-27T08:02:29.000Z</time>
      </trkpt>
      <trkpt lat="43.60023" lon="1.44327">
        <ele>163</ele>
        <time>2013-10-27T08:02:33.000Z</time>
      </trkpt>
      <trkpt lat="43.60017" lon="1.44299">
        <ele>163</ele>
        <time>2013-10-27T08:02:38.000Z</time>
      </trkpt>
      <trkpt lat="43.60009" lon="1.4427">
        <ele>162.39999389648</ele>
        <time>2013-10-27T08:02:43.000Z</time>
      </trkpt>
      <trkpt lat="43.60008" lon="1.44264">
        <ele>162.19999694824</ele>
        <time>2013-10-27T08:02:44.000Z</time>
      </trkpt>
      <trkpt lat="43.60007" lon="1.44259">
        <ele>162</ele>
        <time>2013-10-27T08:02:45.000Z</time>
      </trkpt>
      <trkpt lat="43.6" lon="1.44231">
        <ele>161.60000610352</ele>
        <time>2013-10-27T08:02:50.000Z</time>
      </trkpt>
      <trkpt lat="43.59997" lon="1.44214">
        <ele>161</ele>
        <time>2013-10-27T08:02:53.000Z</time>
      </trkpt>
      <trkpt lat="43.59994" lon="1.44192">
        <ele>160.19999694824</ele>
        <time>2013-10-27T08:02:57.000Z</time>
      </trkpt>
      <trkpt lat="43.59991" lon="1.44181">
        <ele>160</ele>
        <time>2013-10-27T08:02:59.000Z</time>
      </trkpt>
      <trkpt lat="43.59983" lon="1.44152">
        <ele>159.39999389648</ele>
        <time>2013-10-27T08:03:04.000Z</time>
      </trkpt>
      <trkpt lat="43.59982" lon="1.44147">
        <ele>159</ele>
        <time>2013-10-27T08:03:05.000Z</time>
      </trkpt>
      <trkpt lat="43.59977" lon="1.44124">
        <ele>158.39999389648</ele>
        <time>2013-10-27T08:03:09.000Z</time>
      </trkpt>
      <trkpt lat="43.5997" lon="1.44098">
        <ele>157.80000305176</ele>
        <time>2013-10-27T08:03:14.000Z</time>
      </trkpt>
      <trkpt lat="43.59968" lon="1.44087">
        <ele>157.60000610352</ele>
        <time>2013-10-27T08:03:16.000Z</time>
      </trkpt>
      <trkpt lat="43.59961" lon="1.4406">
        <ele>157.19999694824</ele>
        <time>2013-10-27T08:03:21.000Z</time>
      </trkpt>
      <trkpt lat="43.59955" lon="1.44039">
        <ele>157.19999694824</ele>
        <time>2013-10-27T08:03:25.000Z</time>
      </trkpt>
      <trkpt lat="43.59947" lon="1.44005">
        <ele>157</ele>
        <time>2013-10-27T08:03:31.000Z</time>
      </trkpt>
      <trkpt lat="43.59943" lon="1.43979">
        <ele>157</ele>
        <time>2013-10-27T08:03:36.000Z</time>
      </trkpt>
      <trkpt lat="43.59938" lon="1.43954">
        <ele>156.80000305176</ele>
        <time>2013-10-27T08:03:41.000Z</time>
      </trkpt>
      <trkpt lat="43.59933" lon="1.43928">
        <ele>156</ele>
        <time>2013-10-27T08:03:46.000Z</time>
      </trkpt>
      <trkpt lat="43.59931" lon="1.43907">
        <ele>155.60000610352</ele>
        <time>2013-10-27T08:03:50.000Z</time>
      </trkpt>
      <trkpt lat="43.59927" lon="1.4388">
        <ele>155.19999694824</ele>
        <time>2013-10-27T08:03:55.000Z</time>
      </trkpt>
      <trkpt lat="43.59923" lon="1.43857">
        <ele>155.19999694824</ele>
        <time>2013-10-27T08:03:59.000Z</time>
      </trkpt>
      <trkpt lat="43.59918" lon="1.43825">
        <ele>154.80000305176</ele>
        <time>2013-10-27T08:04:04.000Z</time>
      </trkpt>
      <trkpt lat="43.59917" lon="1.43819">
        <ele>154.60000610352</ele>
        <time>2013-10-27T08:04:05.000Z</time>
      </trkpt>
      <trkpt lat="43.59913" lon="1.43794">
        <ele>154</ele>
        <time>2013-10-27T08:04:09.000Z</time>
      </trkpt>
      <trkpt lat="43.59912" lon="1.43788">
        <ele>153.80000305176</ele>
        <time>2013-10-27T08:04:10.000Z</time>
      </trkpt>
      <trkpt lat="43.59907" lon="1.43759">
        <ele>153.39999389648</ele>
        <time>2013-10-27T08:04:15.000Z</time>
      </trkpt>
      <trkpt lat="43.59906" lon="1.43753">
        <ele>153.19999694824</ele>
        <time>2013-10-27T08:04:16.000Z</time>
      </trkpt>
      <trkpt lat="43.59903" lon="1.43737">
        <ele>153</ele>
        <time>2013-10-27T08:04:19.000Z</time>
      </trkpt>
      <trkpt lat="43.599" lon="1.43714">
        <ele>152.19999694824</ele>
        <time>2013-10-27T08:04:23.000Z</time>
      </trkpt>
      <trkpt lat="43.59898" lon="1.43702">
        <ele>151.80000305176</ele>
        <time>2013-10-27T08:04:25.000Z</time>
      </trkpt>
      <trkpt lat="43.59897" lon="1.43684">
        <ele>151.60000610352</ele>
        <time>2013-10-27T08:04:28.000Z</time>
      </trkpt>
      <trkpt lat="43.59895" lon="1.43672">
        <ele>151.39999389648</ele>
        <time>2013-10-27T08:04:30.000Z</time>
      </trkpt>
      <trkpt lat="43.59893" lon="1.43661">
        <ele>151.19999694824</ele>
        <time>2013-10-27T08:04:32.000Z</time>
      </trkpt>
      <trkpt lat="43.59884" lon="1.4363">
        <ele>150.80000305176</ele>
        <time>2013-10-27T08:04:37.000Z</time>
      </trkpt>
      <trkpt lat="43.5988" lon="1.43613">
        <ele>150.19999694824</ele>
        <time>2013-10-27T08:04:40.000Z</time>
      </trkpt>
      <trkpt lat="43.59873" lon="1.43585">
        <ele>149.39999389648</ele>
        <time>2013-10-27T08:04:45.000Z</time>
      </trkpt>
      <trkpt lat="43.5987" lon="1.43575">
        <ele>149.39999389648</ele>
        <time>2013-10-27T08:04:47.000Z</time>
      </trkpt>
      <trkpt lat="43.59868" lon="1.43558">
        <ele>148.80000305176</ele>
        <time>2013-10-27T08:04:50.000Z</time>
      </trkpt>
      <trkpt lat="43.59862" lon="1.4354">
        <ele>148</ele>
        <time>2013-10-27T08:04:54.000Z</time>
      </trkpt>
      <trkpt lat="43.59854" lon="1.4351">
        <ele>147.19999694824</ele>
        <time>2013-10-27T08:05:00.000Z</time>
      </trkpt>
      <trkpt lat="43.59849" lon="1.43483">
        <ele>146.80000305176</ele>
        <time>2013-10-27T08:05:05.000Z</time>
      </trkpt>
      <trkpt lat="43.59848" lon="1.43478">
        <ele>146.39999389648</ele>
        <time>2013-10-27T08:05:06.000Z</time>
      </trkpt>
      <trkpt lat="43.59842" lon="1.43448">
        <ele>145.60000610352</ele>
        <time>2013-10-27T08:05:11.000Z</time>
      </trkpt>
      <trkpt lat="43.5984" lon="1.43436">
        <ele>145.39999389648</ele>
        <time>2013-10-27T08:05:13.000Z</time>
      </trkpt>
      <trkpt lat="43.59837" lon="1.43418">
        <ele>145.19999694824</ele>
        <time>2013-10-27T08:05:16.000Z</time>
      </trkpt>
      <trkpt lat="43.59836" lon="1.43398">
        <ele>144.80000305176</ele>
        <time>2013-10-27T08:05:20.000Z</time>
      </trkpt>
      <trkpt lat="43.59832" lon="1.43378">
        <ele>144.60000610352</ele>
        <time>2013-10-27T08:05:24.000Z</time>
      </trkpt>
      <trkpt lat="43.59825" lon="1.43345">
        <ele>144.60000610352</ele>
        <time>2013-10-27T08:05:30.000Z</time>
      </trkpt>
      <trkpt lat="43.59821" lon="1.43318">
        <ele>144.39999389648</ele>
        <time>2013-10-27T08:05:35.000Z</time>
      </trkpt>
      <trkpt lat="43.59817" lon="1.43291">
        <ele>144.39999389648</ele>
        <time>2013-10-27T08:05:40.000Z</time>
      </trkpt>
      <trkpt lat="43.59812" lon="1.43264">
        <ele>144.39999389648</ele>
        <time>2013-10-27T08:05:45.000Z</time>
      </trkpt>
      <trkpt lat="43.5981" lon="1.43259">
        <ele>144.39999389648</ele>
        <time>2013-10-27T08:05:46.000Z</time>
      </trkpt>
      <trkpt lat="43.59807" lon="1.43243">
        <ele>144.39999389648</ele>
        <time>2013-10-27T08:05:49.000Z</time>
      </trkpt>
      <trkpt lat="43.59806" lon="1.43226">
        <ele>144.39999389648</ele>
        <time>2013-10-27T08:05:52.000Z</time>
      </trkpt>
      <trkpt lat="43.59808" lon="1.43207">
        <ele>143.80000305176</ele>
        <time>2013-10-27T08:05:57.000Z</time>
      </trkpt>
      <trkpt lat="43.59805" lon="1.4318">
        <ele>143.39999389648</ele>
        <time>2013-10-27T08:06:01.000Z</time>
      </trkpt>
      <trkpt lat="43.59801" lon="1.43156">
        <ele>143</ele>
        <time>2013-10-27T08:06:05.000Z</time>
      </trkpt>
      <trkpt lat="43.59798" lon="1.43131">
        <ele>142.80000305176</ele>
        <time>2013-10-27T08:06:09.000Z</time>
      </trkpt>
      <trkpt lat="43.59797" lon="1.43126">
        <ele>142.80000305176</ele>
        <time>2013-10-27T08:06:10.000Z</time>
      </trkpt>
      <trkpt lat="43.59794" lon="1.43102">
        <ele>142.60000610352</ele>
        <time>2013-10-27T08:06:14.000Z</time>
      </trkpt>
      <trkpt lat="43.59797" lon="1.43085">
        <ele>142.60000610352</ele>
        <time>2013-10-27T08:06:17.000Z</time>
      </trkpt>
      <trkpt lat="43.59811" lon="1.43064">
        <ele>142.39999389648</ele>
        <time>2013-10-27T08:06:22.000Z</time>
      </trkpt>
      <trkpt lat="43.59815" lon="1.43061">
        <ele>142.39999389648</ele>
        <time>2013-10-27T08:06:23.000Z</time>
      </trkpt>
      <trkpt lat="43.59818" lon="1.43058">
        <ele>142.39999389648</ele>
        <time>2013-10-27T08:06:24.000Z</time>
      </trkpt>
      <trkpt lat="43.59822" lon="1.43055">
        <ele>142.39999389648</ele>
        <time>2013-10-27T08:06:25.000Z</time>
      </trkpt>
      <trkpt lat="43.59836" lon="1.43045">
        <ele>142.39999389648</ele>
        <time>2013-10-27T08:06:29.000Z</time>
      </trkpt>
      <trkpt lat="43.59851" lon="1.43032">
        <ele>142.39999389648</ele>
        <time>2013-10-27T08:06:33.000Z</time>
      </trkpt>
      <trkpt lat="43.59853" lon="1.4303">
        <ele>142.39999389648</ele>
        <time>2013-10-27T08:06:34.000Z</time>
      </trkpt>
      <trkpt lat="43.59868" lon="1.43017">
        <ele>142.39999389648</ele>
        <time>2013-10-27T08:06:40.000Z</time>
      </trkpt>
      <trkpt lat="43.59883" lon="1.43006">
        <ele>142.39999389648</ele>
        <time>2013-10-27T08:06:45.000Z</time>
      </trkpt>
      <trkpt lat="43.59899" lon="1.42993">
        <ele>143</ele>
        <time>2013-10-27T08:06:49.000Z</time>
      </trkpt>
      <trkpt lat="43.59909" lon="1.42988">
        <ele>143.39999389648</ele>
        <time>2013-10-27T08:06:52.000Z</time>
      </trkpt>
      <trkpt lat="43.59925" lon="1.42978">
        <ele>144.19999694824</ele>
        <time>2013-10-27T08:06:57.000Z</time>
      </trkpt>
      <trkpt lat="43.59941" lon="1.42969">
        <ele>145.19999694824</ele>
        <time>2013-10-27T08:07:01.000Z</time>
      </trkpt>
      <trkpt lat="43.59955" lon="1.4296">
        <ele>145.60000610352</ele>
        <time>2013-10-27T08:07:05.000Z</time>
      </trkpt>
      <trkpt lat="43.5996" lon="1.42957">
        <ele>145.80000305176</ele>
        <time>2013-10-27T08:07:06.000Z</time>
      </trkpt>
      <trkpt lat="43.59976" lon="1.42948">
        <ele>146</ele>
        <time>2013-10-27T08:07:10.000Z</time>
      </trkpt>
      <trkpt lat="43.59991" lon="1.42938">
        <ele>146.60000610352</ele>
        <time>2013-10-27T08:07:14.000Z</time>
      </trkpt>
      <trkpt lat="43.60009" lon="1.42924">
        <ele>147.39999389648</ele>
        <time>2013-10-27T08:07:19.000Z</time>
      </trkpt>
      <trkpt lat="43.60023" lon="1.42914">
        <ele>148</ele>
        <time>2013-10-27T08:07:23.000Z</time>
      </trkpt>
      <trkpt lat="43.60042" lon="1.42899">
        <ele>148.19999694824</ele>
        <time>2013-10-27T08:07:28.000Z</time>
      </trkpt>
      <trkpt lat="43.60055" lon="1.42884">
        <ele>148.39999389648</ele>
        <time>2013-10-27T08:07:32.000Z</time>
      </trkpt>
      <trkpt lat="43.60077" lon="1.42868">
        <ele>148.60000610352</ele>
        <time>2013-10-27T08:07:38.000Z</time>
      </trkpt>
      <trkpt lat="43.60112" lon="1.42837">
        <ele>148.80000305176</ele>
        <time>2013-10-27T08:07:48.000Z</time>
      </trkpt>
      <trkpt lat="43.60133" lon="1.42822">
        <ele>148.80000305176</ele>
        <time>2013-10-27T08:07:54.000Z</time>
      </trkpt>
      <trkpt lat="43.60144" lon="1.42815">
        <ele>149.19999694824</ele>
        <time>2013-10-27T08:07:57.000Z</time>
      </trkpt>
      <trkpt lat="43.60161" lon="1.42804">
        <ele>150</ele>
        <time>2013-10-27T08:08:02.000Z</time>
      </trkpt>
      <trkpt lat="43.60176" lon="1.42794">
        <ele>150.60000610352</ele>
        <time>2013-10-27T08:08:06.000Z</time>
      </trkpt>
      <trkpt lat="43.60196" lon="1.42787">
        <ele>151.60000610352</ele>
        <time>2013-10-27T08:08:11.000Z</time>
      </trkpt>
      <trkpt lat="43.60217" lon="1.42787">
        <ele>152.19999694824</ele>
        <time>2013-10-27T08:08:16.000Z</time>
      </trkpt>
      <trkpt lat="43.60231" lon="1.42788">
        <ele>152.60000610352</ele>
        <time>2013-10-27T08:08:19.000Z</time>
      </trkpt>
      <trkpt lat="43.60235" lon="1.42788">
        <ele>152.60000610352</ele>
        <time>2013-10-27T08:08:20.000Z</time>
      </trkpt>
      <trkpt lat="43.60259" lon="1.42789">
        <ele>152.80000305176</ele>
        <time>2013-10-27T08:08:26.000Z</time>
      </trkpt>
      <trkpt lat="43.60278" lon="1.4279">
        <ele>153</ele>
        <time>2013-10-27T08:08:31.000Z</time>
      </trkpt>
      <trkpt lat="43.60297" lon="1.42791">
        <ele>153</ele>
        <time>2013-10-27T08:08:36.000Z</time>
      </trkpt>
      <trkpt lat="43.60318" lon="1.42793">
        <ele>153</ele>
        <time>2013-10-27T08:08:41.000Z</time>
      </trkpt>
      <trkpt lat="43.60338" lon="1.42794">
        <ele>153.19999694824</ele>
        <time>2013-10-27T08:08:46.000Z</time>
      </trkpt>
      <trkpt lat="43.60358" lon="1.42794">
        <ele>153.19999694824</ele>
        <time>2013-10-27T08:08:51.000Z</time>
      </trkpt>
      <trkpt lat="43.60379" lon="1.42795">
        <ele>153.19999694824</ele>
        <time>2013-10-27T08:08:56.000Z</time>
      </trkpt>
      <trkpt lat="43.60382" lon="1.42795">
        <ele>153.19999694824</ele>
        <time>2013-10-27T08:08:57.000Z</time>
      </trkpt>
      <trkpt lat="43.60407" lon="1.42798">
        <ele>152.60000610352</ele>
        <time>2013-10-27T08:09:03.000Z</time>
      </trkpt>
      <trkpt lat="43.60426" lon="1.42799">
        <ele>152</ele>
        <time>2013-10-27T08:09:08.000Z</time>
      </trkpt>
      <trkpt lat="43.60443" lon="1.428">
        <ele>151.60000610352</ele>
        <time>2013-10-27T08:09:13.000Z</time>
      </trkpt>
      <trkpt lat="43.60463" lon="1.428">
        <ele>151.39999389648</ele>
        <time>2013-10-27T08:09:18.000Z</time>
      </trkpt>
      <trkpt lat="43.60485" lon="1.428">
        <ele>151.39999389648</ele>
        <time>2013-10-27T08:09:23.000Z</time>
      </trkpt>
      <trkpt lat="43.6049" lon="1.428">
        <ele>151.60000610352</ele>
        <time>2013-10-27T08:09:24.000Z</time>
      </trkpt>
      <trkpt lat="43.60498" lon="1.42801">
        <ele>152</ele>
        <time>2013-10-27T08:09:26.000Z</time>
      </trkpt>
      <trkpt lat="43.60512" lon="1.42803">
        <ele>152.39999389648</ele>
        <time>2013-10-27T08:09:29.000Z</time>
      </trkpt>
      <trkpt lat="43.60535" lon="1.42804">
        <ele>152.80000305176</ele>
        <time>2013-10-27T08:09:34.000Z</time>
      </trkpt>
      <trkpt lat="43.60538" lon="1.42805">
        <ele>153</ele>
        <time>2013-10-27T08:09:35.000Z</time>
      </trkpt>
      <trkpt lat="43.60541" lon="1.42805">
        <ele>153.19999694824</ele>
        <time>2013-10-27T08:09:36.000Z</time>
      </trkpt>
      <trkpt lat="43.60559" lon="1.42811">
        <ele>154</ele>
        <time>2013-10-27T08:09:40.000Z</time>
      </trkpt>
      <trkpt lat="43.60585" lon="1.42811">
        <ele>154.60000610352</ele>
        <time>2013-10-27T08:09:46.000Z</time>
      </trkpt>
      <trkpt lat="43.6059" lon="1.42811">
        <ele>154.60000610352</ele>
        <time>2013-10-27T08:09:47.000Z</time>
      </trkpt>
      <trkpt lat="43.60609" lon="1.42812">
        <ele>155</ele>
        <time>2013-10-27T08:09:52.000Z</time>
      </trkpt>
      <trkpt lat="43.60612" lon="1.42811">
        <ele>155</ele>
        <time>2013-10-27T08:09:53.000Z</time>
      </trkpt>
      <trkpt lat="43.60617" lon="1.4281">
        <ele>155</ele>
        <time>2013-10-27T08:09:55.000Z</time>
      </trkpt>
      <trkpt lat="43.60635" lon="1.42808">
        <ele>155.19999694824</ele>
        <time>2013-10-27T08:10:00.000Z</time>
      </trkpt>
      <trkpt lat="43.60653" lon="1.42811">
        <ele>155.19999694824</ele>
        <time>2013-10-27T08:10:04.000Z</time>
      </trkpt>
      <trkpt lat="43.60671" lon="1.42814">
        <ele>155.39999389648</ele>
        <time>2013-10-27T08:10:08.000Z</time>
      </trkpt>
      <trkpt lat="43.60675" lon="1.42815">
        <ele>155.60000610352</ele>
        <time>2013-10-27T08:10:09.000Z</time>
      </trkpt>
      <trkpt lat="43.60689" lon="1.42815">
        <ele>156.19999694824</ele>
        <time>2013-10-27T08:10:12.000Z</time>
      </trkpt>
      <trkpt lat="43.60697" lon="1.42816">
        <ele>156.39999389648</ele>
        <time>2013-10-27T08:10:14.000Z</time>
      </trkpt>
      <trkpt lat="43.60706" lon="1.42816">
        <ele>156.60000610352</ele>
        <time>2013-10-27T08:10:16.000Z</time>
      </trkpt>
      <trkpt lat="43.6071" lon="1.42817">
        <ele>156.60000610352</ele>
        <time>2013-10-27T08:10:17.000Z</time>
      </trkpt>
      <trkpt lat="43.60737" lon="1.4282">
        <ele>157</ele>
        <time>2013-10-27T08:10:23.000Z</time>
      </trkpt>
      <trkpt lat="43.6075" lon="1.4282">
        <ele>157</ele>
        <time>2013-10-27T08:10:26.000Z</time>
      </trkpt>
      <trkpt lat="43.60772" lon="1.4282">
        <ele>157.19999694824</ele>
        <time>2013-10-27T08:10:31.000Z</time>
      </trkpt>
      <trkpt lat="43.60792" lon="1.4282">
        <ele>157.19999694824</ele>
        <time>2013-10-27T08:10:37.000Z</time>
      </trkpt>
      <trkpt lat="43.60821" lon="1.42831">
        <ele>158.19999694824</ele>
        <time>2013-10-27T08:10:45.000Z</time>
      </trkpt>
      <trkpt lat="43.60825" lon="1.42834">
        <ele>158.39999389648</ele>
        <time>2013-10-27T08:10:46.000Z</time>
      </trkpt>
      <trkpt lat="43.60843" lon="1.42856">
        <ele>158.80000305176</ele>
        <time>2013-10-27T08:10:51.000Z</time>
      </trkpt>
      <trkpt lat="43.60845" lon="1.42862">
        <ele>158.80000305176</ele>
        <time>2013-10-27T08:10:52.000Z</time>
      </trkpt>
      <trkpt lat="43.60855" lon="1.42884">
        <ele>159.19999694824</ele>
        <time>2013-10-27T08:10:56.000Z</time>
      </trkpt>
      <trkpt lat="43.60857" lon="1.42889">
        <ele>159.39999389648</ele>
        <time>2013-10-27T08:10:57.000Z</time>
      </trkpt>
      <trkpt lat="43.60859" lon="1.42895">
        <ele>159.60000610352</ele>
        <time>2013-10-27T08:10:58.000Z</time>
      </trkpt>
      <trkpt lat="43.60863" lon="1.42913">
        <ele>160.19999694824</ele>
        <time>2013-10-27T08:11:01.000Z</time>
      </trkpt>
      <trkpt lat="43.60873" lon="1.4294">
        <ele>160.80000305176</ele>
        <time>2013-10-27T08:11:06.000Z</time>
      </trkpt>
      <trkpt lat="43.60882" lon="1.42963">
        <ele>161</ele>
        <time>2013-10-27T08:11:11.000Z</time>
      </trkpt>
      <trkpt lat="43.6089" lon="1.42986">
        <ele>161.19999694824</ele>
        <time>2013-10-27T08:11:16.000Z</time>
      </trkpt>
      <trkpt lat="43.60897" lon="1.43007">
        <ele>161</ele>
        <time>2013-10-27T08:11:20.000Z</time>
      </trkpt>
      <trkpt lat="43.60906" lon="1.43031">
        <ele>160.39999389648</ele>
        <time>2013-10-27T08:11:25.000Z</time>
      </trkpt>
      <trkpt lat="43.60913" lon="1.43047">
        <ele>160.19999694824</ele>
        <time>2013-10-27T08:11:29.000Z</time>
      </trkpt>
      <trkpt lat="43.60921" lon="1.4307">
        <ele>159.80000305176</ele>
        <time>2013-10-27T08:11:34.000Z</time>
      </trkpt>
      <trkpt lat="43.60928" lon="1.43096">
        <ele>159.80000305176</ele>
        <time>2013-10-27T08:11:39.000Z</time>
      </trkpt>
      <trkpt lat="43.60933" lon="1.43122">
        <ele>159.60000610352</ele>
        <time>2013-10-27T08:11:44.000Z</time>
      </trkpt>
      <trkpt lat="43.60941" lon="1.43146">
        <ele>159.60000610352</ele>
        <time>2013-10-27T08:11:48.000Z</time>
      </trkpt>
      <trkpt lat="43.60943" lon="1.43151">
        <ele>159.60000610352</ele>
        <time>2013-10-27T08:11:49.000Z</time>
      </trkpt>
      <trkpt lat="43.60951" lon="1.4318">
        <ele>159.60000610352</ele>
        <time>2013-10-27T08:11:55.000Z</time>
      </trkpt>
      <trkpt lat="43.60957" lon="1.43201">
        <ele>159.60000610352</ele>
        <time>2013-10-27T08:11:59.000Z</time>
      </trkpt>
      <trkpt lat="43.60967" lon="1.4323">
        <ele>159.60000610352</ele>
        <time>2013-10-27T08:12:04.000Z</time>
      </trkpt>
      <trkpt lat="43.60969" lon="1.43236">
        <ele>159.60000610352</ele>
        <time>2013-10-27T08:12:05.000Z</time>
      </trkpt>
      <trkpt lat="43.6097" lon="1.4324">
        <ele>159.60000610352</ele>
        <time>2013-10-27T08:12:06.000Z</time>
      </trkpt>
      <trkpt lat="43.60979" lon="1.43265">
        <ele>159.60000610352</ele>
        <time>2013-10-27T08:12:11.000Z</time>
      </trkpt>
      <trkpt lat="43.60989" lon="1.43289">
        <ele>159.60000610352</ele>
        <time>2013-10-27T08:12:16.000Z</time>
      </trkpt>
      <trkpt lat="43.60998" lon="1.43311">
        <ele>159.60000610352</ele>
        <time>2013-10-27T08:12:21.000Z</time>
      </trkpt>
      <trkpt lat="43.61005" lon="1.43333">
        <ele>159.60000610352</ele>
        <time>2013-10-27T08:12:26.000Z</time>
      </trkpt>
      <trkpt lat="43.61012" lon="1.43354">
        <ele>159.60000610352</ele>
        <time>2013-10-27T08:12:30.000Z</time>
      </trkpt>
      <trkpt lat="43.6102" lon="1.43378">
        <ele>159.60000610352</ele>
        <time>2013-10-27T08:12:35.000Z</time>
      </trkpt>
      <trkpt lat="43.61026" lon="1.43404">
        <ele>159.60000610352</ele>
        <time>2013-10-27T08:12:40.000Z</time>
      </trkpt>
      <trkpt lat="43.61031" lon="1.43429">
        <ele>159.60000610352</ele>
        <time>2013-10-27T08:12:45.000Z</time>
      </trkpt>
      <trkpt lat="43.6104" lon="1.43454">
        <ele>159.60000610352</ele>
        <time>2013-10-27T08:12:50.000Z</time>
      </trkpt>
      <trkpt lat="43.61048" lon="1.43472">
        <ele>159.60000610352</ele>
        <time>2013-10-27T08:12:54.000Z</time>
      </trkpt>
      <trkpt lat="43.61058" lon="1.43494">
        <ele>159.60000610352</ele>
        <time>2013-10-27T08:12:59.000Z</time>
      </trkpt>
      <trkpt lat="43.61066" lon="1.4352">
        <ele>159.39999389648</ele>
        <time>2013-10-27T08:13:04.000Z</time>
      </trkpt>
      <trkpt lat="43.61074" lon="1.43544">
        <ele>158.60000610352</ele>
        <time>2013-10-27T08:13:09.000Z</time>
      </trkpt>
      <trkpt lat="43.6108" lon="1.43564">
        <ele>158.19999694824</ele>
        <time>2013-10-27T08:13:13.000Z</time>
      </trkpt>
      <trkpt lat="43.61088" lon="1.43589">
        <ele>158</ele>
        <time>2013-10-27T08:13:18.000Z</time>
      </trkpt>
      <trkpt lat="43.61098" lon="1.4361">
        <ele>158.19999694824</ele>
        <time>2013-10-27T08:13:23.000Z</time>
      </trkpt>
      <trkpt lat="43.61109" lon="1.43632">
        <ele>159.39999389648</ele>
        <time>2013-10-27T08:13:28.000Z</time>
      </trkpt>
      <trkpt lat="43.61115" lon="1.4365">
        <ele>160.39999389648</ele>
        <time>2013-10-27T08:13:32.000Z</time>
      </trkpt>
      <trkpt lat="43.61127" lon="1.4367">
        <ele>162.19999694824</ele>
        <time>2013-10-27T08:13:37.000Z</time>
      </trkpt>
      <trkpt lat="43.61133" lon="1.43704">
        <ele>164.39999389648</ele>
        <time>2013-10-27T08:13:43.000Z</time>
      </trkpt>
      <trkpt lat="43.61135" lon="1.43724">
        <ele>165.80000305176</ele>
        <time>2013-10-27T08:13:47.000Z</time>
      </trkpt>
      <trkpt lat="43.61137" lon="1.43734">
        <ele>166.19999694824</ele>
        <time>2013-10-27T08:13:49.000Z</time>
      </trkpt>
      <trkpt lat="43.61141" lon="1.43764">
        <ele>167.60000610352</ele>
        <time>2013-10-27T08:13:55.000Z</time>
      </trkpt>
      <trkpt lat="43.61147" lon="1.43783">
        <ele>168.60000610352</ele>
        <time>2013-10-27T08:13:59.000Z</time>
      </trkpt>
      <trkpt lat="43.61153" lon="1.43804">
        <ele>169.19999694824</ele>
        <time>2013-10-27T08:14:03.000Z</time>
      </trkpt>
      <trkpt lat="43.61159" lon="1.4383">
        <ele>169.80000305176</ele>
        <time>2013-10-27T08:14:08.000Z</time>
      </trkpt>
      <trkpt lat="43.61169" lon="1.43844">
        <ele>170</ele>
        <time>2013-10-27T08:14:12.000Z</time>
      </trkpt>
      <trkpt lat="43.61178" lon="1.43855">
        <ele>169.80000305176</ele>
        <time>2013-10-27T08:14:16.000Z</time>
      </trkpt>
      <trkpt lat="43.61196" lon="1.43853">
        <ele>169.19999694824</ele>
        <time>2013-10-27T08:14:21.000Z</time>
      </trkpt>
      <trkpt lat="43.61216" lon="1.43846">
        <ele>168.80000305176</ele>
        <time>2013-10-27T08:14:26.000Z</time>
      </trkpt>
      <trkpt lat="43.61231" lon="1.43845">
        <ele>168.60000610352</ele>
        <time>2013-10-27T08:14:31.000Z</time>
      </trkpt>
      <trkpt lat="43.61249" lon="1.4384">
        <ele>168.39999389648</ele>
        <time>2013-10-27T08:14:36.000Z</time>
      </trkpt>
      <trkpt lat="43.61267" lon="1.43838">
        <ele>169.19999694824</ele>
        <time>2013-10-27T08:14:40.000Z</time>
      </trkpt>
      <trkpt lat="43.61272" lon="1.43837">
        <ele>169.19999694824</ele>
        <time>2013-10-27T08:14:41.000Z</time>
      </trkpt>
      <trkpt lat="43.61281" lon="1.43836">
        <ele>169.39999389648</ele>
        <time>2013-10-27T08:14:43.000Z</time>
      </trkpt>
      <trkpt lat="43.61304" lon="1.43829">
        <ele>169.80000305176</ele>
        <time>2013-10-27T08:14:49.000Z</time>
      </trkpt>
      <trkpt lat="43.61319" lon="1.4382">
        <ele>170.39999389648</ele>
        <time>2013-10-27T08:14:52.000Z</time>
      </trkpt>
      <trkpt lat="43.61326" lon="1.43817">
        <ele>170.80000305176</ele>
        <time>2013-10-27T08:14:54.000Z</time>
      </trkpt>
      <trkpt lat="43.61348" lon="1.43805">
        <ele>171.39999389648</ele>
        <time>2013-10-27T08:14:59.000Z</time>
      </trkpt>
      <trkpt lat="43.61352" lon="1.43803">
        <ele>171.60000610352</ele>
        <time>2013-10-27T08:15:00.000Z</time>
      </trkpt>
      <trkpt lat="43.61356" lon="1.43802">
        <ele>171.60000610352</ele>
        <time>2013-10-27T08:15:01.000Z</time>
      </trkpt>
      <trkpt lat="43.61364" lon="1.43799">
        <ele>171.80000305176</ele>
        <time>2013-10-27T08:15:03.000Z</time>
      </trkpt>
      <trkpt lat="43.61373" lon="1.43797">
        <ele>171.80000305176</ele>
        <time>2013-10-27T08:15:05.000Z</time>
      </trkpt>
      <trkpt lat="43.61397" lon="1.43791">
        <ele>172.19999694824</ele>
        <time>2013-10-27T08:15:11.000Z</time>
      </trkpt>
      <trkpt lat="43.61401" lon="1.4379">
        <ele>172.19999694824</ele>
        <time>2013-10-27T08:15:12.000Z</time>
      </trkpt>
      <trkpt lat="43.61415" lon="1.43784">
        <ele>172.19999694824</ele>
        <time>2013-10-27T08:15:16.000Z</time>
      </trkpt>
      <trkpt lat="43.61428" lon="1.43777">
        <ele>172.19999694824</ele>
        <time>2013-10-27T08:15:19.000Z</time>
      </trkpt>
      <trkpt lat="43.6144" lon="1.43777">
        <ele>172.19999694824</ele>
        <time>2013-10-27T08:15:22.000Z</time>
      </trkpt>
      <trkpt lat="43.61463" lon="1.43765">
        <ele>172.39999389648</ele>
        <time>2013-10-27T08:15:27.000Z</time>
      </trkpt>
      <trkpt lat="43.61472" lon="1.43761">
        <ele>172.39999389648</ele>
        <time>2013-10-27T08:15:29.000Z</time>
      </trkpt>
      <trkpt lat="43.6148" lon="1.43756">
        <ele>172.39999389648</ele>
        <time>2013-10-27T08:15:31.000Z</time>
      </trkpt>
      <trkpt lat="43.61488" lon="1.43751">
        <ele>172.39999389648</ele>
        <time>2013-10-27T08:15:33.000Z</time>
      </trkpt>
      <trkpt lat="43.61513" lon="1.4374">
        <ele>172.80000305176</ele>
        <time>2013-10-27T08:15:38.000Z</time>
      </trkpt>
      <trkpt lat="43.6153" lon="1.43732">
        <ele>173.80000305176</ele>
        <time>2013-10-27T08:15:42.000Z</time>
      </trkpt>
      <trkpt lat="43.61534" lon="1.43731">
        <ele>174</ele>
        <time>2013-10-27T08:15:43.000Z</time>
      </trkpt>
      <trkpt lat="43.61543" lon="1.4373">
        <ele>174.60000610352</ele>
        <time>2013-10-27T08:15:45.000Z</time>
      </trkpt>
      <trkpt lat="43.61558" lon="1.43724">
        <ele>176</ele>
        <time>2013-10-27T08:15:49.000Z</time>
      </trkpt>
      <trkpt lat="43.61578" lon="1.43719">
        <ele>177</ele>
        <time>2013-10-27T08:15:54.000Z</time>
      </trkpt>
      <trkpt lat="43.61594" lon="1.43714">
        <ele>177.60000610352</ele>
        <time>2013-10-27T08:15:58.000Z</time>
      </trkpt>
      <trkpt lat="43.61618" lon="1.43709">
        <ele>178.19999694824</ele>
        <time>2013-10-27T08:16:04.000Z</time>
      </trkpt>
      <trkpt lat="43.61636" lon="1.43701">
        <ele>177.80000305176</ele>
        <time>2013-10-27T08:16:09.000Z</time>
      </trkpt>
      <trkpt lat="43.61651" lon="1.43698">
        <ele>177.19999694824</ele>
        <time>2013-10-27T08:16:13.000Z</time>
      </trkpt>
      <trkpt lat="43.61669" lon="1.43694">
        <ele>176</ele>
        <time>2013-10-27T08:16:18.000Z</time>
      </trkpt>
      <trkpt lat="43.6169" lon="1.4369">
        <ele>175.39999389648</ele>
        <time>2013-10-27T08:16:23.000Z</time>
      </trkpt>
      <trkpt lat="43.61702" lon="1.43687">
        <ele>175.19999694824</ele>
        <time>2013-10-27T08:16:26.000Z</time>
      </trkpt>
      <trkpt lat="43.61726" lon="1.4368">
        <ele>174.80000305176</ele>
        <time>2013-10-27T08:16:32.000Z</time>
      </trkpt>
      <trkpt lat="43.6173" lon="1.43679">
        <ele>174.80000305176</ele>
        <time>2013-10-27T08:16:33.000Z</time>
      </trkpt>
      <trkpt lat="43.61752" lon="1.43674">
        <ele>174.60000610352</ele>
        <time>2013-10-27T08:16:38.000Z</time>
      </trkpt>
      <trkpt lat="43.61756" lon="1.43674">
        <ele>174.60000610352</ele>
        <time>2013-10-27T08:16:39.000Z</time>
      </trkpt>
      <trkpt lat="43.61777" lon="1.4367">
        <ele>174.60000610352</ele>
        <time>2013-10-27T08:16:44.000Z</time>
      </trkpt>
      <trkpt lat="43.61781" lon="1.43668">
        <ele>174.60000610352</ele>
        <time>2013-10-27T08:16:45.000Z</time>
      </trkpt>
      <trkpt lat="43.61785" lon="1.43666">
        <ele>174.60000610352</ele>
        <time>2013-10-27T08:16:46.000Z</time>
      </trkpt>
      <trkpt lat="43.61793" lon="1.43664">
        <ele>174.60000610352</ele>
        <time>2013-10-27T08:16:48.000Z</time>
      </trkpt>
      <trkpt lat="43.61809" lon="1.43658">
        <ele>174.39999389648</ele>
        <time>2013-10-27T08:16:52.000Z</time>
      </trkpt>
      <trkpt lat="43.61816" lon="1.43655">
        <ele>174</ele>
        <time>2013-10-27T08:16:54.000Z</time>
      </trkpt>
      <trkpt lat="43.61836" lon="1.43646">
        <ele>173.39999389648</ele>
        <time>2013-10-27T08:16:59.000Z</time>
      </trkpt>
      <trkpt lat="43.61851" lon="1.43638">
        <ele>173</ele>
        <time>2013-10-27T08:17:03.000Z</time>
      </trkpt>
      <trkpt lat="43.61855" lon="1.43637">
        <ele>173</ele>
        <time>2013-10-27T08:17:04.000Z</time>
      </trkpt>
      <trkpt lat="43.61871" lon="1.43631">
        <ele>172.19999694824</ele>
        <time>2013-10-27T08:17:08.000Z</time>
      </trkpt>
      <trkpt lat="43.61889" lon="1.43626">
        <ele>171.60000610352</ele>
        <time>2013-10-27T08:17:13.000Z</time>
      </trkpt>
      <trkpt lat="43.61908" lon="1.43619">
        <ele>171</ele>
        <time>2013-10-27T08:17:18.000Z</time>
      </trkpt>
      <trkpt lat="43.61929" lon="1.43614">
        <ele>170.60000610352</ele>
        <time>2013-10-27T08:17:23.000Z</time>
      </trkpt>
      <trkpt lat="43.61936" lon="1.43612">
        <ele>170.19999694824</ele>
        <time>2013-10-27T08:17:25.000Z</time>
      </trkpt>
      <trkpt lat="43.61948" lon="1.43606">
        <ele>169.80000305176</ele>
        <time>2013-10-27T08:17:28.000Z</time>
      </trkpt>
      <trkpt lat="43.61971" lon="1.43597">
        <ele>169.19999694824</ele>
        <time>2013-10-27T08:17:34.000Z</time>
      </trkpt>
      <trkpt lat="43.61979" lon="1.43595">
        <ele>169</ele>
        <time>2013-10-27T08:17:36.000Z</time>
      </trkpt>
      <trkpt lat="43.61997" lon="1.4359">
        <ele>168.80000305176</ele>
        <time>2013-10-27T08:17:40.000Z</time>
      </trkpt>
      <trkpt lat="43.62004" lon="1.43588">
        <ele>168.60000610352</ele>
        <time>2013-10-27T08:17:42.000Z</time>
      </trkpt>
      <trkpt lat="43.62008" lon="1.43586">
        <ele>168.19999694824</ele>
        <time>2013-10-27T08:17:43.000Z</time>
      </trkpt>
      <trkpt lat="43.6203" lon="1.43583">
        <ele>167.39999389648</ele>
        <time>2013-10-27T08:17:49.000Z</time>
      </trkpt>
      <trkpt lat="43.62049" lon="1.43574">
        <ele>167</ele>
        <time>2013-10-27T08:17:53.000Z</time>
      </trkpt>
      <trkpt lat="43.62053" lon="1.43572">
        <ele>167</ele>
        <time>2013-10-27T08:17:54.000Z</time>
      </trkpt>
      <trkpt lat="43.62064" lon="1.43566">
        <ele>166.80000305176</ele>
        <time>2013-10-27T08:17:57.000Z</time>
      </trkpt>
      <trkpt lat="43.62072" lon="1.43564">
        <ele>166.80000305176</ele>
        <time>2013-10-27T08:17:59.000Z</time>
      </trkpt>
      <trkpt lat="43.62084" lon="1.43558">
        <ele>166.60000610352</ele>
        <time>2013-10-27T08:18:02.000Z</time>
      </trkpt>
      <trkpt lat="43.62102" lon="1.43548">
        <ele>166.60000610352</ele>
        <time>2013-10-27T08:18:06.000Z</time>
      </trkpt>
      <trkpt lat="43.62115" lon="1.43543">
        <ele>166.39999389648</ele>
        <time>2013-10-27T08:18:09.000Z</time>
      </trkpt>
      <trkpt lat="43.62122" lon="1.43537">
        <ele>166.39999389648</ele>
        <time>2013-10-27T08:18:11.000Z</time>
      </trkpt>
      <trkpt lat="43.62137" lon="1.43531">
        <ele>166.39999389648</ele>
        <time>2013-10-27T08:18:15.000Z</time>
      </trkpt>
      <trkpt lat="43.62162" lon="1.43516">
        <ele>166.39999389648</ele>
        <time>2013-10-27T08:18:21.000Z</time>
      </trkpt>
      <trkpt lat="43.62165" lon="1.43513">
        <ele>166.39999389648</ele>
        <time>2013-10-27T08:18:22.000Z</time>
      </trkpt>
      <trkpt lat="43.62178" lon="1.43507">
        <ele>166.80000305176</ele>
        <time>2013-10-27T08:18:25.000Z</time>
      </trkpt>
      <trkpt lat="43.62197" lon="1.43496">
        <ele>167.39999389648</ele>
        <time>2013-10-27T08:18:30.000Z</time>
      </trkpt>
      <trkpt lat="43.62203" lon="1.43492">
        <ele>167.60000610352</ele>
        <time>2013-10-27T08:18:32.000Z</time>
      </trkpt>
      <trkpt lat="43.6221" lon="1.43488">
        <ele>167.80000305176</ele>
        <time>2013-10-27T08:18:34.000Z</time>
      </trkpt>
      <trkpt lat="43.62223" lon="1.43485">
        <ele>168</ele>
        <time>2013-10-27T08:18:38.000Z</time>
      </trkpt>
      <trkpt lat="43.62242" lon="1.43474">
        <ele>168.19999694824</ele>
        <time>2013-10-27T08:18:43.000Z</time>
      </trkpt>
      <trkpt lat="43.62255" lon="1.43465">
        <ele>168.19999694824</ele>
        <time>2013-10-27T08:18:46.000Z</time>
      </trkpt>
      <trkpt lat="43.62277" lon="1.43454">
        <ele>168.39999389648</ele>
        <time>2013-10-27T08:18:51.000Z</time>
      </trkpt>
      <trkpt lat="43.62281" lon="1.43452">
        <ele>168.39999389648</ele>
        <time>2013-10-27T08:18:52.000Z</time>
      </trkpt>
      <trkpt lat="43.62298" lon="1.43447">
        <ele>168.39999389648</ele>
        <time>2013-10-27T08:18:56.000Z</time>
      </trkpt>
      <trkpt lat="43.62301" lon="1.43445">
        <ele>168.39999389648</ele>
        <time>2013-10-27T08:18:57.000Z</time>
      </trkpt>
      <trkpt lat="43.62321" lon="1.43438">
        <ele>168.39999389648</ele>
        <time>2013-10-27T08:19:02.000Z</time>
      </trkpt>
      <trkpt lat="43.62339" lon="1.43429">
        <ele>168.39999389648</ele>
        <time>2013-10-27T08:19:07.000Z</time>
      </trkpt>
      <trkpt lat="43.62359" lon="1.43422">
        <ele>167.60000610352</ele>
        <time>2013-10-27T08:19:12.000Z</time>
      </trkpt>
      <trkpt lat="43.62372" lon="1.43418">
        <ele>167.19999694824</ele>
        <time>2013-10-27T08:19:15.000Z</time>
      </trkpt>
      <trkpt lat="43.6238" lon="1.43416">
        <ele>167</ele>
        <time>2013-10-27T08:19:17.000Z</time>
      </trkpt>
      <trkpt lat="43.62404" lon="1.43411">
        <ele>165.80000305176</ele>
        <time>2013-10-27T08:19:23.000Z</time>
      </trkpt>
      <trkpt lat="43.62421" lon="1.43404">
        <ele>165.19999694824</ele>
        <time>2013-10-27T08:19:27.000Z</time>
      </trkpt>
      <trkpt lat="43.62425" lon="1.43403">
        <ele>165.19999694824</ele>
        <time>2013-10-27T08:19:28.000Z</time>
      </trkpt>
      <trkpt lat="43.62448" lon="1.43403">
        <ele>164.80000305176</ele>
        <time>2013-10-27T08:19:33.000Z</time>
      </trkpt>
      <trkpt lat="43.62468" lon="1.43407">
        <ele>164.60000610352</ele>
        <time>2013-10-27T08:19:38.000Z</time>
      </trkpt>
      <trkpt lat="43.62479" lon="1.43409">
        <ele>164.39999389648</ele>
        <time>2013-10-27T08:19:41.000Z</time>
      </trkpt>
      <trkpt lat="43.62486" lon="1.43411">
        <ele>164.39999389648</ele>
        <time>2013-10-27T08:19:43.000Z</time>
      </trkpt>
      <trkpt lat="43.62503" lon="1.43416">
        <ele>164.39999389648</ele>
        <time>2013-10-27T08:19:48.000Z</time>
      </trkpt>
      <trkpt lat="43.62522" lon="1.43416">
        <ele>164.19999694824</ele>
        <time>2013-10-27T08:19:52.000Z</time>
      </trkpt>
      <trkpt lat="43.62527" lon="1.43415">
        <ele>164.19999694824</ele>
        <time>2013-10-27T08:19:53.000Z</time>
      </trkpt>
      <trkpt lat="43.62536" lon="1.43413">
        <ele>164.19999694824</ele>
        <time>2013-10-27T08:19:55.000Z</time>
      </trkpt>
      <trkpt lat="43.62558" lon="1.43406">
        <ele>164.19999694824</ele>
        <time>2013-10-27T08:20:01.000Z</time>
      </trkpt>
      <trkpt lat="43.62561" lon="1.43407">
        <ele>164.19999694824</ele>
        <time>2013-10-27T08:20:02.000Z</time>
      </trkpt>
      <trkpt lat="43.62578" lon="1.43412">
        <ele>164.19999694824</ele>
        <time>2013-10-27T08:20:08.000Z</time>
      </trkpt>
      <trkpt lat="43.62601" lon="1.43406">
        <ele>163.39999389648</ele>
        <time>2013-10-27T08:20:13.000Z</time>
      </trkpt>
      <trkpt lat="43.62619" lon="1.43395">
        <ele>163</ele>
        <time>2013-10-27T08:20:17.000Z</time>
      </trkpt>
      <trkpt lat="43.62634" lon="1.4339">
        <ele>162.60000610352</ele>
        <time>2013-10-27T08:20:21.000Z</time>
      </trkpt>
      <trkpt lat="43.62653" lon="1.43385">
        <ele>162.39999389648</ele>
        <time>2013-10-27T08:20:25.000Z</time>
      </trkpt>
      <trkpt lat="43.62675" lon="1.43373">
        <ele>162.39999389648</ele>
        <time>2013-10-27T08:20:30.000Z</time>
      </trkpt>
      <trkpt lat="43.62691" lon="1.43371">
        <ele>162.19999694824</ele>
        <time>2013-10-27T08:20:34.000Z</time>
      </trkpt>
      <trkpt lat="43.62695" lon="1.43375">
        <ele>162.19999694824</ele>
        <time>2013-10-27T08:20:35.000Z</time>
      </trkpt>
      <trkpt lat="43.62705" lon="1.43387">
        <ele>162.19999694824</ele>
        <time>2013-10-27T08:20:38.000Z</time>
      </trkpt>
      <trkpt lat="43.62725" lon="1.43393">
        <ele>162.19999694824</ele>
        <time>2013-10-27T08:20:43.000Z</time>
      </trkpt>
      <trkpt lat="43.62729" lon="1.43393">
        <ele>162.19999694824</ele>
        <time>2013-10-27T08:20:44.000Z</time>
      </trkpt>
      <trkpt lat="43.62738" lon="1.43392">
        <ele>162.19999694824</ele>
        <time>2013-10-27T08:20:46.000Z</time>
      </trkpt>
      <trkpt lat="43.62754" lon="1.4339">
        <ele>161.39999389648</ele>
        <time>2013-10-27T08:20:50.000Z</time>
      </trkpt>
      <trkpt lat="43.62762" lon="1.43389">
        <ele>161.19999694824</ele>
        <time>2013-10-27T08:20:52.000Z</time>
      </trkpt>
      <trkpt lat="43.62781" lon="1.43391">
        <ele>160.80000305176</ele>
        <time>2013-10-27T08:20:57.000Z</time>
      </trkpt>
      <trkpt lat="43.62798" lon="1.43391">
        <ele>160.39999389648</ele>
        <time>2013-10-27T08:21:01.000Z</time>
      </trkpt>
      <trkpt lat="43.62819" lon="1.43388">
        <ele>160.39999389648</ele>
        <time>2013-10-27T08:21:06.000Z</time>
      </trkpt>
      <trkpt lat="43.62841" lon="1.43385">
        <ele>160.19999694824</ele>
        <time>2013-10-27T08:21:11.000Z</time>
      </trkpt>
      <trkpt lat="43.62853" lon="1.43384">
        <ele>160.19999694824</ele>
        <time>2013-10-27T08:21:14.000Z</time>
      </trkpt>
      <trkpt lat="43.6287" lon="1.43382">
        <ele>160.19999694824</ele>
        <time>2013-10-27T08:21:18.000Z</time>
      </trkpt>
      <trkpt lat="43.62878" lon="1.43381">
        <ele>160.19999694824</ele>
        <time>2013-10-27T08:21:20.000Z</time>
      </trkpt>
      <trkpt lat="43.6289" lon="1.43379">
        <ele>160.19999694824</ele>
        <time>2013-10-27T08:21:23.000Z</time>
      </trkpt>
      <trkpt lat="43.62906" lon="1.43378">
        <ele>160</ele>
        <time>2013-10-27T08:21:27.000Z</time>
      </trkpt>
      <trkpt lat="43.62919" lon="1.43377">
        <ele>160</ele>
        <time>2013-10-27T08:21:30.000Z</time>
      </trkpt>
      <trkpt lat="43.62927" lon="1.43375">
        <ele>159.60000610352</ele>
        <time>2013-10-27T08:21:32.000Z</time>
      </trkpt>
      <trkpt lat="43.62944" lon="1.43375">
        <ele>159</ele>
        <time>2013-10-27T08:21:36.000Z</time>
      </trkpt>
      <trkpt lat="43.62981" lon="1.43378">
        <ele>157.39999389648</ele>
        <time>2013-10-27T08:21:46.000Z</time>
      </trkpt>
      <trkpt lat="43.62985" lon="1.43377">
        <ele>157.39999389648</ele>
        <time>2013-10-27T08:21:47.000Z</time>
      </trkpt>
      <trkpt lat="43.63004" lon="1.43379">
        <ele>156.80000305176</ele>
        <time>2013-10-27T08:21:52.000Z</time>
      </trkpt>
      <trkpt lat="43.63026" lon="1.43374">
        <ele>156.39999389648</ele>
        <time>2013-10-27T08:21:57.000Z</time>
      </trkpt>
      <trkpt lat="43.63046" lon="1.43369">
        <ele>156.19999694824</ele>
        <time>2013-10-27T08:22:02.000Z</time>
      </trkpt>
      <trkpt lat="43.6305" lon="1.43369">
        <ele>156.19999694824</ele>
        <time>2013-10-27T08:22:03.000Z</time>
      </trkpt>
      <trkpt lat="43.63066" lon="1.43367">
        <ele>156</ele>
        <time>2013-10-27T08:22:07.000Z</time>
      </trkpt>
      <trkpt lat="43.6307" lon="1.43367">
        <ele>156</ele>
        <time>2013-10-27T08:22:08.000Z</time>
      </trkpt>
      <trkpt lat="43.6309" lon="1.43364">
        <ele>156</ele>
        <time>2013-10-27T08:22:13.000Z</time>
      </trkpt>
      <trkpt lat="43.63108" lon="1.43364">
        <ele>156</ele>
        <time>2013-10-27T08:22:18.000Z</time>
      </trkpt>
      <trkpt lat="43.63128" lon="1.43361">
        <ele>156</ele>
        <time>2013-10-27T08:22:23.000Z</time>
      </trkpt>
      <trkpt lat="43.63148" lon="1.4336">
        <ele>155.80000305176</ele>
        <time>2013-10-27T08:22:28.000Z</time>
      </trkpt>
      <trkpt lat="43.63169" lon="1.43359">
        <ele>155.80000305176</ele>
        <time>2013-10-27T08:22:33.000Z</time>
      </trkpt>
      <trkpt lat="43.63183" lon="1.4336">
        <ele>155.80000305176</ele>
        <time>2013-10-27T08:22:37.000Z</time>
      </trkpt>
      <trkpt lat="43.63202" lon="1.43358">
        <ele>155.80000305176</ele>
        <time>2013-10-27T08:22:42.000Z</time>
      </trkpt>
      <trkpt lat="43.63219" lon="1.43357">
        <ele>155.80000305176</ele>
        <time>2013-10-27T08:22:47.000Z</time>
      </trkpt>
      <trkpt lat="43.63242" lon="1.43353">
        <ele>155.80000305176</ele>
        <time>2013-10-27T08:22:52.000Z</time>
      </trkpt>
      <trkpt lat="43.6326" lon="1.4335">
        <ele>155.80000305176</ele>
        <time>2013-10-27T08:22:56.000Z</time>
      </trkpt>
      <trkpt lat="43.63264" lon="1.43349">
        <ele>155.80000305176</ele>
        <time>2013-10-27T08:22:57.000Z</time>
      </trkpt>
      <trkpt lat="43.63268" lon="1.43348">
        <ele>155.80000305176</ele>
        <time>2013-10-27T08:22:58.000Z</time>
      </trkpt>
      <trkpt lat="43.6328" lon="1.43345">
        <ele>155.80000305176</ele>
        <time>2013-10-27T08:23:01.000Z</time>
      </trkpt>
      <trkpt lat="43.63299" lon="1.43339">
        <ele>155.80000305176</ele>
        <time>2013-10-27T08:23:06.000Z</time>
      </trkpt>
      <trkpt lat="43.63324" lon="1.43335">
        <ele>156.39999389648</ele>
        <time>2013-10-27T08:23:12.000Z</time>
      </trkpt>
      <trkpt lat="43.63345" lon="1.4333">
        <ele>157</ele>
        <time>2013-10-27T08:23:17.000Z</time>
      </trkpt>
      <trkpt lat="43.63366" lon="1.43327">
        <ele>157.39999389648</ele>
        <time>2013-10-27T08:23:22.000Z</time>
      </trkpt>
      <trkpt lat="43.63379" lon="1.43326">
        <ele>157.60000610352</ele>
        <time>2013-10-27T08:23:25.000Z</time>
      </trkpt>
      <trkpt lat="43.63395" lon="1.43323">
        <ele>157.60000610352</ele>
        <time>2013-10-27T08:23:29.000Z</time>
      </trkpt>
      <trkpt lat="43.63407" lon="1.43321">
        <ele>157.80000305176</ele>
        <time>2013-10-27T08:23:32.000Z</time>
      </trkpt>
      <trkpt lat="43.63428" lon="1.43318">
        <ele>157.80000305176</ele>
        <time>2013-10-27T08:23:37.000Z</time>
      </trkpt>
      <trkpt lat="43.63436" lon="1.43317">
        <ele>157.80000305176</ele>
        <time>2013-10-27T08:23:39.000Z</time>
      </trkpt>
      <trkpt lat="43.63456" lon="1.43311">
        <ele>157.80000305176</ele>
        <time>2013-10-27T08:23:44.000Z</time>
      </trkpt>
      <trkpt lat="43.63477" lon="1.43308">
        <ele>157.80000305176</ele>
        <time>2013-10-27T08:23:49.000Z</time>
      </trkpt>
      <trkpt lat="43.63502" lon="1.43306">
        <ele>158</ele>
        <time>2013-10-27T08:23:55.000Z</time>
      </trkpt>
      <trkpt lat="43.63524" lon="1.43305">
        <ele>158</ele>
        <time>2013-10-27T08:24:00.000Z</time>
      </trkpt>
      <trkpt lat="43.63529" lon="1.43305">
        <ele>158</ele>
        <time>2013-10-27T08:24:01.000Z</time>
      </trkpt>
      <trkpt lat="43.63541" lon="1.43305">
        <ele>158</ele>
        <time>2013-10-27T08:24:04.000Z</time>
      </trkpt>
      <trkpt lat="43.63553" lon="1.43307">
        <ele>158</ele>
        <time>2013-10-27T08:24:07.000Z</time>
      </trkpt>
      <trkpt lat="43.63573" lon="1.43311">
        <ele>158</ele>
        <time>2013-10-27T08:24:12.000Z</time>
      </trkpt>
      <trkpt lat="43.63597" lon="1.43316">
        <ele>158</ele>
        <time>2013-10-27T08:24:18.000Z</time>
      </trkpt>
      <trkpt lat="43.63618" lon="1.43319">
        <ele>157.39999389648</ele>
        <time>2013-10-27T08:24:23.000Z</time>
      </trkpt>
      <trkpt lat="43.63639" lon="1.4332">
        <ele>156.60000610352</ele>
        <time>2013-10-27T08:24:28.000Z</time>
      </trkpt>
      <trkpt lat="43.63651" lon="1.4332">
        <ele>155.60000610352</ele>
        <time>2013-10-27T08:24:31.000Z</time>
      </trkpt>
      <trkpt lat="43.63667" lon="1.4332">
        <ele>154.39999389648</ele>
        <time>2013-10-27T08:24:35.000Z</time>
      </trkpt>
      <trkpt lat="43.63689" lon="1.43321">
        <ele>152.39999389648</ele>
        <time>2013-10-27T08:24:41.000Z</time>
      </trkpt>
      <trkpt lat="43.63708" lon="1.43321">
        <ele>151.19999694824</ele>
        <time>2013-10-27T08:24:46.000Z</time>
      </trkpt>
      <trkpt lat="43.63728" lon="1.43323">
        <ele>149.39999389648</ele>
        <time>2013-10-27T08:24:51.000Z</time>
      </trkpt>
      <trkpt lat="43.63748" lon="1.43326">
        <ele>148.39999389648</ele>
        <time>2013-10-27T08:24:56.000Z</time>
      </trkpt>
      <trkpt lat="43.63768" lon="1.43327">
        <ele>147.19999694824</ele>
        <time>2013-10-27T08:25:01.000Z</time>
      </trkpt>
      <trkpt lat="43.63782" lon="1.43328">
        <ele>146.60000610352</ele>
        <time>2013-10-27T08:25:04.000Z</time>
      </trkpt>
      <trkpt lat="43.63805" lon="1.43329">
        <ele>145.80000305176</ele>
        <time>2013-10-27T08:25:10.000Z</time>
      </trkpt>
      <trkpt lat="43.63809" lon="1.4333">
        <ele>145.80000305176</ele>
        <time>2013-10-27T08:25:11.000Z</time>
      </trkpt>
      <trkpt lat="43.6383" lon="1.4333">
        <ele>145</ele>
        <time>2013-10-27T08:25:16.000Z</time>
      </trkpt>
      <trkpt lat="43.6385" lon="1.4333">
        <ele>144.19999694824</ele>
        <time>2013-10-27T08:25:21.000Z</time>
      </trkpt>
      <trkpt lat="43.6387" lon="1.43329">
        <ele>143.60000610352</ele>
        <time>2013-10-27T08:25:26.000Z</time>
      </trkpt>
      <trkpt lat="43.63886" lon="1.43329">
        <ele>142.80000305176</ele>
        <time>2013-10-27T08:25:30.000Z</time>
      </trkpt>
      <trkpt lat="43.63904" lon="1.43327">
        <ele>142</ele>
        <time>2013-10-27T08:25:35.000Z</time>
      </trkpt>
      <trkpt lat="43.63924" lon="1.43325">
        <ele>141.60000610352</ele>
        <time>2013-10-27T08:25:40.000Z</time>
      </trkpt>
      <trkpt lat="43.63942" lon="1.43324">
        <ele>141.19999694824</ele>
        <time>2013-10-27T08:25:45.000Z</time>
      </trkpt>
      <trkpt lat="43.63964" lon="1.43323">
        <ele>141</ele>
        <time>2013-10-27T08:25:50.000Z</time>
      </trkpt>
      <trkpt lat="43.63984" lon="1.43324">
        <ele>141</ele>
        <time>2013-10-27T08:25:55.000Z</time>
      </trkpt>
      <trkpt lat="43.63996" lon="1.43324">
        <ele>141</ele>
        <time>2013-10-27T08:25:58.000Z</time>
      </trkpt>
      <trkpt lat="43.64017" lon="1.43314">
        <ele>140.80000305176</ele>
        <time>2013-10-27T08:26:04.000Z</time>
      </trkpt>
      <trkpt lat="43.64031" lon="1.43295">
        <ele>140.80000305176</ele>
        <time>2013-10-27T08:26:09.000Z</time>
      </trkpt>
      <trkpt lat="43.64042" lon="1.43273">
        <ele>141.80000305176</ele>
        <time>2013-10-27T08:26:14.000Z</time>
      </trkpt>
      <trkpt lat="43.64052" lon="1.43252">
        <ele>142.19999694824</ele>
        <time>2013-10-27T08:26:19.000Z</time>
      </trkpt>
      <trkpt lat="43.64065" lon="1.43233">
        <ele>142.60000610352</ele>
        <time>2013-10-27T08:26:24.000Z</time>
      </trkpt>
      <trkpt lat="43.64082" lon="1.43223">
        <ele>143.60000610352</ele>
        <time>2013-10-27T08:26:29.000Z</time>
      </trkpt>
      <trkpt lat="43.64097" lon="1.43223">
        <ele>144.19999694824</ele>
        <time>2013-10-27T08:26:33.000Z</time>
      </trkpt>
      <trkpt lat="43.64115" lon="1.43234">
        <ele>144.39999389648</ele>
        <time>2013-10-27T08:26:38.000Z</time>
      </trkpt>
      <trkpt lat="43.64131" lon="1.43245">
        <ele>144.60000610352</ele>
        <time>2013-10-27T08:26:42.000Z</time>
      </trkpt>
      <trkpt lat="43.64142" lon="1.43256">
        <ele>144.80000305176</ele>
        <time>2013-10-27T08:26:45.000Z</time>
      </trkpt>
      <trkpt lat="43.64163" lon="1.43273">
        <ele>145</ele>
        <time>2013-10-27T08:26:51.000Z</time>
      </trkpt>
      <trkpt lat="43.64181" lon="1.43288">
        <ele>145</ele>
        <time>2013-10-27T08:26:56.000Z</time>
      </trkpt>
      <trkpt lat="43.64199" lon="1.43302">
        <ele>144.39999389648</ele>
        <time>2013-10-27T08:27:01.000Z</time>
      </trkpt>
      <trkpt lat="43.64217" lon="1.43318">
        <ele>143.80000305176</ele>
        <time>2013-10-27T08:27:06.000Z</time>
      </trkpt>
      <trkpt lat="43.6423" lon="1.43329">
        <ele>143.60000610352</ele>
        <time>2013-10-27T08:27:10.000Z</time>
      </trkpt>
      <trkpt lat="43.64242" lon="1.43334">
        <ele>143.39999389648</ele>
        <time>2013-10-27T08:27:13.000Z</time>
      </trkpt>
      <trkpt lat="43.64258" lon="1.43336">
        <ele>143.39999389648</ele>
        <time>2013-10-27T08:27:17.000Z</time>
      </trkpt>
      <trkpt lat="43.64271" lon="1.43336">
        <ele>142.60000610352</ele>
        <time>2013-10-27T08:27:20.000Z</time>
      </trkpt>
      <trkpt lat="43.64286" lon="1.43336">
        <ele>142.19999694824</ele>
        <time>2013-10-27T08:27:24.000Z</time>
      </trkpt>
      <trkpt lat="43.64294" lon="1.43336">
        <ele>142</ele>
        <time>2013-10-27T08:27:26.000Z</time>
      </trkpt>
      <trkpt lat="43.64319" lon="1.43337">
        <ele>141.60000610352</ele>
        <time>2013-10-27T08:27:32.000Z</time>
      </trkpt>
      <trkpt lat="43.64338" lon="1.43338">
        <ele>141.39999389648</ele>
        <time>2013-10-27T08:27:37.000Z</time>
      </trkpt>
      <trkpt lat="43.64356" lon="1.43337">
        <ele>141.19999694824</ele>
        <time>2013-10-27T08:27:42.000Z</time>
      </trkpt>
      <trkpt lat="43.64376" lon="1.43337">
        <ele>141.19999694824</ele>
        <time>2013-10-27T08:27:47.000Z</time>
      </trkpt>
      <trkpt lat="43.6438" lon="1.43337">
        <ele>141.19999694824</ele>
        <time>2013-10-27T08:27:48.000Z</time>
      </trkpt>
      <trkpt lat="43.64404" lon="1.43335">
        <ele>141</ele>
        <time>2013-10-27T08:27:54.000Z</time>
      </trkpt>
      <trkpt lat="43.64424" lon="1.43333">
        <ele>141</ele>
        <time>2013-10-27T08:27:59.000Z</time>
      </trkpt>
      <trkpt lat="43.64444" lon="1.43332">
        <ele>141</ele>
        <time>2013-10-27T08:28:04.000Z</time>
      </trkpt>
      <trkpt lat="43.64463" lon="1.43331">
        <ele>141</ele>
        <time>2013-10-27T08:28:09.000Z</time>
      </trkpt>
      <trkpt lat="43.64483" lon="1.4333">
        <ele>141</ele>
        <time>2013-10-27T08:28:14.000Z</time>
      </trkpt>
      <trkpt lat="43.64503" lon="1.43328">
        <ele>141</ele>
        <time>2013-10-27T08:28:19.000Z</time>
      </trkpt>
      <trkpt lat="43.64524" lon="1.43326">
        <ele>141</ele>
        <time>2013-10-27T08:28:24.000Z</time>
      </trkpt>
      <trkpt lat="43.64528" lon="1.43325">
        <ele>141</ele>
        <time>2013-10-27T08:28:25.000Z</time>
      </trkpt>
      <trkpt lat="43.64544" lon="1.43322">
        <ele>141</ele>
        <time>2013-10-27T08:28:29.000Z</time>
      </trkpt>
      <trkpt lat="43.64561" lon="1.4332">
        <ele>141</ele>
        <time>2013-10-27T08:28:33.000Z</time>
      </trkpt>
      <trkpt lat="43.64582" lon="1.43317">
        <ele>141</ele>
        <time>2013-10-27T08:28:38.000Z</time>
      </trkpt>
      <trkpt lat="43.64607" lon="1.43313">
        <ele>141</ele>
        <time>2013-10-27T08:28:44.000Z</time>
      </trkpt>
      <trkpt lat="43.64615" lon="1.43312">
        <ele>141</ele>
        <time>2013-10-27T08:28:46.000Z</time>
      </trkpt>
      <trkpt lat="43.64625" lon="1.4331">
        <ele>141</ele>
        <time>2013-10-27T08:28:49.000Z</time>
      </trkpt>
      <trkpt lat="43.64646" lon="1.43307">
        <ele>141</ele>
        <time>2013-10-27T08:28:54.000Z</time>
      </trkpt>
      <trkpt lat="43.64666" lon="1.43306">
        <ele>141</ele>
        <time>2013-10-27T08:28:59.000Z</time>
      </trkpt>
      <trkpt lat="43.64678" lon="1.43304">
        <ele>141</ele>
        <time>2013-10-27T08:29:02.000Z</time>
      </trkpt>
      <trkpt lat="43.64702" lon="1.43303">
        <ele>141</ele>
        <time>2013-10-27T08:29:08.000Z</time>
      </trkpt>
      <trkpt lat="43.64718" lon="1.43301">
        <ele>141</ele>
        <time>2013-10-27T08:29:12.000Z</time>
      </trkpt>
      <trkpt lat="43.64727" lon="1.43301">
        <ele>141</ele>
        <time>2013-10-27T08:29:14.000Z</time>
      </trkpt>
      <trkpt lat="43.64744" lon="1.43301">
        <ele>141.19999694824</ele>
        <time>2013-10-27T08:29:18.000Z</time>
      </trkpt>
      <trkpt lat="43.64768" lon="1.43297">
        <ele>142.19999694824</ele>
        <time>2013-10-27T08:29:24.000Z</time>
      </trkpt>
      <trkpt lat="43.64788" lon="1.43295">
        <ele>142.60000610352</ele>
        <time>2013-10-27T08:29:29.000Z</time>
      </trkpt>
      <trkpt lat="43.64804" lon="1.43293">
        <ele>142.80000305176</ele>
        <time>2013-10-27T08:29:33.000Z</time>
      </trkpt>
      <trkpt lat="43.64828" lon="1.43292">
        <ele>143.80000305176</ele>
        <time>2013-10-27T08:29:39.000Z</time>
      </trkpt>
      <trkpt lat="43.64847" lon="1.4329">
        <ele>144.39999389648</ele>
        <time>2013-10-27T08:29:44.000Z</time>
      </trkpt>
      <trkpt lat="43.64868" lon="1.43294">
        <ele>144.80000305176</ele>
        <time>2013-10-27T08:29:49.000Z</time>
      </trkpt>
      <trkpt lat="43.64888" lon="1.433">
        <ele>144.80000305176</ele>
        <time>2013-10-27T08:29:54.000Z</time>
      </trkpt>
      <trkpt lat="43.64897" lon="1.43302">
        <ele>145</ele>
        <time>2013-10-27T08:29:56.000Z</time>
      </trkpt>
      <trkpt lat="43.64912" lon="1.43297">
        <ele>144.39999389648</ele>
        <time>2013-10-27T08:30:00.000Z</time>
      </trkpt>
      <trkpt lat="43.64927" lon="1.43288">
        <ele>144</ele>
        <time>2013-10-27T08:30:04.000Z</time>
      </trkpt>
      <trkpt lat="43.64951" lon="1.43283">
        <ele>143.60000610352</ele>
        <time>2013-10-27T08:30:10.000Z</time>
      </trkpt>
      <trkpt lat="43.64963" lon="1.43282">
        <ele>143.19999694824</ele>
        <time>2013-10-27T08:30:13.000Z</time>
      </trkpt>
      <trkpt lat="43.64986" lon="1.43276">
        <ele>142.19999694824</ele>
        <time>2013-10-27T08:30:19.000Z</time>
      </trkpt>
      <trkpt lat="43.65006" lon="1.43272">
        <ele>141.80000305176</ele>
        <time>2013-10-27T08:30:24.000Z</time>
      </trkpt>
      <trkpt lat="43.6502" lon="1.43268">
        <ele>141.60000610352</ele>
        <time>2013-10-27T08:30:28.000Z</time>
      </trkpt>
      <trkpt lat="43.65038" lon="1.43267">
        <ele>141.39999389648</ele>
        <time>2013-10-27T08:30:33.000Z</time>
      </trkpt>
      <trkpt lat="43.65059" lon="1.43265">
        <ele>141.19999694824</ele>
        <time>2013-10-27T08:30:38.000Z</time>
      </trkpt>
      <trkpt lat="43.65103" lon="1.43259">
        <ele>141.19999694824</ele>
        <time>2013-10-27T08:30:49.000Z</time>
      </trkpt>
      <trkpt lat="43.65124" lon="1.43256">
        <ele>141.19999694824</ele>
        <time>2013-10-27T08:30:54.000Z</time>
      </trkpt>
      <trkpt lat="43.65132" lon="1.43255">
        <ele>141.19999694824</ele>
        <time>2013-10-27T08:30:56.000Z</time>
      </trkpt>
      <trkpt lat="43.65155" lon="1.4325">
        <ele>141</ele>
        <time>2013-10-27T08:31:02.000Z</time>
      </trkpt>
      <trkpt lat="43.65174" lon="1.43247">
        <ele>141</ele>
        <time>2013-10-27T08:31:07.000Z</time>
      </trkpt>
      <trkpt lat="43.65193" lon="1.43247">
        <ele>141</ele>
        <time>2013-10-27T08:31:12.000Z</time>
      </trkpt>
      <trkpt lat="43.65212" lon="1.43247">
        <ele>141</ele>
        <time>2013-10-27T08:31:17.000Z</time>
      </trkpt>
      <trkpt lat="43.65231" lon="1.43245">
        <ele>141</ele>
        <time>2013-10-27T08:31:22.000Z</time>
      </trkpt>
      <trkpt lat="43.65251" lon="1.4324">
        <ele>141</ele>
        <time>2013-10-27T08:31:27.000Z</time>
      </trkpt>
      <trkpt lat="43.65271" lon="1.43238">
        <ele>141</ele>
        <time>2013-10-27T08:31:32.000Z</time>
      </trkpt>
      <trkpt lat="43.65291" lon="1.43236">
        <ele>141</ele>
        <time>2013-10-27T08:31:37.000Z</time>
      </trkpt>
      <trkpt lat="43.6531" lon="1.43234">
        <ele>141</ele>
        <time>2013-10-27T08:31:42.000Z</time>
      </trkpt>
      <trkpt lat="43.65331" lon="1.43232">
        <ele>141</ele>
        <time>2013-10-27T08:31:47.000Z</time>
      </trkpt>
      <trkpt lat="43.65351" lon="1.4323">
        <ele>141</ele>
        <time>2013-10-27T08:31:52.000Z</time>
      </trkpt>
      <trkpt lat="43.65371" lon="1.43227">
        <ele>141</ele>
        <time>2013-10-27T08:31:57.000Z</time>
      </trkpt>
      <trkpt lat="43.65387" lon="1.43225">
        <ele>141</ele>
        <time>2013-10-27T08:32:01.000Z</time>
      </trkpt>
      <trkpt lat="43.65395" lon="1.43224">
        <ele>141</ele>
        <time>2013-10-27T08:32:03.000Z</time>
      </trkpt>
      <trkpt lat="43.65411" lon="1.43224">
        <ele>141</ele>
        <time>2013-10-27T08:32:07.000Z</time>
      </trkpt>
      <trkpt lat="43.65427" lon="1.43222">
        <ele>141</ele>
        <time>2013-10-27T08:32:11.000Z</time>
      </trkpt>
      <trkpt lat="43.65452" lon="1.43221">
        <ele>141</ele>
        <time>2013-10-27T08:32:17.000Z</time>
      </trkpt>
      <trkpt lat="43.65471" lon="1.4322">
        <ele>141</ele>
        <time>2013-10-27T08:32:22.000Z</time>
      </trkpt>
      <trkpt lat="43.65491" lon="1.43219">
        <ele>141</ele>
        <time>2013-10-27T08:32:27.000Z</time>
      </trkpt>
      <trkpt lat="43.65508" lon="1.43217">
        <ele>141</ele>
        <time>2013-10-27T08:32:31.000Z</time>
      </trkpt>
      <trkpt lat="43.65512" lon="1.43216">
        <ele>141</ele>
        <time>2013-10-27T08:32:32.000Z</time>
      </trkpt>
      <trkpt lat="43.65532" lon="1.43212">
        <ele>141</ele>
        <time>2013-10-27T08:32:37.000Z</time>
      </trkpt>
      <trkpt lat="43.65539" lon="1.43211">
        <ele>141</ele>
        <time>2013-10-27T08:32:39.000Z</time>
      </trkpt>
      <trkpt lat="43.65568" lon="1.43208">
        <ele>141</ele>
        <time>2013-10-27T08:32:46.000Z</time>
      </trkpt>
      <trkpt lat="43.65587" lon="1.43205">
        <ele>141</ele>
        <time>2013-10-27T08:32:51.000Z</time>
      </trkpt>
      <trkpt lat="43.65592" lon="1.43206">
        <ele>141</ele>
        <time>2013-10-27T08:32:52.000Z</time>
      </trkpt>
      <trkpt lat="43.65603" lon="1.43207">
        <ele>141</ele>
        <time>2013-10-27T08:32:55.000Z</time>
      </trkpt>
      <trkpt lat="43.65627" lon="1.43202">
        <ele>141</ele>
        <time>2013-10-27T08:33:01.000Z</time>
      </trkpt>
      <trkpt lat="43.65647" lon="1.43198">
        <ele>141</ele>
        <time>2013-10-27T08:33:06.000Z</time>
      </trkpt>
      <trkpt lat="43.65651" lon="1.43198">
        <ele>141</ele>
        <time>2013-10-27T08:33:07.000Z</time>
      </trkpt>
      <trkpt lat="43.65664" lon="1.43196">
        <ele>141</ele>
        <time>2013-10-27T08:33:10.000Z</time>
      </trkpt>
      <trkpt lat="43.65672" lon="1.43195">
        <ele>141</ele>
        <time>2013-10-27T08:33:12.000Z</time>
      </trkpt>
      <trkpt lat="43.65696" lon="1.4319">
        <ele>141</ele>
        <time>2013-10-27T08:33:18.000Z</time>
      </trkpt>
      <trkpt lat="43.65716" lon="1.43188">
        <ele>141</ele>
        <time>2013-10-27T08:33:23.000Z</time>
      </trkpt>
      <trkpt lat="43.65721" lon="1.43188">
        <ele>141</ele>
        <time>2013-10-27T08:33:24.000Z</time>
      </trkpt>
      <trkpt lat="43.65729" lon="1.43187">
        <ele>141</ele>
        <time>2013-10-27T08:33:26.000Z</time>
      </trkpt>
      <trkpt lat="43.65754" lon="1.43186">
        <ele>141</ele>
        <time>2013-10-27T08:33:32.000Z</time>
      </trkpt>
      <trkpt lat="43.65772" lon="1.43183">
        <ele>140.19999694824</ele>
        <time>2013-10-27T08:33:37.000Z</time>
      </trkpt>
      <trkpt lat="43.65793" lon="1.43181">
        <ele>139.80000305176</ele>
        <time>2013-10-27T08:33:42.000Z</time>
      </trkpt>
      <trkpt lat="43.65801" lon="1.43181">
        <ele>139.60000610352</ele>
        <time>2013-10-27T08:33:44.000Z</time>
      </trkpt>
      <trkpt lat="43.65824" lon="1.43177">
        <ele>139.39999389648</ele>
        <time>2013-10-27T08:33:50.000Z</time>
      </trkpt>
      <trkpt lat="43.65844" lon="1.43176">
        <ele>139.19999694824</ele>
        <time>2013-10-27T08:33:55.000Z</time>
      </trkpt>
      <trkpt lat="43.65865" lon="1.43173">
        <ele>139.19999694824</ele>
        <time>2013-10-27T08:34:00.000Z</time>
      </trkpt>
      <trkpt lat="43.65881" lon="1.4317">
        <ele>139.19999694824</ele>
        <time>2013-10-27T08:34:04.000Z</time>
      </trkpt>
      <trkpt lat="43.65906" lon="1.43168">
        <ele>139</ele>
        <time>2013-10-27T08:34:10.000Z</time>
      </trkpt>
      <trkpt lat="43.65926" lon="1.43166">
        <ele>139</ele>
        <time>2013-10-27T08:34:15.000Z</time>
      </trkpt>
      <trkpt lat="43.65947" lon="1.43164">
        <ele>139</ele>
        <time>2013-10-27T08:34:20.000Z</time>
      </trkpt>
      <trkpt lat="43.6595" lon="1.43163">
        <ele>139</ele>
        <time>2013-10-27T08:34:21.000Z</time>
      </trkpt>
      <trkpt lat="43.65963" lon="1.43162">
        <ele>139</ele>
        <time>2013-10-27T08:34:24.000Z</time>
      </trkpt>
      <trkpt lat="43.65987" lon="1.43158">
        <ele>139</ele>
        <time>2013-10-27T08:34:30.000Z</time>
      </trkpt>
      <trkpt lat="43.66002" lon="1.43157">
        <ele>139</ele>
        <time>2013-10-27T08:34:34.000Z</time>
      </trkpt>
      <trkpt lat="43.6601" lon="1.43155">
        <ele>139</ele>
        <time>2013-10-27T08:34:36.000Z</time>
      </trkpt>
      <trkpt lat="43.66034" lon="1.43152">
        <ele>139</ele>
        <time>2013-10-27T08:34:42.000Z</time>
      </trkpt>
      <trkpt lat="43.66054" lon="1.43151">
        <ele>139</ele>
        <time>2013-10-27T08:34:47.000Z</time>
      </trkpt>
      <trkpt lat="43.66059" lon="1.4315">
        <ele>139</ele>
        <time>2013-10-27T08:34:48.000Z</time>
      </trkpt>
      <trkpt lat="43.66082" lon="1.43148">
        <ele>139</ele>
        <time>2013-10-27T08:34:54.000Z</time>
      </trkpt>
      <trkpt lat="43.66102" lon="1.43146">
        <ele>139</ele>
        <time>2013-10-27T08:34:59.000Z</time>
      </trkpt>
      <trkpt lat="43.66123" lon="1.43143">
        <ele>139</ele>
        <time>2013-10-27T08:35:04.000Z</time>
      </trkpt>
      <trkpt lat="43.66144" lon="1.43138">
        <ele>139</ele>
        <time>2013-10-27T08:35:09.000Z</time>
      </trkpt>
      <trkpt lat="43.66148" lon="1.43137">
        <ele>139</ele>
        <time>2013-10-27T08:35:10.000Z</time>
      </trkpt>
      <trkpt lat="43.66161" lon="1.43139">
        <ele>139</ele>
        <time>2013-10-27T08:35:13.000Z</time>
      </trkpt>
      <trkpt lat="43.66168" lon="1.43144">
        <ele>139</ele>
        <time>2013-10-27T08:35:15.000Z</time>
      </trkpt>
      <trkpt lat="43.66179" lon="1.43163">
        <ele>139</ele>
        <time>2013-10-27T08:35:19.000Z</time>
      </trkpt>
      <trkpt lat="43.66181" lon="1.43176">
        <ele>139</ele>
        <time>2013-10-27T08:35:21.000Z</time>
      </trkpt>
      <trkpt lat="43.66184" lon="1.43196">
        <ele>139</ele>
        <time>2013-10-27T08:35:24.000Z</time>
      </trkpt>
      <trkpt lat="43.66187" lon="1.43227">
        <ele>139</ele>
        <time>2013-10-27T08:35:29.000Z</time>
      </trkpt>
      <trkpt lat="43.66189" lon="1.43257">
        <ele>139</ele>
        <time>2013-10-27T08:35:34.000Z</time>
      </trkpt>
      <trkpt lat="43.66189" lon="1.43263">
        <ele>139</ele>
        <time>2013-10-27T08:35:35.000Z</time>
      </trkpt>
      <trkpt lat="43.66192" lon="1.43288">
        <ele>139</ele>
        <time>2013-10-27T08:35:39.000Z</time>
      </trkpt>
      <trkpt lat="43.66194" lon="1.43323">
        <ele>139</ele>
        <time>2013-10-27T08:35:45.000Z</time>
      </trkpt>
      <trkpt lat="43.66194" lon="1.43335">
        <ele>139</ele>
        <time>2013-10-27T08:35:47.000Z</time>
      </trkpt>
      <trkpt lat="43.66195" lon="1.43347">
        <ele>138.80000305176</ele>
        <time>2013-10-27T08:35:49.000Z</time>
      </trkpt>
      <trkpt lat="43.66195" lon="1.4337">
        <ele>138.19999694824</ele>
        <time>2013-10-27T08:35:53.000Z</time>
      </trkpt>
      <trkpt lat="43.66195" lon="1.43399">
        <ele>137.60000610352</ele>
        <time>2013-10-27T08:35:58.000Z</time>
      </trkpt>
      <trkpt lat="43.66196" lon="1.43404">
        <ele>137.60000610352</ele>
        <time>2013-10-27T08:35:59.000Z</time>
      </trkpt>
      <trkpt lat="43.66208" lon="1.43432">
        <ele>137.19999694824</ele>
        <time>2013-10-27T08:36:05.000Z</time>
      </trkpt>
      <trkpt lat="43.66217" lon="1.43455">
        <ele>137.19999694824</ele>
        <time>2013-10-27T08:36:10.000Z</time>
      </trkpt>
      <trkpt lat="43.66228" lon="1.43479">
        <ele>137</ele>
        <time>2013-10-27T08:36:15.000Z</time>
      </trkpt>
      <trkpt lat="43.66238" lon="1.43502">
        <ele>137</ele>
        <time>2013-10-27T08:36:20.000Z</time>
      </trkpt>
      <trkpt lat="43.66249" lon="1.43523">
        <ele>137</ele>
        <time>2013-10-27T08:36:25.000Z</time>
      </trkpt>
      <trkpt lat="43.66264" lon="1.43546">
        <ele>137</ele>
        <time>2013-10-27T08:36:31.000Z</time>
      </trkpt>
      <trkpt lat="43.66278" lon="1.43566">
        <ele>137</ele>
        <time>2013-10-27T08:36:36.000Z</time>
      </trkpt>
      <trkpt lat="43.66292" lon="1.43586">
        <ele>137</ele>
        <time>2013-10-27T08:36:41.000Z</time>
      </trkpt>
      <trkpt lat="43.66306" lon="1.43606">
        <ele>137</ele>
        <time>2013-10-27T08:36:46.000Z</time>
      </trkpt>
      <trkpt lat="43.66322" lon="1.4363">
        <ele>137</ele>
        <time>2013-10-27T08:36:52.000Z</time>
      </trkpt>
      <trkpt lat="43.66336" lon="1.4365">
        <ele>137</ele>
        <time>2013-10-27T08:36:57.000Z</time>
      </trkpt>
      <trkpt lat="43.66338" lon="1.43654">
        <ele>137</ele>
        <time>2013-10-27T08:36:58.000Z</time>
      </trkpt>
      <trkpt lat="43.66352" lon="1.43673">
        <ele>137</ele>
        <time>2013-10-27T08:37:03.000Z</time>
      </trkpt>
      <trkpt lat="43.66367" lon="1.43693">
        <ele>137</ele>
        <time>2013-10-27T08:37:08.000Z</time>
      </trkpt>
      <trkpt lat="43.66378" lon="1.43709">
        <ele>137</ele>
        <time>2013-10-27T08:37:12.000Z</time>
      </trkpt>
      <trkpt lat="43.66394" lon="1.43733">
        <ele>137</ele>
        <time>2013-10-27T08:37:18.000Z</time>
      </trkpt>
      <trkpt lat="43.66408" lon="1.43753">
        <ele>137</ele>
        <time>2013-10-27T08:37:23.000Z</time>
      </trkpt>
      <trkpt lat="43.66413" lon="1.43761">
        <ele>137</ele>
        <time>2013-10-27T08:37:25.000Z</time>
      </trkpt>
      <trkpt lat="43.66425" lon="1.43777">
        <ele>137</ele>
        <time>2013-10-27T08:37:29.000Z</time>
      </trkpt>
      <trkpt lat="43.66442" lon="1.43799">
        <ele>137</ele>
        <time>2013-10-27T08:37:35.000Z</time>
      </trkpt>
      <trkpt lat="43.66457" lon="1.43821">
        <ele>137</ele>
        <time>2013-10-27T08:37:40.000Z</time>
      </trkpt>
      <trkpt lat="43.66471" lon="1.43841">
        <ele>137</ele>
        <time>2013-10-27T08:37:45.000Z</time>
      </trkpt>
      <trkpt lat="43.66487" lon="1.43859">
        <ele>137</ele>
        <time>2013-10-27T08:37:50.000Z</time>
      </trkpt>
      <trkpt lat="43.6649" lon="1.43862">
        <ele>137</ele>
        <time>2013-10-27T08:37:51.000Z</time>
      </trkpt>
      <trkpt lat="43.66509" lon="1.43873">
        <ele>137</ele>
        <time>2013-10-27T08:37:56.000Z</time>
      </trkpt>
      <trkpt lat="43.66527" lon="1.43879">
        <ele>137</ele>
        <time>2013-10-27T08:38:01.000Z</time>
      </trkpt>
      <trkpt lat="43.66547" lon="1.43884">
        <ele>137</ele>
        <time>2013-10-27T08:38:06.000Z</time>
      </trkpt>
      <trkpt lat="43.66567" lon="1.43883">
        <ele>137</ele>
        <time>2013-10-27T08:38:11.000Z</time>
      </trkpt>
      <trkpt lat="43.66574" lon="1.43879">
        <ele>137</ele>
        <time>2013-10-27T08:38:13.000Z</time>
      </trkpt>
      <trkpt lat="43.66595" lon="1.43863">
        <ele>137</ele>
        <time>2013-10-27T08:38:19.000Z</time>
      </trkpt>
      <trkpt lat="43.66613" lon="1.43851">
        <ele>137</ele>
        <time>2013-10-27T08:38:24.000Z</time>
      </trkpt>
      <trkpt lat="43.6663" lon="1.43839">
        <ele>137.19999694824</ele>
        <time>2013-10-27T08:38:29.000Z</time>
      </trkpt>
      <trkpt lat="43.66648" lon="1.43829">
        <ele>138</ele>
        <time>2013-10-27T08:38:34.000Z</time>
      </trkpt>
      <trkpt lat="43.66667" lon="1.4382">
        <ele>138.39999389648</ele>
        <time>2013-10-27T08:38:39.000Z</time>
      </trkpt>
      <trkpt lat="43.66686" lon="1.43811">
        <ele>138.60000610352</ele>
        <time>2013-10-27T08:38:44.000Z</time>
      </trkpt>
      <trkpt lat="43.66705" lon="1.43803">
        <ele>138.80000305176</ele>
        <time>2013-10-27T08:38:49.000Z</time>
      </trkpt>
      <trkpt lat="43.66723" lon="1.43795">
        <ele>138.80000305176</ele>
        <time>2013-10-27T08:38:54.000Z</time>
      </trkpt>
      <trkpt lat="43.66741" lon="1.43786">
        <ele>138.80000305176</ele>
        <time>2013-10-27T08:38:59.000Z</time>
      </trkpt>
      <trkpt lat="43.6676" lon="1.43776">
        <ele>139</ele>
        <time>2013-10-27T08:39:04.000Z</time>
      </trkpt>
      <trkpt lat="43.66764" lon="1.43772">
        <ele>139</ele>
        <time>2013-10-27T08:39:05.000Z</time>
      </trkpt>
      <trkpt lat="43.66765" lon="1.43753">
        <ele>139</ele>
        <time>2013-10-27T08:39:09.000Z</time>
      </trkpt>
      <trkpt lat="43.66763" lon="1.43747">
        <ele>139</ele>
        <time>2013-10-27T08:39:10.000Z</time>
      </trkpt>
      <trkpt lat="43.66761" lon="1.43742">
        <ele>139</ele>
        <time>2013-10-27T08:39:11.000Z</time>
      </trkpt>
      <trkpt lat="43.66751" lon="1.43718">
        <ele>139</ele>
        <time>2013-10-27T08:39:16.000Z</time>
      </trkpt>
      <trkpt lat="43.66746" lon="1.43708">
        <ele>139</ele>
        <time>2013-10-27T08:39:18.000Z</time>
      </trkpt>
      <trkpt lat="43.6674" lon="1.43688">
        <ele>139</ele>
        <time>2013-10-27T08:39:22.000Z</time>
      </trkpt>
      <trkpt lat="43.66729" lon="1.4366">
        <ele>139</ele>
        <time>2013-10-27T08:39:28.000Z</time>
      </trkpt>
      <trkpt lat="43.66721" lon="1.43638">
        <ele>139</ele>
        <time>2013-10-27T08:39:32.000Z</time>
      </trkpt>
      <trkpt lat="43.66716" lon="1.43622">
        <ele>139</ele>
        <time>2013-10-27T08:39:35.000Z</time>
      </trkpt>
      <trkpt lat="43.66707" lon="1.43589">
        <ele>139</ele>
        <time>2013-10-27T08:39:41.000Z</time>
      </trkpt>
      <trkpt lat="43.66702" lon="1.43567">
        <ele>139</ele>
        <time>2013-10-27T08:39:45.000Z</time>
      </trkpt>
      <trkpt lat="43.66698" lon="1.43551">
        <ele>139</ele>
        <time>2013-10-27T08:39:48.000Z</time>
      </trkpt>
      <trkpt lat="43.66692" lon="1.43531">
        <ele>139</ele>
        <time>2013-10-27T08:39:52.000Z</time>
      </trkpt>
      <trkpt lat="43.66689" lon="1.4352">
        <ele>139</ele>
        <time>2013-10-27T08:39:54.000Z</time>
      </trkpt>
      <trkpt lat="43.66688" lon="1.43515">
        <ele>139</ele>
        <time>2013-10-27T08:39:55.000Z</time>
      </trkpt>
      <trkpt lat="43.66679" lon="1.43483">
        <ele>138</ele>
        <time>2013-10-27T08:40:01.000Z</time>
      </trkpt>
      <trkpt lat="43.66678" lon="1.43477">
        <ele>137.80000305176</ele>
        <time>2013-10-27T08:40:02.000Z</time>
      </trkpt>
      <trkpt lat="43.66673" lon="1.43461">
        <ele>137.60000610352</ele>
        <time>2013-10-27T08:40:05.000Z</time>
      </trkpt>
      <trkpt lat="43.66666" lon="1.43441">
        <ele>137.39999389648</ele>
        <time>2013-10-27T08:40:09.000Z</time>
      </trkpt>
      <trkpt lat="43.66663" lon="1.43431">
        <ele>137.19999694824</ele>
        <time>2013-10-27T08:40:11.000Z</time>
      </trkpt>
      <trkpt lat="43.66654" lon="1.434">
        <ele>137</ele>
        <time>2013-10-27T08:40:17.000Z</time>
      </trkpt>
      <trkpt lat="43.66653" lon="1.43395">
        <ele>137</ele>
        <time>2013-10-27T08:40:18.000Z</time>
      </trkpt>
      <trkpt lat="43.66646" lon="1.43376">
        <ele>137</ele>
        <time>2013-10-27T08:40:22.000Z</time>
      </trkpt>
      <trkpt lat="43.66637" lon="1.43347">
        <ele>136.80000305176</ele>
        <time>2013-10-27T08:40:28.000Z</time>
      </trkpt>
      <trkpt lat="43.66629" lon="1.43322">
        <ele>136.39999389648</ele>
        <time>2013-10-27T08:40:33.000Z</time>
      </trkpt>
      <trkpt lat="43.66623" lon="1.43296">
        <ele>135.80000305176</ele>
        <time>2013-10-27T08:40:38.000Z</time>
      </trkpt>
      <trkpt lat="43.66616" lon="1.43269">
        <ele>135.39999389648</ele>
        <time>2013-10-27T08:40:43.000Z</time>
      </trkpt>
      <trkpt lat="43.66611" lon="1.43251">
        <ele>135.19999694824</ele>
        <time>2013-10-27T08:40:47.000Z</time>
      </trkpt>
      <trkpt lat="43.66621" lon="1.43236">
        <ele>135</ele>
        <time>2013-10-27T08:40:51.000Z</time>
      </trkpt>
      <trkpt lat="43.6663" lon="1.43233">
        <ele>135</ele>
        <time>2013-10-27T08:40:53.000Z</time>
      </trkpt>
      <trkpt lat="43.66655" lon="1.43224">
        <ele>135</ele>
        <time>2013-10-27T08:40:59.000Z</time>
      </trkpt>
      <trkpt lat="43.6666" lon="1.43223">
        <ele>135</ele>
        <time>2013-10-27T08:41:00.000Z</time>
      </trkpt>
      <trkpt lat="43.66676" lon="1.43217">
        <ele>135</ele>
        <time>2013-10-27T08:41:04.000Z</time>
      </trkpt>
      <trkpt lat="43.667" lon="1.4321">
        <ele>136</ele>
        <time>2013-10-27T08:41:10.000Z</time>
      </trkpt>
      <trkpt lat="43.66704" lon="1.43209">
        <ele>136</ele>
        <time>2013-10-27T08:41:11.000Z</time>
      </trkpt>
      <trkpt lat="43.6672" lon="1.43204">
        <ele>136.39999389648</ele>
        <time>2013-10-27T08:41:15.000Z</time>
      </trkpt>
      <trkpt lat="43.66743" lon="1.43194">
        <ele>136.60000610352</ele>
        <time>2013-10-27T08:41:21.000Z</time>
      </trkpt>
      <trkpt lat="43.66762" lon="1.43184">
        <ele>136.80000305176</ele>
        <time>2013-10-27T08:41:26.000Z</time>
      </trkpt>
      <trkpt lat="43.66782" lon="1.43174">
        <ele>136.80000305176</ele>
        <time>2013-10-27T08:41:31.000Z</time>
      </trkpt>
      <trkpt lat="43.66802" lon="1.43166">
        <ele>137.60000610352</ele>
        <time>2013-10-27T08:41:36.000Z</time>
      </trkpt>
      <trkpt lat="43.6681" lon="1.43163">
        <ele>138</ele>
        <time>2013-10-27T08:41:38.000Z</time>
      </trkpt>
      <trkpt lat="43.6685" lon="1.43145">
        <ele>138.60000610352</ele>
        <time>2013-10-27T08:41:48.000Z</time>
      </trkpt>
      <trkpt lat="43.6687" lon="1.43137">
        <ele>138.80000305176</ele>
        <time>2013-10-27T08:41:53.000Z</time>
      </trkpt>
      <trkpt lat="43.6689" lon="1.43128">
        <ele>138.80000305176</ele>
        <time>2013-10-27T08:41:58.000Z</time>
      </trkpt>
      <trkpt lat="43.66901" lon="1.43121">
        <ele>138.80000305176</ele>
        <time>2013-10-27T08:42:01.000Z</time>
      </trkpt>
      <trkpt lat="43.66924" lon="1.43111">
        <ele>139</ele>
        <time>2013-10-27T08:42:07.000Z</time>
      </trkpt>
      <trkpt lat="43.66942" lon="1.43102">
        <ele>139</ele>
        <time>2013-10-27T08:42:12.000Z</time>
      </trkpt>
      <trkpt lat="43.66957" lon="1.43094">
        <ele>139</ele>
        <time>2013-10-27T08:42:16.000Z</time>
      </trkpt>
      <trkpt lat="43.66961" lon="1.43092">
        <ele>139</ele>
        <time>2013-10-27T08:42:17.000Z</time>
      </trkpt>
      <trkpt lat="43.66977" lon="1.43084">
        <ele>139</ele>
        <time>2013-10-27T08:42:21.000Z</time>
      </trkpt>
      <trkpt lat="43.67" lon="1.43075">
        <ele>139</ele>
        <time>2013-10-27T08:42:27.000Z</time>
      </trkpt>
      <trkpt lat="43.67004" lon="1.43073">
        <ele>139</ele>
        <time>2013-10-27T08:42:28.000Z</time>
      </trkpt>
      <trkpt lat="43.67023" lon="1.43062">
        <ele>139.60000610352</ele>
        <time>2013-10-27T08:42:33.000Z</time>
      </trkpt>
      <trkpt lat="43.67031" lon="1.43059">
        <ele>140</ele>
        <time>2013-10-27T08:42:35.000Z</time>
      </trkpt>
      <trkpt lat="43.6705" lon="1.4305">
        <ele>140.39999389648</ele>
        <time>2013-10-27T08:42:40.000Z</time>
      </trkpt>
      <trkpt lat="43.67065" lon="1.43042">
        <ele>140.80000305176</ele>
        <time>2013-10-27T08:42:44.000Z</time>
      </trkpt>
      <trkpt lat="43.67089" lon="1.43034">
        <ele>141.80000305176</ele>
        <time>2013-10-27T08:42:50.000Z</time>
      </trkpt>
      <trkpt lat="43.67108" lon="1.43026">
        <ele>142.39999389648</ele>
        <time>2013-10-27T08:42:55.000Z</time>
      </trkpt>
      <trkpt lat="43.67127" lon="1.43018">
        <ele>142.60000610352</ele>
        <time>2013-10-27T08:43:00.000Z</time>
      </trkpt>
      <trkpt lat="43.67147" lon="1.43011">
        <ele>142.80000305176</ele>
        <time>2013-10-27T08:43:05.000Z</time>
      </trkpt>
      <trkpt lat="43.67155" lon="1.43007">
        <ele>142.80000305176</ele>
        <time>2013-10-27T08:43:07.000Z</time>
      </trkpt>
      <trkpt lat="43.67163" lon="1.43004">
        <ele>142.80000305176</ele>
        <time>2013-10-27T08:43:09.000Z</time>
      </trkpt>
      <trkpt lat="43.67186" lon="1.42993">
        <ele>143</ele>
        <time>2013-10-27T08:43:15.000Z</time>
      </trkpt>
      <trkpt lat="43.67205" lon="1.42985">
        <ele>143</ele>
        <time>2013-10-27T08:43:20.000Z</time>
      </trkpt>
      <trkpt lat="43.67223" lon="1.42976">
        <ele>143</ele>
        <time>2013-10-27T08:43:25.000Z</time>
      </trkpt>
      <trkpt lat="43.67243" lon="1.42967">
        <ele>143</ele>
        <time>2013-10-27T08:43:30.000Z</time>
      </trkpt>
      <trkpt lat="43.67263" lon="1.42957">
        <ele>143</ele>
        <time>2013-10-27T08:43:35.000Z</time>
      </trkpt>
      <trkpt lat="43.67266" lon="1.42955">
        <ele>142.80000305176</ele>
        <time>2013-10-27T08:43:36.000Z</time>
      </trkpt>
      <trkpt lat="43.6727" lon="1.42953">
        <ele>142.60000610352</ele>
        <time>2013-10-27T08:43:37.000Z</time>
      </trkpt>
      <trkpt lat="43.67293" lon="1.42943">
        <ele>141.80000305176</ele>
        <time>2013-10-27T08:43:43.000Z</time>
      </trkpt>
      <trkpt lat="43.67312" lon="1.42934">
        <ele>141.60000610352</ele>
        <time>2013-10-27T08:43:48.000Z</time>
      </trkpt>
      <trkpt lat="43.67332" lon="1.42924">
        <ele>141.19999694824</ele>
        <time>2013-10-27T08:43:53.000Z</time>
      </trkpt>
      <trkpt lat="43.67352" lon="1.42916">
        <ele>140.80000305176</ele>
        <time>2013-10-27T08:43:58.000Z</time>
      </trkpt>
      <trkpt lat="43.67371" lon="1.42907">
        <ele>140</ele>
        <time>2013-10-27T08:44:03.000Z</time>
      </trkpt>
      <trkpt lat="43.67389" lon="1.42898">
        <ele>139.60000610352</ele>
        <time>2013-10-27T08:44:08.000Z</time>
      </trkpt>
      <trkpt lat="43.67408" lon="1.42889">
        <ele>139.39999389648</ele>
        <time>2013-10-27T08:44:13.000Z</time>
      </trkpt>
      <trkpt lat="43.67426" lon="1.4288">
        <ele>139.19999694824</ele>
        <time>2013-10-27T08:44:18.000Z</time>
      </trkpt>
      <trkpt lat="43.67444" lon="1.42869">
        <ele>139</ele>
        <time>2013-10-27T08:44:23.000Z</time>
      </trkpt>
      <trkpt lat="43.67463" lon="1.42859">
        <ele>139</ele>
        <time>2013-10-27T08:44:28.000Z</time>
      </trkpt>
      <trkpt lat="43.67475" lon="1.42853">
        <ele>139</ele>
        <time>2013-10-27T08:44:31.000Z</time>
      </trkpt>
      <trkpt lat="43.67491" lon="1.42844">
        <ele>139</ele>
        <time>2013-10-27T08:44:35.000Z</time>
      </trkpt>
      <trkpt lat="43.67512" lon="1.42832">
        <ele>139</ele>
        <time>2013-10-27T08:44:41.000Z</time>
      </trkpt>
      <trkpt lat="43.6753" lon="1.4282">
        <ele>139</ele>
        <time>2013-10-27T08:44:46.000Z</time>
      </trkpt>
      <trkpt lat="43.6755" lon="1.42807">
        <ele>139.80000305176</ele>
        <time>2013-10-27T08:44:52.000Z</time>
      </trkpt>
      <trkpt lat="43.67569" lon="1.42796">
        <ele>140.39999389648</ele>
        <time>2013-10-27T08:44:57.000Z</time>
      </trkpt>
      <trkpt lat="43.67587" lon="1.42785">
        <ele>141.19999694824</ele>
        <time>2013-10-27T08:45:02.000Z</time>
      </trkpt>
      <trkpt lat="43.67606" lon="1.42775">
        <ele>142</ele>
        <time>2013-10-27T08:45:07.000Z</time>
      </trkpt>
      <trkpt lat="43.67625" lon="1.42764">
        <ele>142.39999389648</ele>
        <time>2013-10-27T08:45:12.000Z</time>
      </trkpt>
      <trkpt lat="43.67643" lon="1.42755">
        <ele>142.60000610352</ele>
        <time>2013-10-27T08:45:17.000Z</time>
      </trkpt>
      <trkpt lat="43.67661" lon="1.42744">
        <ele>142.80000305176</ele>
        <time>2013-10-27T08:45:22.000Z</time>
      </trkpt>
      <trkpt lat="43.6768" lon="1.42734">
        <ele>143</ele>
        <time>2013-10-27T08:45:27.000Z</time>
      </trkpt>
      <trkpt lat="43.67699" lon="1.42722">
        <ele>143</ele>
        <time>2013-10-27T08:45:32.000Z</time>
      </trkpt>
      <trkpt lat="43.6771" lon="1.42715">
        <ele>143.60000610352</ele>
        <time>2013-10-27T08:45:35.000Z</time>
      </trkpt>
      <trkpt lat="43.67717" lon="1.4271">
        <ele>143.80000305176</ele>
        <time>2013-10-27T08:45:37.000Z</time>
      </trkpt>
      <trkpt lat="43.6774" lon="1.42698">
        <ele>144.39999389648</ele>
        <time>2013-10-27T08:45:43.000Z</time>
      </trkpt>
      <trkpt lat="43.67751" lon="1.42691">
        <ele>144.60000610352</ele>
        <time>2013-10-27T08:45:46.000Z</time>
      </trkpt>
      <trkpt lat="43.6777" lon="1.4268">
        <ele>144.80000305176</ele>
        <time>2013-10-27T08:45:51.000Z</time>
      </trkpt>
      <trkpt lat="43.67774" lon="1.42678">
        <ele>144.80000305176</ele>
        <time>2013-10-27T08:45:52.000Z</time>
      </trkpt>
      <trkpt lat="43.67796" lon="1.42667">
        <ele>145</ele>
        <time>2013-10-27T08:45:58.000Z</time>
      </trkpt>
      <trkpt lat="43.67814" lon="1.42655">
        <ele>145</ele>
        <time>2013-10-27T08:46:03.000Z</time>
      </trkpt>
      <trkpt lat="43.67833" lon="1.42644">
        <ele>145</ele>
        <time>2013-10-27T08:46:08.000Z</time>
      </trkpt>
      <trkpt lat="43.67851" lon="1.42634">
        <ele>145</ele>
        <time>2013-10-27T08:46:13.000Z</time>
      </trkpt>
      <trkpt lat="43.67868" lon="1.42624">
        <ele>145</ele>
        <time>2013-10-27T08:46:18.000Z</time>
      </trkpt>
      <trkpt lat="43.67886" lon="1.42613">
        <ele>145</ele>
        <time>2013-10-27T08:46:23.000Z</time>
      </trkpt>
      <trkpt lat="43.67904" lon="1.42603">
        <ele>145</ele>
        <time>2013-10-27T08:46:28.000Z</time>
      </trkpt>
      <trkpt lat="43.67923" lon="1.42594">
        <ele>144.39999389648</ele>
        <time>2013-10-27T08:46:33.000Z</time>
      </trkpt>
      <trkpt lat="43.67927" lon="1.42592">
        <ele>144.19999694824</ele>
        <time>2013-10-27T08:46:34.000Z</time>
      </trkpt>
      <trkpt lat="43.67943" lon="1.42583">
        <ele>143.80000305176</ele>
        <time>2013-10-27T08:46:38.000Z</time>
      </trkpt>
      <trkpt lat="43.67946" lon="1.42581">
        <ele>143.80000305176</ele>
        <time>2013-10-27T08:46:39.000Z</time>
      </trkpt>
      <trkpt lat="43.67954" lon="1.42577">
        <ele>143.60000610352</ele>
        <time>2013-10-27T08:46:41.000Z</time>
      </trkpt>
      <trkpt lat="43.6797" lon="1.42583">
        <ele>143.39999389648</ele>
        <time>2013-10-27T08:46:45.000Z</time>
      </trkpt>
      <trkpt lat="43.67973" lon="1.42586">
        <ele>143.39999389648</ele>
        <time>2013-10-27T08:46:46.000Z</time>
      </trkpt>
      <trkpt lat="43.67989" lon="1.42597">
        <ele>143.19999694824</ele>
        <time>2013-10-27T08:46:50.000Z</time>
      </trkpt>
      <trkpt lat="43.68011" lon="1.42607">
        <ele>143.19999694824</ele>
        <time>2013-10-27T08:46:55.000Z</time>
      </trkpt>
      <trkpt lat="43.68015" lon="1.42609">
        <ele>143.19999694824</ele>
        <time>2013-10-27T08:46:56.000Z</time>
      </trkpt>
      <trkpt lat="43.68032" lon="1.42616">
        <ele>142.80000305176</ele>
        <time>2013-10-27T08:47:00.000Z</time>
      </trkpt>
      <trkpt lat="43.68054" lon="1.42628">
        <ele>142</ele>
        <time>2013-10-27T08:47:06.000Z</time>
      </trkpt>
      <trkpt lat="43.68073" lon="1.42638">
        <ele>141.60000610352</ele>
        <time>2013-10-27T08:47:11.000Z</time>
      </trkpt>
      <trkpt lat="43.68092" lon="1.42648">
        <ele>141.19999694824</ele>
        <time>2013-10-27T08:47:16.000Z</time>
      </trkpt>
      <trkpt lat="43.68096" lon="1.4265">
        <ele>141.19999694824</ele>
        <time>2013-10-27T08:47:17.000Z</time>
      </trkpt>
      <trkpt lat="43.68113" lon="1.42659">
        <ele>141.19999694824</ele>
        <time>2013-10-27T08:47:21.000Z</time>
      </trkpt>
      <trkpt lat="43.68125" lon="1.42665">
        <ele>140.60000610352</ele>
        <time>2013-10-27T08:47:24.000Z</time>
      </trkpt>
      <trkpt lat="43.68149" lon="1.42676">
        <ele>139.80000305176</ele>
        <time>2013-10-27T08:47:30.000Z</time>
      </trkpt>
      <trkpt lat="43.68157" lon="1.4268">
        <ele>139.60000610352</ele>
        <time>2013-10-27T08:47:32.000Z</time>
      </trkpt>
      <trkpt lat="43.68184" lon="1.42671">
        <ele>138.39999389648</ele>
        <time>2013-10-27T08:47:39.000Z</time>
      </trkpt>
      <trkpt lat="43.68207" lon="1.4266">
        <ele>137.60000610352</ele>
        <time>2013-10-27T08:47:45.000Z</time>
      </trkpt>
      <trkpt lat="43.68223" lon="1.42652">
        <ele>137.19999694824</ele>
        <time>2013-10-27T08:47:49.000Z</time>
      </trkpt>
      <trkpt lat="43.68247" lon="1.42642">
        <ele>137</ele>
        <time>2013-10-27T08:47:55.000Z</time>
      </trkpt>
      <trkpt lat="43.68267" lon="1.42634">
        <ele>136.80000305176</ele>
        <time>2013-10-27T08:48:00.000Z</time>
      </trkpt>
      <trkpt lat="43.68287" lon="1.42627">
        <ele>136.80000305176</ele>
        <time>2013-10-27T08:48:05.000Z</time>
      </trkpt>
      <trkpt lat="43.6829" lon="1.42626">
        <ele>136.80000305176</ele>
        <time>2013-10-27T08:48:06.000Z</time>
      </trkpt>
      <trkpt lat="43.68311" lon="1.42618">
        <ele>136.60000610352</ele>
        <time>2013-10-27T08:48:11.000Z</time>
      </trkpt>
      <trkpt lat="43.68331" lon="1.42611">
        <ele>136.60000610352</ele>
        <time>2013-10-27T08:48:16.000Z</time>
      </trkpt>
      <trkpt lat="43.6835" lon="1.42602">
        <ele>136.60000610352</ele>
        <time>2013-10-27T08:48:21.000Z</time>
      </trkpt>
      <trkpt lat="43.6837" lon="1.42594">
        <ele>136.60000610352</ele>
        <time>2013-10-27T08:48:26.000Z</time>
      </trkpt>
      <trkpt lat="43.6839" lon="1.42586">
        <ele>136.60000610352</ele>
        <time>2013-10-27T08:48:31.000Z</time>
      </trkpt>
      <trkpt lat="43.68409" lon="1.42578">
        <ele>136.60000610352</ele>
        <time>2013-10-27T08:48:36.000Z</time>
      </trkpt>
      <trkpt lat="43.68429" lon="1.42571">
        <ele>136.60000610352</ele>
        <time>2013-10-27T08:48:41.000Z</time>
      </trkpt>
      <trkpt lat="43.68448" lon="1.42562">
        <ele>136.60000610352</ele>
        <time>2013-10-27T08:48:46.000Z</time>
      </trkpt>
      <trkpt lat="43.68452" lon="1.4256">
        <ele>136.60000610352</ele>
        <time>2013-10-27T08:48:47.000Z</time>
      </trkpt>
      <trkpt lat="43.68462" lon="1.42552">
        <ele>136.60000610352</ele>
        <time>2013-10-27T08:48:50.000Z</time>
      </trkpt>
      <trkpt lat="43.68476" lon="1.42525">
        <ele>136.60000610352</ele>
        <time>2013-10-27T08:48:56.000Z</time>
      </trkpt>
      <trkpt lat="43.68484" lon="1.42501">
        <ele>136.19999694824</ele>
        <time>2013-10-27T08:49:01.000Z</time>
      </trkpt>
      <trkpt lat="43.6849" lon="1.42476">
        <ele>135.60000610352</ele>
        <time>2013-10-27T08:49:06.000Z</time>
      </trkpt>
      <trkpt lat="43.68496" lon="1.42452">
        <ele>135.19999694824</ele>
        <time>2013-10-27T08:49:11.000Z</time>
      </trkpt>
      <trkpt lat="43.68496" lon="1.42447">
        <ele>135.19999694824</ele>
        <time>2013-10-27T08:49:12.000Z</time>
      </trkpt>
      <trkpt lat="43.68487" lon="1.42436">
        <ele>135</ele>
        <time>2013-10-27T08:49:15.000Z</time>
      </trkpt>
      <trkpt lat="43.68472" lon="1.42421">
        <ele>134.80000305176</ele>
        <time>2013-10-27T08:49:19.000Z</time>
      </trkpt>
      <trkpt lat="43.68469" lon="1.42416">
        <ele>134.80000305176</ele>
        <time>2013-10-27T08:49:20.000Z</time>
      </trkpt>
      <trkpt lat="43.68468" lon="1.42398">
        <ele>134.80000305176</ele>
        <time>2013-10-27T08:49:23.000Z</time>
      </trkpt>
      <trkpt lat="43.6847" lon="1.42392">
        <ele>134.80000305176</ele>
        <time>2013-10-27T08:49:24.000Z</time>
      </trkpt>
      <trkpt lat="43.68482" lon="1.42367">
        <ele>134.60000610352</ele>
        <time>2013-10-27T08:49:29.000Z</time>
      </trkpt>
      <trkpt lat="43.68495" lon="1.42337">
        <ele>134.60000610352</ele>
        <time>2013-10-27T08:49:35.000Z</time>
      </trkpt>
      <trkpt lat="43.68502" lon="1.42323">
        <ele>134.60000610352</ele>
        <time>2013-10-27T08:49:38.000Z</time>
      </trkpt>
      <trkpt lat="43.68513" lon="1.423">
        <ele>134.60000610352</ele>
        <time>2013-10-27T08:49:43.000Z</time>
      </trkpt>
      <trkpt lat="43.68525" lon="1.42274">
        <ele>134.60000610352</ele>
        <time>2013-10-27T08:49:48.000Z</time>
      </trkpt>
      <trkpt lat="43.68535" lon="1.4225">
        <ele>134.60000610352</ele>
        <time>2013-10-27T08:49:53.000Z</time>
      </trkpt>
      <trkpt lat="43.68548" lon="1.42222">
        <ele>134.60000610352</ele>
        <time>2013-10-27T08:49:59.000Z</time>
      </trkpt>
      <trkpt lat="43.68558" lon="1.422">
        <ele>134.80000305176</ele>
        <time>2013-10-27T08:50:04.000Z</time>
      </trkpt>
      <trkpt lat="43.68568" lon="1.42177">
        <ele>135.60000610352</ele>
        <time>2013-10-27T08:50:09.000Z</time>
      </trkpt>
      <trkpt lat="43.68576" lon="1.42166">
        <ele>135.80000305176</ele>
        <time>2013-10-27T08:50:12.000Z</time>
      </trkpt>
      <trkpt lat="43.68588" lon="1.42167">
        <ele>136.19999694824</ele>
        <time>2013-10-27T08:50:15.000Z</time>
      </trkpt>
      <trkpt lat="43.68614" lon="1.42178">
        <ele>136.39999389648</ele>
        <time>2013-10-27T08:50:21.000Z</time>
      </trkpt>
      <trkpt lat="43.68619" lon="1.42179">
        <ele>136.39999389648</ele>
        <time>2013-10-27T08:50:22.000Z</time>
      </trkpt>
      <trkpt lat="43.68642" lon="1.4219">
        <ele>136.60000610352</ele>
        <time>2013-10-27T08:50:28.000Z</time>
      </trkpt>
      <trkpt lat="43.68651" lon="1.42194">
        <ele>136.60000610352</ele>
        <time>2013-10-27T08:50:30.000Z</time>
      </trkpt>
      <trkpt lat="43.68673" lon="1.42208">
        <ele>136.60000610352</ele>
        <time>2013-10-27T08:50:36.000Z</time>
      </trkpt>
      <trkpt lat="43.68692" lon="1.42222">
        <ele>136.60000610352</ele>
        <time>2013-10-27T08:50:41.000Z</time>
      </trkpt>
      <trkpt lat="43.68696" lon="1.42225">
        <ele>136.60000610352</ele>
        <time>2013-10-27T08:50:42.000Z</time>
      </trkpt>
      <trkpt lat="43.68717" lon="1.42242">
        <ele>136.60000610352</ele>
        <time>2013-10-27T08:50:48.000Z</time>
      </trkpt>
      <trkpt lat="43.68735" lon="1.42256">
        <ele>136.39999389648</ele>
        <time>2013-10-27T08:50:53.000Z</time>
      </trkpt>
      <trkpt lat="43.68746" lon="1.42265">
        <ele>136</ele>
        <time>2013-10-27T08:50:56.000Z</time>
      </trkpt>
      <trkpt lat="43.68749" lon="1.42268">
        <ele>135.80000305176</ele>
        <time>2013-10-27T08:50:57.000Z</time>
      </trkpt>
      <trkpt lat="43.68767" lon="1.42283">
        <ele>135.39999389648</ele>
        <time>2013-10-27T08:51:02.000Z</time>
      </trkpt>
      <trkpt lat="43.68786" lon="1.42298">
        <ele>135</ele>
        <time>2013-10-27T08:51:07.000Z</time>
      </trkpt>
      <trkpt lat="43.68803" lon="1.42312">
        <ele>134.80000305176</ele>
        <time>2013-10-27T08:51:12.000Z</time>
      </trkpt>
      <trkpt lat="43.68821" lon="1.4232">
        <ele>134.80000305176</ele>
        <time>2013-10-27T08:51:17.000Z</time>
      </trkpt>
      <trkpt lat="43.68838" lon="1.42311">
        <ele>134.80000305176</ele>
        <time>2013-10-27T08:51:22.000Z</time>
      </trkpt>
      <trkpt lat="43.68857" lon="1.42302">
        <ele>134.60000610352</ele>
        <time>2013-10-27T08:51:27.000Z</time>
      </trkpt>
      <trkpt lat="43.6887" lon="1.42282">
        <ele>134.60000610352</ele>
        <time>2013-10-27T08:51:32.000Z</time>
      </trkpt>
      <trkpt lat="43.68877" lon="1.42259">
        <ele>134.60000610352</ele>
        <time>2013-10-27T08:51:37.000Z</time>
      </trkpt>
      <trkpt lat="43.68882" lon="1.42233">
        <ele>134.60000610352</ele>
        <time>2013-10-27T08:51:42.000Z</time>
      </trkpt>
      <trkpt lat="43.68883" lon="1.42204">
        <ele>134.60000610352</ele>
        <time>2013-10-27T08:51:47.000Z</time>
      </trkpt>
      <trkpt lat="43.68882" lon="1.42193">
        <ele>134.60000610352</ele>
        <time>2013-10-27T08:51:49.000Z</time>
      </trkpt>
      <trkpt lat="43.68875" lon="1.42166">
        <ele>134.60000610352</ele>
        <time>2013-10-27T08:51:54.000Z</time>
      </trkpt>
      <trkpt lat="43.68872" lon="1.42144">
        <ele>134.60000610352</ele>
        <time>2013-10-27T08:51:58.000Z</time>
      </trkpt>
      <trkpt lat="43.6887" lon="1.4211">
        <ele>134.60000610352</ele>
        <time>2013-10-27T08:52:04.000Z</time>
      </trkpt>
      <trkpt lat="43.68866" lon="1.42088">
        <ele>134.60000610352</ele>
        <time>2013-10-27T08:52:08.000Z</time>
      </trkpt>
      <trkpt lat="43.68861" lon="1.42058">
        <ele>134.60000610352</ele>
        <time>2013-10-27T08:52:14.000Z</time>
      </trkpt>
      <trkpt lat="43.68855" lon="1.42033">
        <ele>134.60000610352</ele>
        <time>2013-10-27T08:52:19.000Z</time>
      </trkpt>
      <trkpt lat="43.68849" lon="1.42008">
        <ele>134.60000610352</ele>
        <time>2013-10-27T08:52:24.000Z</time>
      </trkpt>
      <trkpt lat="43.68843" lon="1.41981">
        <ele>134.60000610352</ele>
        <time>2013-10-27T08:52:29.000Z</time>
      </trkpt>
      <trkpt lat="43.68841" lon="1.4197">
        <ele>134.60000610352</ele>
        <time>2013-10-27T08:52:31.000Z</time>
      </trkpt>
      <trkpt lat="43.68832" lon="1.41933">
        <ele>134.60000610352</ele>
        <time>2013-10-27T08:52:38.000Z</time>
      </trkpt>
      <trkpt lat="43.68829" lon="1.41923">
        <ele>134.60000610352</ele>
        <time>2013-10-27T08:52:40.000Z</time>
      </trkpt>
      <trkpt lat="43.68823" lon="1.41897">
        <ele>134.60000610352</ele>
        <time>2013-10-27T08:52:45.000Z</time>
      </trkpt>
      <trkpt lat="43.6882" lon="1.41887">
        <ele>134.60000610352</ele>
        <time>2013-10-27T08:52:47.000Z</time>
      </trkpt>
      <trkpt lat="43.68813" lon="1.41856">
        <ele>134.60000610352</ele>
        <time>2013-10-27T08:52:53.000Z</time>
      </trkpt>
      <trkpt lat="43.68808" lon="1.41829">
        <ele>135.39999389648</ele>
        <time>2013-10-27T08:52:58.000Z</time>
      </trkpt>
      <trkpt lat="43.68806" lon="1.41802">
        <ele>136</ele>
        <time>2013-10-27T08:53:03.000Z</time>
      </trkpt>
      <trkpt lat="43.68806" lon="1.41773">
        <ele>136.39999389648</ele>
        <time>2013-10-27T08:53:08.000Z</time>
      </trkpt>
      <trkpt lat="43.68808" lon="1.41746">
        <ele>136.80000305176</ele>
        <time>2013-10-27T08:53:13.000Z</time>
      </trkpt>
      <trkpt lat="43.68808" lon="1.41716">
        <ele>137.80000305176</ele>
        <time>2013-10-27T08:53:18.000Z</time>
      </trkpt>
      <trkpt lat="43.68808" lon="1.4171">
        <ele>137.80000305176</ele>
        <time>2013-10-27T08:53:19.000Z</time>
      </trkpt>
      <trkpt lat="43.6881" lon="1.41681">
        <ele>138.80000305176</ele>
        <time>2013-10-27T08:53:24.000Z</time>
      </trkpt>
      <trkpt lat="43.6881" lon="1.41675">
        <ele>139</ele>
        <time>2013-10-27T08:53:25.000Z</time>
      </trkpt>
      <trkpt lat="43.68816" lon="1.4166">
        <ele>139.60000610352</ele>
        <time>2013-10-27T08:53:28.000Z</time>
      </trkpt>
      <trkpt lat="43.68822" lon="1.41651">
        <ele>139.80000305176</ele>
        <time>2013-10-27T08:53:30.000Z</time>
      </trkpt>
      <trkpt lat="43.68841" lon="1.41631">
        <ele>140.39999389648</ele>
        <time>2013-10-27T08:53:36.000Z</time>
      </trkpt>
      <trkpt lat="43.68851" lon="1.41621">
        <ele>140.60000610352</ele>
        <time>2013-10-27T08:53:39.000Z</time>
      </trkpt>
      <trkpt lat="43.68856" lon="1.41608">
        <ele>140.60000610352</ele>
        <time>2013-10-27T08:53:42.000Z</time>
      </trkpt>
      <trkpt lat="43.68849" lon="1.41589">
        <ele>140.80000305176</ele>
        <time>2013-10-27T08:53:46.000Z</time>
      </trkpt>
      <trkpt lat="43.68839" lon="1.41558">
        <ele>141</ele>
        <time>2013-10-27T08:53:52.000Z</time>
      </trkpt>
      <trkpt lat="43.68836" lon="1.41531">
        <ele>141</ele>
        <time>2013-10-27T08:53:57.000Z</time>
      </trkpt>
      <trkpt lat="43.68834" lon="1.41519">
        <ele>141</ele>
        <time>2013-10-27T08:53:59.000Z</time>
      </trkpt>
      <trkpt lat="43.68824" lon="1.4149">
        <ele>141</ele>
        <time>2013-10-27T08:54:05.000Z</time>
      </trkpt>
      <trkpt lat="43.68813" lon="1.41466">
        <ele>141</ele>
        <time>2013-10-27T08:54:10.000Z</time>
      </trkpt>
      <trkpt lat="43.68811" lon="1.41461">
        <ele>141</ele>
        <time>2013-10-27T08:54:11.000Z</time>
      </trkpt>
      <trkpt lat="43.68806" lon="1.41446">
        <ele>141</ele>
        <time>2013-10-27T08:54:14.000Z</time>
      </trkpt>
      <trkpt lat="43.68799" lon="1.41422">
        <ele>141</ele>
        <time>2013-10-27T08:54:19.000Z</time>
      </trkpt>
      <trkpt lat="43.68808" lon="1.41406">
        <ele>141</ele>
        <time>2013-10-27T08:54:22.000Z</time>
      </trkpt>
      <trkpt lat="43.68812" lon="1.41402">
        <ele>141</ele>
        <time>2013-10-27T08:54:23.000Z</time>
      </trkpt>
      <trkpt lat="43.68816" lon="1.41399">
        <ele>140.80000305176</ele>
        <time>2013-10-27T08:54:24.000Z</time>
      </trkpt>
      <trkpt lat="43.68824" lon="1.41393">
        <ele>140.39999389648</ele>
        <time>2013-10-27T08:54:26.000Z</time>
      </trkpt>
      <trkpt lat="43.68847" lon="1.41374">
        <ele>139.80000305176</ele>
        <time>2013-10-27T08:54:32.000Z</time>
      </trkpt>
      <trkpt lat="43.68855" lon="1.41368">
        <ele>139.60000610352</ele>
        <time>2013-10-27T08:54:34.000Z</time>
      </trkpt>
      <trkpt lat="43.68869" lon="1.41355">
        <ele>139.39999389648</ele>
        <time>2013-10-27T08:54:38.000Z</time>
      </trkpt>
      <trkpt lat="43.68879" lon="1.41346">
        <ele>139.39999389648</ele>
        <time>2013-10-27T08:54:41.000Z</time>
      </trkpt>
      <trkpt lat="43.68883" lon="1.41343">
        <ele>139.39999389648</ele>
        <time>2013-10-27T08:54:42.000Z</time>
      </trkpt>
      <trkpt lat="43.68887" lon="1.41341">
        <ele>139.19999694824</ele>
        <time>2013-10-27T08:54:43.000Z</time>
      </trkpt>
      <trkpt lat="43.68912" lon="1.41321">
        <ele>139.19999694824</ele>
        <time>2013-10-27T08:54:50.000Z</time>
      </trkpt>
      <trkpt lat="43.68929" lon="1.41307">
        <ele>139</ele>
        <time>2013-10-27T08:54:55.000Z</time>
      </trkpt>
      <trkpt lat="43.68946" lon="1.41293">
        <ele>139</ele>
        <time>2013-10-27T08:55:00.000Z</time>
      </trkpt>
      <trkpt lat="43.68964" lon="1.41278">
        <ele>139</ele>
        <time>2013-10-27T08:55:05.000Z</time>
      </trkpt>
      <trkpt lat="43.68967" lon="1.41275">
        <ele>139</ele>
        <time>2013-10-27T08:55:06.000Z</time>
      </trkpt>
      <trkpt lat="43.68988" lon="1.41258">
        <ele>139</ele>
        <time>2013-10-27T08:55:12.000Z</time>
      </trkpt>
      <trkpt lat="43.69004" lon="1.41243">
        <ele>139</ele>
        <time>2013-10-27T08:55:17.000Z</time>
      </trkpt>
      <trkpt lat="43.69021" lon="1.41227">
        <ele>139</ele>
        <time>2013-10-27T08:55:22.000Z</time>
      </trkpt>
      <trkpt lat="43.69034" lon="1.41215">
        <ele>139</ele>
        <time>2013-10-27T08:55:26.000Z</time>
      </trkpt>
      <trkpt lat="43.69052" lon="1.41202">
        <ele>139</ele>
        <time>2013-10-27T08:55:31.000Z</time>
      </trkpt>
      <trkpt lat="43.69074" lon="1.41187">
        <ele>139</ele>
        <time>2013-10-27T08:55:37.000Z</time>
      </trkpt>
      <trkpt lat="43.69091" lon="1.41174">
        <ele>139</ele>
        <time>2013-10-27T08:55:42.000Z</time>
      </trkpt>
      <trkpt lat="43.69099" lon="1.41163">
        <ele>139</ele>
        <time>2013-10-27T08:55:45.000Z</time>
      </trkpt>
      <trkpt lat="43.69118" lon="1.41168">
        <ele>139</ele>
        <time>2013-10-27T08:55:50.000Z</time>
      </trkpt>
      <trkpt lat="43.69137" lon="1.41182">
        <ele>138.19999694824</ele>
        <time>2013-10-27T08:55:55.000Z</time>
      </trkpt>
      <trkpt lat="43.69141" lon="1.41184">
        <ele>138</ele>
        <time>2013-10-27T08:55:56.000Z</time>
      </trkpt>
      <trkpt lat="43.69148" lon="1.41189">
        <ele>137.80000305176</ele>
        <time>2013-10-27T08:55:58.000Z</time>
      </trkpt>
      <trkpt lat="43.69168" lon="1.41201">
        <ele>137.39999389648</ele>
        <time>2013-10-27T08:56:03.000Z</time>
      </trkpt>
      <trkpt lat="43.69171" lon="1.41204">
        <ele>137.39999389648</ele>
        <time>2013-10-27T08:56:04.000Z</time>
      </trkpt>
      <trkpt lat="43.69178" lon="1.4121">
        <ele>137.39999389648</ele>
        <time>2013-10-27T08:56:06.000Z</time>
      </trkpt>
      <trkpt lat="43.69198" lon="1.41232">
        <ele>136.60000610352</ele>
        <time>2013-10-27T08:56:12.000Z</time>
      </trkpt>
      <trkpt lat="43.69201" lon="1.41236">
        <ele>136.39999389648</ele>
        <time>2013-10-27T08:56:13.000Z</time>
      </trkpt>
      <trkpt lat="43.69213" lon="1.41255">
        <ele>136</ele>
        <time>2013-10-27T08:56:17.000Z</time>
      </trkpt>
      <trkpt lat="43.6922" lon="1.4127">
        <ele>135.60000610352</ele>
        <time>2013-10-27T08:56:20.000Z</time>
      </trkpt>
      <trkpt lat="43.69228" lon="1.4129">
        <ele>135.39999389648</ele>
        <time>2013-10-27T08:56:24.000Z</time>
      </trkpt>
      <trkpt lat="43.69237" lon="1.4131">
        <ele>135.19999694824</ele>
        <time>2013-10-27T08:56:28.000Z</time>
      </trkpt>
      <trkpt lat="43.69249" lon="1.41335">
        <ele>135.19999694824</ele>
        <time>2013-10-27T08:56:34.000Z</time>
      </trkpt>
      <trkpt lat="43.69262" lon="1.41351">
        <ele>135</ele>
        <time>2013-10-27T08:56:38.000Z</time>
      </trkpt>
      <trkpt lat="43.69274" lon="1.41377">
        <ele>135</ele>
        <time>2013-10-27T08:56:43.000Z</time>
      </trkpt>
      <trkpt lat="43.69288" lon="1.41406">
        <ele>135</ele>
        <time>2013-10-27T08:56:49.000Z</time>
      </trkpt>
      <trkpt lat="43.69298" lon="1.41432">
        <ele>135</ele>
        <time>2013-10-27T08:56:54.000Z</time>
      </trkpt>
      <trkpt lat="43.69306" lon="1.41458">
        <ele>135</ele>
        <time>2013-10-27T08:56:59.000Z</time>
      </trkpt>
      <trkpt lat="43.69314" lon="1.41483">
        <ele>135</ele>
        <time>2013-10-27T08:57:04.000Z</time>
      </trkpt>
      <trkpt lat="43.69322" lon="1.41509">
        <ele>135</ele>
        <time>2013-10-27T08:57:09.000Z</time>
      </trkpt>
      <trkpt lat="43.69326" lon="1.41525">
        <ele>135</ele>
        <time>2013-10-27T08:57:12.000Z</time>
      </trkpt>
      <trkpt lat="43.69331" lon="1.41546">
        <ele>135</ele>
        <time>2013-10-27T08:57:16.000Z</time>
      </trkpt>
      <trkpt lat="43.69334" lon="1.4158">
        <ele>135</ele>
        <time>2013-10-27T08:57:22.000Z</time>
      </trkpt>
      <trkpt lat="43.69336" lon="1.41597">
        <ele>135</ele>
        <time>2013-10-27T08:57:25.000Z</time>
      </trkpt>
      <trkpt lat="43.69336" lon="1.4162">
        <ele>135</ele>
        <time>2013-10-27T08:57:29.000Z</time>
      </trkpt>
      <trkpt lat="43.69331" lon="1.41653">
        <ele>135</ele>
        <time>2013-10-27T08:57:35.000Z</time>
      </trkpt>
      <trkpt lat="43.6933" lon="1.4166">
        <ele>135</ele>
        <time>2013-10-27T08:57:36.000Z</time>
      </trkpt>
      <trkpt lat="43.69327" lon="1.41676">
        <ele>135</ele>
        <time>2013-10-27T08:57:39.000Z</time>
      </trkpt>
      <trkpt lat="43.69324" lon="1.41687">
        <ele>135</ele>
        <time>2013-10-27T08:57:41.000Z</time>
      </trkpt>
      <trkpt lat="43.69317" lon="1.4171">
        <ele>135</ele>
        <time>2013-10-27T08:57:45.000Z</time>
      </trkpt>
      <trkpt lat="43.69312" lon="1.41726">
        <ele>135</ele>
        <time>2013-10-27T08:57:48.000Z</time>
      </trkpt>
      <trkpt lat="43.69307" lon="1.41748">
        <ele>135</ele>
        <time>2013-10-27T08:57:52.000Z</time>
      </trkpt>
      <trkpt lat="43.693" lon="1.41779">
        <ele>135</ele>
        <time>2013-10-27T08:57:58.000Z</time>
      </trkpt>
      <trkpt lat="43.69295" lon="1.41793">
        <ele>135</ele>
        <time>2013-10-27T08:58:01.000Z</time>
      </trkpt>
      <trkpt lat="43.69294" lon="1.41798">
        <ele>135</ele>
        <time>2013-10-27T08:58:02.000Z</time>
      </trkpt>
      <trkpt lat="43.69288" lon="1.41818">
        <ele>134.60000610352</ele>
        <time>2013-10-27T08:58:06.000Z</time>
      </trkpt>
      <trkpt lat="43.69284" lon="1.41844">
        <ele>133.80000305176</ele>
        <time>2013-10-27T08:58:11.000Z</time>
      </trkpt>
      <trkpt lat="43.69277" lon="1.41871">
        <ele>133.39999389648</ele>
        <time>2013-10-27T08:58:16.000Z</time>
      </trkpt>
      <trkpt lat="43.69273" lon="1.41881">
        <ele>133.39999389648</ele>
        <time>2013-10-27T08:58:18.000Z</time>
      </trkpt>
      <trkpt lat="43.69269" lon="1.41896">
        <ele>133.19999694824</ele>
        <time>2013-10-27T08:58:21.000Z</time>
      </trkpt>
      <trkpt lat="43.69263" lon="1.41922">
        <ele>132.60000610352</ele>
        <time>2013-10-27T08:58:26.000Z</time>
      </trkpt>
      <trkpt lat="43.69255" lon="1.41947">
        <ele>131.80000305176</ele>
        <time>2013-10-27T08:58:31.000Z</time>
      </trkpt>
      <trkpt lat="43.69246" lon="1.41973">
        <ele>131.39999389648</ele>
        <time>2013-10-27T08:58:36.000Z</time>
      </trkpt>
      <trkpt lat="43.69239" lon="1.41998">
        <ele>130.60000610352</ele>
        <time>2013-10-27T08:58:41.000Z</time>
      </trkpt>
      <trkpt lat="43.69237" lon="1.42003">
        <ele>130.39999389648</ele>
        <time>2013-10-27T08:58:42.000Z</time>
      </trkpt>
      <trkpt lat="43.69228" lon="1.42031">
        <ele>129.60000610352</ele>
        <time>2013-10-27T08:58:48.000Z</time>
      </trkpt>
      <trkpt lat="43.6922" lon="1.42054">
        <ele>129.19999694824</ele>
        <time>2013-10-27T08:58:53.000Z</time>
      </trkpt>
      <trkpt lat="43.69213" lon="1.42077">
        <ele>129</ele>
        <time>2013-10-27T08:58:58.000Z</time>
      </trkpt>
      <trkpt lat="43.69204" lon="1.42102">
        <ele>128.80000305176</ele>
        <time>2013-10-27T08:59:03.000Z</time>
      </trkpt>
      <trkpt lat="43.69196" lon="1.42121">
        <ele>128.39999389648</ele>
        <time>2013-10-27T08:59:07.000Z</time>
      </trkpt>
      <trkpt lat="43.69185" lon="1.42148">
        <ele>127.80000305176</ele>
        <time>2013-10-27T08:59:12.000Z</time>
      </trkpt>
      <trkpt lat="43.69183" lon="1.42153">
        <ele>127.59999847412</ele>
        <time>2013-10-27T08:59:13.000Z</time>
      </trkpt>
      <trkpt lat="43.69169" lon="1.42177">
        <ele>127.19999694824</ele>
        <time>2013-10-27T08:59:19.000Z</time>
      </trkpt>
      <trkpt lat="43.69155" lon="1.42197">
        <ele>127</ele>
        <time>2013-10-27T08:59:24.000Z</time>
      </trkpt>
      <trkpt lat="43.69139" lon="1.42215">
        <ele>126.80000305176</ele>
        <time>2013-10-27T08:59:29.000Z</time>
      </trkpt>
      <trkpt lat="43.69132" lon="1.42221">
        <ele>126.80000305176</ele>
        <time>2013-10-27T08:59:31.000Z</time>
      </trkpt>
      <trkpt lat="43.69125" lon="1.42227">
        <ele>126.80000305176</ele>
        <time>2013-10-27T08:59:33.000Z</time>
      </trkpt>
      <trkpt lat="43.691" lon="1.42244">
        <ele>126.80000305176</ele>
        <time>2013-10-27T08:59:40.000Z</time>
      </trkpt>
      <trkpt lat="43.69096" lon="1.42246">
        <ele>126.80000305176</ele>
        <time>2013-10-27T08:59:41.000Z</time>
      </trkpt>
      <trkpt lat="43.69076" lon="1.42254">
        <ele>126.40000152588</ele>
        <time>2013-10-27T08:59:46.000Z</time>
      </trkpt>
      <trkpt lat="43.69069" lon="1.42257">
        <ele>126</ele>
        <time>2013-10-27T08:59:48.000Z</time>
      </trkpt>
      <trkpt lat="43.69047" lon="1.42266">
        <ele>125.40000152588</ele>
        <time>2013-10-27T08:59:54.000Z</time>
      </trkpt>
      <trkpt lat="43.69028" lon="1.42272">
        <ele>125</ele>
        <time>2013-10-27T08:59:59.000Z</time>
      </trkpt>
      <trkpt lat="43.69009" lon="1.42278">
        <ele>124.80000305176</ele>
        <time>2013-10-27T09:00:04.000Z</time>
      </trkpt>
      <trkpt lat="43.6899" lon="1.42284">
        <ele>124.80000305176</ele>
        <time>2013-10-27T09:00:09.000Z</time>
      </trkpt>
      <trkpt lat="43.68972" lon="1.42289">
        <ele>124.40000152588</ele>
        <time>2013-10-27T09:00:14.000Z</time>
      </trkpt>
      <trkpt lat="43.68953" lon="1.42296">
        <ele>123.59999847412</ele>
        <time>2013-10-27T09:00:19.000Z</time>
      </trkpt>
      <trkpt lat="43.68934" lon="1.42301">
        <ele>123.19999694824</ele>
        <time>2013-10-27T09:00:24.000Z</time>
      </trkpt>
      <trkpt lat="43.68915" lon="1.42307">
        <ele>123</ele>
        <time>2013-10-27T09:00:29.000Z</time>
      </trkpt>
      <trkpt lat="43.68896" lon="1.42311">
        <ele>122.40000152588</ele>
        <time>2013-10-27T09:00:34.000Z</time>
      </trkpt>
      <trkpt lat="43.68881" lon="1.42314">
        <ele>121.80000305176</ele>
        <time>2013-10-27T09:00:38.000Z</time>
      </trkpt>
      <trkpt lat="43.68867" lon="1.42328">
        <ele>121.19999694824</ele>
        <time>2013-10-27T09:00:43.000Z</time>
      </trkpt>
      <trkpt lat="43.68863" lon="1.42347">
        <ele>121</ele>
        <time>2013-10-27T09:00:47.000Z</time>
      </trkpt>
      <trkpt lat="43.68868" lon="1.42372">
        <ele>120.80000305176</ele>
        <time>2013-10-27T09:00:52.000Z</time>
      </trkpt>
      <trkpt lat="43.68879" lon="1.42385">
        <ele>120.80000305176</ele>
        <time>2013-10-27T09:00:56.000Z</time>
      </trkpt>
      <trkpt lat="43.68896" lon="1.42398">
        <ele>120.59999847412</ele>
        <time>2013-10-27T09:01:01.000Z</time>
      </trkpt>
      <trkpt lat="43.68913" lon="1.42411">
        <ele>120.59999847412</ele>
        <time>2013-10-27T09:01:06.000Z</time>
      </trkpt>
      <trkpt lat="43.68931" lon="1.42423">
        <ele>120.59999847412</ele>
        <time>2013-10-27T09:01:11.000Z</time>
      </trkpt>
      <trkpt lat="43.68948" lon="1.42436">
        <ele>120.59999847412</ele>
        <time>2013-10-27T09:01:16.000Z</time>
      </trkpt>
      <trkpt lat="43.68966" lon="1.42448">
        <ele>120.59999847412</ele>
        <time>2013-10-27T09:01:21.000Z</time>
      </trkpt>
      <trkpt lat="43.68982" lon="1.42461">
        <ele>121.40000152588</ele>
        <time>2013-10-27T09:01:26.000Z</time>
      </trkpt>
      <trkpt lat="43.68999" lon="1.42475">
        <ele>121.80000305176</ele>
        <time>2013-10-27T09:01:31.000Z</time>
      </trkpt>
      <trkpt lat="43.69016" lon="1.42488">
        <ele>122.19999694824</ele>
        <time>2013-10-27T09:01:36.000Z</time>
      </trkpt>
      <trkpt lat="43.69031" lon="1.42497">
        <ele>122.40000152588</ele>
        <time>2013-10-27T09:01:40.000Z</time>
      </trkpt>
      <trkpt lat="43.69051" lon="1.42513">
        <ele>122.80000305176</ele>
        <time>2013-10-27T09:01:46.000Z</time>
      </trkpt>
      <trkpt lat="43.69055" lon="1.42515">
        <ele>123</ele>
        <time>2013-10-27T09:01:47.000Z</time>
      </trkpt>
      <trkpt lat="43.69071" lon="1.42531">
        <ele>123.59999847412</ele>
        <time>2013-10-27T09:01:52.000Z</time>
      </trkpt>
      <trkpt lat="43.69085" lon="1.4255">
        <ele>124</ele>
        <time>2013-10-27T09:01:57.000Z</time>
      </trkpt>
      <trkpt lat="43.69088" lon="1.42555">
        <ele>124.19999694824</ele>
        <time>2013-10-27T09:01:58.000Z</time>
      </trkpt>
      <trkpt lat="43.69094" lon="1.42571">
        <ele>124.19999694824</ele>
        <time>2013-10-27T09:02:01.000Z</time>
      </trkpt>
      <trkpt lat="43.69097" lon="1.42582">
        <ele>124.40000152588</ele>
        <time>2013-10-27T09:02:03.000Z</time>
      </trkpt>
      <trkpt lat="43.69101" lon="1.42598">
        <ele>125</ele>
        <time>2013-10-27T09:02:06.000Z</time>
      </trkpt>
      <trkpt lat="43.69104" lon="1.42609">
        <ele>125.19999694824</ele>
        <time>2013-10-27T09:02:08.000Z</time>
      </trkpt>
      <trkpt lat="43.6911" lon="1.4263">
        <ele>125.80000305176</ele>
        <time>2013-10-27T09:02:12.000Z</time>
      </trkpt>
      <trkpt lat="43.69113" lon="1.42641">
        <ele>126</ele>
        <time>2013-10-27T09:02:14.000Z</time>
      </trkpt>
      <trkpt lat="43.69123" lon="1.42668">
        <ele>126.59999847412</ele>
        <time>2013-10-27T09:02:20.000Z</time>
      </trkpt>
      <trkpt lat="43.69131" lon="1.42671">
        <ele>127</ele>
        <time>2013-10-27T09:02:22.000Z</time>
      </trkpt>
      <trkpt lat="43.69154" lon="1.42679">
        <ele>127.80000305176</ele>
        <time>2013-10-27T09:02:28.000Z</time>
      </trkpt>
      <trkpt lat="43.69193" lon="1.42713">
        <ele>129.39999389648</ele>
        <time>2013-10-27T09:02:41.000Z</time>
      </trkpt>
      <trkpt lat="43.69209" lon="1.42728">
        <ele>130</ele>
        <time>2013-10-27T09:02:46.000Z</time>
      </trkpt>
      <trkpt lat="43.69224" lon="1.42743">
        <ele>130.19999694824</ele>
        <time>2013-10-27T09:02:51.000Z</time>
      </trkpt>
      <trkpt lat="43.6924" lon="1.42757">
        <ele>130.39999389648</ele>
        <time>2013-10-27T09:02:56.000Z</time>
      </trkpt>
      <trkpt lat="43.69251" lon="1.42765">
        <ele>130.60000610352</ele>
        <time>2013-10-27T09:03:00.000Z</time>
      </trkpt>
      <trkpt lat="43.6927" lon="1.4277">
        <ele>130.60000610352</ele>
        <time>2013-10-27T09:03:05.000Z</time>
      </trkpt>
      <trkpt lat="43.69288" lon="1.42774">
        <ele>130.80000305176</ele>
        <time>2013-10-27T09:03:10.000Z</time>
      </trkpt>
      <trkpt lat="43.69306" lon="1.4278">
        <ele>130.80000305176</ele>
        <time>2013-10-27T09:03:15.000Z</time>
      </trkpt>
      <trkpt lat="43.69324" lon="1.42786">
        <ele>130.80000305176</ele>
        <time>2013-10-27T09:03:20.000Z</time>
      </trkpt>
      <trkpt lat="43.6934" lon="1.42789">
        <ele>130.80000305176</ele>
        <time>2013-10-27T09:03:24.000Z</time>
      </trkpt>
      <trkpt lat="43.69355" lon="1.42794">
        <ele>130.80000305176</ele>
        <time>2013-10-27T09:03:28.000Z</time>
      </trkpt>
      <trkpt lat="43.69364" lon="1.42797">
        <ele>130.80000305176</ele>
        <time>2013-10-27T09:03:30.000Z</time>
      </trkpt>
      <trkpt lat="43.69372" lon="1.428">
        <ele>130.80000305176</ele>
        <time>2013-10-27T09:03:32.000Z</time>
      </trkpt>
      <trkpt lat="43.69395" lon="1.4281">
        <ele>130.80000305176</ele>
        <time>2013-10-27T09:03:38.000Z</time>
      </trkpt>
      <trkpt lat="43.69413" lon="1.42818">
        <ele>130.80000305176</ele>
        <time>2013-10-27T09:03:43.000Z</time>
      </trkpt>
      <trkpt lat="43.69427" lon="1.42824">
        <ele>130.80000305176</ele>
        <time>2013-10-27T09:03:47.000Z</time>
      </trkpt>
      <trkpt lat="43.69446" lon="1.42833">
        <ele>130.80000305176</ele>
        <time>2013-10-27T09:03:52.000Z</time>
      </trkpt>
      <trkpt lat="43.69464" lon="1.42837">
        <ele>131.39999389648</ele>
        <time>2013-10-27T09:03:57.000Z</time>
      </trkpt>
      <trkpt lat="43.69484" lon="1.4284">
        <ele>132</ele>
        <time>2013-10-27T09:04:02.000Z</time>
      </trkpt>
      <trkpt lat="43.69504" lon="1.42846">
        <ele>132.19999694824</ele>
        <time>2013-10-27T09:04:07.000Z</time>
      </trkpt>
      <trkpt lat="43.69522" lon="1.4285">
        <ele>132.60000610352</ele>
        <time>2013-10-27T09:04:12.000Z</time>
      </trkpt>
      <trkpt lat="43.69541" lon="1.4285">
        <ele>132.60000610352</ele>
        <time>2013-10-27T09:04:17.000Z</time>
      </trkpt>
      <trkpt lat="43.69562" lon="1.42851">
        <ele>132.80000305176</ele>
        <time>2013-10-27T09:04:22.000Z</time>
      </trkpt>
      <trkpt lat="43.69581" lon="1.42848">
        <ele>132.80000305176</ele>
        <time>2013-10-27T09:04:27.000Z</time>
      </trkpt>
      <trkpt lat="43.69599" lon="1.42842">
        <ele>132.80000305176</ele>
        <time>2013-10-27T09:04:32.000Z</time>
      </trkpt>
      <trkpt lat="43.69617" lon="1.4283">
        <ele>132.80000305176</ele>
        <time>2013-10-27T09:04:37.000Z</time>
      </trkpt>
      <trkpt lat="43.69637" lon="1.42827">
        <ele>132.80000305176</ele>
        <time>2013-10-27T09:04:42.000Z</time>
      </trkpt>
      <trkpt lat="43.69658" lon="1.42827">
        <ele>132.80000305176</ele>
        <time>2013-10-27T09:04:47.000Z</time>
      </trkpt>
      <trkpt lat="43.69666" lon="1.42829">
        <ele>132.80000305176</ele>
        <time>2013-10-27T09:04:49.000Z</time>
      </trkpt>
      <trkpt lat="43.69689" lon="1.42835">
        <ele>132.80000305176</ele>
        <time>2013-10-27T09:04:55.000Z</time>
      </trkpt>
      <trkpt lat="43.69708" lon="1.42842">
        <ele>132.80000305176</ele>
        <time>2013-10-27T09:05:00.000Z</time>
      </trkpt>
      <trkpt lat="43.69725" lon="1.42853">
        <ele>132.60000610352</ele>
        <time>2013-10-27T09:05:05.000Z</time>
      </trkpt>
      <trkpt lat="43.69743" lon="1.42864">
        <ele>131.80000305176</ele>
        <time>2013-10-27T09:05:10.000Z</time>
      </trkpt>
      <trkpt lat="43.69761" lon="1.42876">
        <ele>131.39999389648</ele>
        <time>2013-10-27T09:05:15.000Z</time>
      </trkpt>
      <trkpt lat="43.69778" lon="1.42885">
        <ele>131</ele>
        <time>2013-10-27T09:05:20.000Z</time>
      </trkpt>
      <trkpt lat="43.69794" lon="1.42898">
        <ele>131</ele>
        <time>2013-10-27T09:05:25.000Z</time>
      </trkpt>
      <trkpt lat="43.69809" lon="1.42916">
        <ele>130.80000305176</ele>
        <time>2013-10-27T09:05:30.000Z</time>
      </trkpt>
      <trkpt lat="43.69825" lon="1.4293">
        <ele>130.80000305176</ele>
        <time>2013-10-27T09:05:35.000Z</time>
      </trkpt>
      <trkpt lat="43.69845" lon="1.42937">
        <ele>130.80000305176</ele>
        <time>2013-10-27T09:05:40.000Z</time>
      </trkpt>
      <trkpt lat="43.69865" lon="1.42937">
        <ele>130.80000305176</ele>
        <time>2013-10-27T09:05:45.000Z</time>
      </trkpt>
      <trkpt lat="43.69883" lon="1.42938">
        <ele>130.80000305176</ele>
        <time>2013-10-27T09:05:50.000Z</time>
      </trkpt>
      <trkpt lat="43.69902" lon="1.42943">
        <ele>130.60000610352</ele>
        <time>2013-10-27T09:05:55.000Z</time>
      </trkpt>
      <trkpt lat="43.69921" lon="1.4295">
        <ele>130.60000610352</ele>
        <time>2013-10-27T09:06:00.000Z</time>
      </trkpt>
      <trkpt lat="43.69925" lon="1.42952">
        <ele>130.60000610352</ele>
        <time>2013-10-27T09:06:01.000Z</time>
      </trkpt>
      <trkpt lat="43.69938" lon="1.4296">
        <ele>130.60000610352</ele>
        <time>2013-10-27T09:06:05.000Z</time>
      </trkpt>
      <trkpt lat="43.69955" lon="1.42971">
        <ele>130.60000610352</ele>
        <time>2013-10-27T09:06:10.000Z</time>
      </trkpt>
      <trkpt lat="43.69973" lon="1.42983">
        <ele>130.60000610352</ele>
        <time>2013-10-27T09:06:15.000Z</time>
      </trkpt>
      <trkpt lat="43.69987" lon="1.42992">
        <ele>130.60000610352</ele>
        <time>2013-10-27T09:06:19.000Z</time>
      </trkpt>
      <trkpt lat="43.70004" lon="1.43005">
        <ele>130.60000610352</ele>
        <time>2013-10-27T09:06:24.000Z</time>
      </trkpt>
      <trkpt lat="43.7002" lon="1.43017">
        <ele>130.60000610352</ele>
        <time>2013-10-27T09:06:29.000Z</time>
      </trkpt>
      <trkpt lat="43.70037" lon="1.43028">
        <ele>130.60000610352</ele>
        <time>2013-10-27T09:06:34.000Z</time>
      </trkpt>
      <trkpt lat="43.70055" lon="1.43038">
        <ele>130.60000610352</ele>
        <time>2013-10-27T09:06:39.000Z</time>
      </trkpt>
      <trkpt lat="43.70069" lon="1.43074">
        <ele>130.60000610352</ele>
        <time>2013-10-27T09:06:48.000Z</time>
      </trkpt>
      <trkpt lat="43.70065" lon="1.43091">
        <ele>130.60000610352</ele>
        <time>2013-10-27T09:06:51.000Z</time>
      </trkpt>
      <trkpt lat="43.70053" lon="1.4312">
        <ele>130.60000610352</ele>
        <time>2013-10-27T09:06:57.000Z</time>
      </trkpt>
      <trkpt lat="43.70049" lon="1.43131">
        <ele>130.60000610352</ele>
        <time>2013-10-27T09:06:59.000Z</time>
      </trkpt>
      <trkpt lat="43.70033" lon="1.43153">
        <ele>130.60000610352</ele>
        <time>2013-10-27T09:07:05.000Z</time>
      </trkpt>
      <trkpt lat="43.70018" lon="1.4317">
        <ele>130.60000610352</ele>
        <time>2013-10-27T09:07:10.000Z</time>
      </trkpt>
      <trkpt lat="43.70002" lon="1.43185">
        <ele>130.60000610352</ele>
        <time>2013-10-27T09:07:15.000Z</time>
      </trkpt>
      <trkpt lat="43.69987" lon="1.43199">
        <ele>130.60000610352</ele>
        <time>2013-10-27T09:07:20.000Z</time>
      </trkpt>
      <trkpt lat="43.69972" lon="1.43214">
        <ele>130.60000610352</ele>
        <time>2013-10-27T09:07:25.000Z</time>
      </trkpt>
      <trkpt lat="43.69959" lon="1.43231">
        <ele>129.80000305176</ele>
        <time>2013-10-27T09:07:30.000Z</time>
      </trkpt>
      <trkpt lat="43.69944" lon="1.43253">
        <ele>129.19999694824</ele>
        <time>2013-10-27T09:07:36.000Z</time>
      </trkpt>
      <trkpt lat="43.69932" lon="1.43274">
        <ele>129</ele>
        <time>2013-10-27T09:07:41.000Z</time>
      </trkpt>
      <trkpt lat="43.69901" lon="1.43303">
        <ele>128.80000305176</ele>
        <time>2013-10-27T09:07:51.000Z</time>
      </trkpt>
      <trkpt lat="43.69898" lon="1.43306">
        <ele>128.80000305176</ele>
        <time>2013-10-27T09:07:52.000Z</time>
      </trkpt>
      <trkpt lat="43.69885" lon="1.43324">
        <ele>128.60000610352</ele>
        <time>2013-10-27T09:07:57.000Z</time>
      </trkpt>
      <trkpt lat="43.69873" lon="1.43344">
        <ele>127.80000305176</ele>
        <time>2013-10-27T09:08:02.000Z</time>
      </trkpt>
      <trkpt lat="43.69862" lon="1.43366">
        <ele>127.19999694824</ele>
        <time>2013-10-27T09:08:07.000Z</time>
      </trkpt>
      <trkpt lat="43.69852" lon="1.43388">
        <ele>127</ele>
        <time>2013-10-27T09:08:12.000Z</time>
      </trkpt>
      <trkpt lat="43.69841" lon="1.4341">
        <ele>126.80000305176</ele>
        <time>2013-10-27T09:08:17.000Z</time>
      </trkpt>
      <trkpt lat="43.6983" lon="1.43432">
        <ele>126.80000305176</ele>
        <time>2013-10-27T09:08:22.000Z</time>
      </trkpt>
      <trkpt lat="43.69823" lon="1.43448">
        <ele>126.80000305176</ele>
        <time>2013-10-27T09:08:26.000Z</time>
      </trkpt>
      <trkpt lat="43.69811" lon="1.43469">
        <ele>126.59999847412</ele>
        <time>2013-10-27T09:08:31.000Z</time>
      </trkpt>
      <trkpt lat="43.69794" lon="1.43487">
        <ele>126.59999847412</ele>
        <time>2013-10-27T09:08:37.000Z</time>
      </trkpt>
      <trkpt lat="43.6978" lon="1.43504">
        <ele>126.59999847412</ele>
        <time>2013-10-27T09:08:42.000Z</time>
      </trkpt>
      <trkpt lat="43.69765" lon="1.43521">
        <ele>126.59999847412</ele>
        <time>2013-10-27T09:08:47.000Z</time>
      </trkpt>
      <trkpt lat="43.69751" lon="1.43536">
        <ele>126.59999847412</ele>
        <time>2013-10-27T09:08:52.000Z</time>
      </trkpt>
      <trkpt lat="43.69735" lon="1.43551">
        <ele>126.59999847412</ele>
        <time>2013-10-27T09:08:57.000Z</time>
      </trkpt>
      <trkpt lat="43.6972" lon="1.43566">
        <ele>126.59999847412</ele>
        <time>2013-10-27T09:09:02.000Z</time>
      </trkpt>
      <trkpt lat="43.69706" lon="1.4358">
        <ele>126.59999847412</ele>
        <time>2013-10-27T09:09:07.000Z</time>
      </trkpt>
      <trkpt lat="43.69691" lon="1.43596">
        <ele>126.59999847412</ele>
        <time>2013-10-27T09:09:12.000Z</time>
      </trkpt>
      <trkpt lat="43.69678" lon="1.43608">
        <ele>126.59999847412</ele>
        <time>2013-10-27T09:09:16.000Z</time>
      </trkpt>
      <trkpt lat="43.69664" lon="1.43625">
        <ele>126.59999847412</ele>
        <time>2013-10-27T09:09:21.000Z</time>
      </trkpt>
      <trkpt lat="43.69652" lon="1.43637">
        <ele>126.59999847412</ele>
        <time>2013-10-27T09:09:25.000Z</time>
      </trkpt>
      <trkpt lat="43.69636" lon="1.43646">
        <ele>126.59999847412</ele>
        <time>2013-10-27T09:09:30.000Z</time>
      </trkpt>
      <trkpt lat="43.69628" lon="1.43643">
        <ele>126.59999847412</ele>
        <time>2013-10-27T09:09:32.000Z</time>
      </trkpt>
      <trkpt lat="43.69613" lon="1.43603">
        <ele>126.59999847412</ele>
        <time>2013-10-27T09:09:40.000Z</time>
      </trkpt>
      <trkpt lat="43.69612" lon="1.43598">
        <ele>126.59999847412</ele>
        <time>2013-10-27T09:09:41.000Z</time>
      </trkpt>
      <trkpt lat="43.69609" lon="1.43576">
        <ele>126.59999847412</ele>
        <time>2013-10-27T09:09:45.000Z</time>
      </trkpt>
      <trkpt lat="43.69604" lon="1.43543">
        <ele>126.59999847412</ele>
        <time>2013-10-27T09:09:51.000Z</time>
      </trkpt>
      <trkpt lat="43.696" lon="1.43522">
        <ele>127.40000152588</ele>
        <time>2013-10-27T09:09:55.000Z</time>
      </trkpt>
      <trkpt lat="43.69598" lon="1.43511">
        <ele>127.59999847412</ele>
        <time>2013-10-27T09:09:57.000Z</time>
      </trkpt>
      <trkpt lat="43.69595" lon="1.4349">
        <ele>128</ele>
        <time>2013-10-27T09:10:01.000Z</time>
      </trkpt>
      <trkpt lat="43.6959" lon="1.43464">
        <ele>128.19999694824</ele>
        <time>2013-10-27T09:10:06.000Z</time>
      </trkpt>
      <trkpt lat="43.69587" lon="1.43444">
        <ele>128.39999389648</ele>
        <time>2013-10-27T09:10:10.000Z</time>
      </trkpt>
      <trkpt lat="43.69582" lon="1.43417">
        <ele>128.60000610352</ele>
        <time>2013-10-27T09:10:15.000Z</time>
      </trkpt>
      <trkpt lat="43.69578" lon="1.43391">
        <ele>128.60000610352</ele>
        <time>2013-10-27T09:10:20.000Z</time>
      </trkpt>
      <trkpt lat="43.69569" lon="1.43367">
        <ele>128.60000610352</ele>
        <time>2013-10-27T09:10:25.000Z</time>
      </trkpt>
      <trkpt lat="43.69557" lon="1.4335">
        <ele>129.39999389648</ele>
        <time>2013-10-27T09:10:30.000Z</time>
      </trkpt>
      <trkpt lat="43.69547" lon="1.4334">
        <ele>129.80000305176</ele>
        <time>2013-10-27T09:10:34.000Z</time>
      </trkpt>
      <trkpt lat="43.69534" lon="1.4333">
        <ele>130.19999694824</ele>
        <time>2013-10-27T09:10:38.000Z</time>
      </trkpt>
      <trkpt lat="43.69512" lon="1.43313">
        <ele>130.39999389648</ele>
        <time>2013-10-27T09:10:44.000Z</time>
      </trkpt>
      <trkpt lat="43.69498" lon="1.43302">
        <ele>130.80000305176</ele>
        <time>2013-10-27T09:10:48.000Z</time>
      </trkpt>
      <trkpt lat="43.69479" lon="1.43286">
        <ele>131.60000610352</ele>
        <time>2013-10-27T09:10:54.000Z</time>
      </trkpt>
      <trkpt lat="43.69467" lon="1.43275">
        <ele>132</ele>
        <time>2013-10-27T09:10:58.000Z</time>
      </trkpt>
      <trkpt lat="43.69452" lon="1.43261">
        <ele>132.39999389648</ele>
        <time>2013-10-27T09:11:03.000Z</time>
      </trkpt>
      <trkpt lat="43.69437" lon="1.43248">
        <ele>132.60000610352</ele>
        <time>2013-10-27T09:11:08.000Z</time>
      </trkpt>
      <trkpt lat="43.69425" lon="1.43246">
        <ele>133.19999694824</ele>
        <time>2013-10-27T09:11:12.000Z</time>
      </trkpt>
      <trkpt lat="43.69404" lon="1.43254">
        <ele>134</ele>
        <time>2013-10-27T09:11:18.000Z</time>
      </trkpt>
      <trkpt lat="43.69384" lon="1.4326">
        <ele>134.39999389648</ele>
        <time>2013-10-27T09:11:24.000Z</time>
      </trkpt>
      <trkpt lat="43.69365" lon="1.43265">
        <ele>134.60000610352</ele>
        <time>2013-10-27T09:11:29.000Z</time>
      </trkpt>
      <trkpt lat="43.69351" lon="1.43267">
        <ele>134.60000610352</ele>
        <time>2013-10-27T09:11:33.000Z</time>
      </trkpt>
      <trkpt lat="43.69323" lon="1.43261">
        <ele>134.80000305176</ele>
        <time>2013-10-27T09:11:40.000Z</time>
      </trkpt>
      <trkpt lat="43.69315" lon="1.43259">
        <ele>134.80000305176</ele>
        <time>2013-10-27T09:11:42.000Z</time>
      </trkpt>
      <trkpt lat="43.69293" lon="1.43255">
        <ele>134.80000305176</ele>
        <time>2013-10-27T09:11:48.000Z</time>
      </trkpt>
      <trkpt lat="43.6928" lon="1.43249">
        <ele>134.80000305176</ele>
        <time>2013-10-27T09:11:52.000Z</time>
      </trkpt>
      <trkpt lat="43.6926" lon="1.43244">
        <ele>134.80000305176</ele>
        <time>2013-10-27T09:11:57.000Z</time>
      </trkpt>
      <trkpt lat="43.69241" lon="1.43239">
        <ele>134.80000305176</ele>
        <time>2013-10-27T09:12:02.000Z</time>
      </trkpt>
      <trkpt lat="43.69224" lon="1.43234">
        <ele>134.80000305176</ele>
        <time>2013-10-27T09:12:07.000Z</time>
      </trkpt>
      <trkpt lat="43.69206" lon="1.43229">
        <ele>134.80000305176</ele>
        <time>2013-10-27T09:12:12.000Z</time>
      </trkpt>
      <trkpt lat="43.69188" lon="1.43224">
        <ele>134.80000305176</ele>
        <time>2013-10-27T09:12:17.000Z</time>
      </trkpt>
      <trkpt lat="43.69169" lon="1.43219">
        <ele>134.80000305176</ele>
        <time>2013-10-27T09:12:22.000Z</time>
      </trkpt>
      <trkpt lat="43.69151" lon="1.43213">
        <ele>134.80000305176</ele>
        <time>2013-10-27T09:12:27.000Z</time>
      </trkpt>
      <trkpt lat="43.69132" lon="1.43205">
        <ele>134.80000305176</ele>
        <time>2013-10-27T09:12:32.000Z</time>
      </trkpt>
      <trkpt lat="43.69109" lon="1.432">
        <ele>134.80000305176</ele>
        <time>2013-10-27T09:12:39.000Z</time>
      </trkpt>
      <trkpt lat="43.69095" lon="1.43208">
        <ele>134.80000305176</ele>
        <time>2013-10-27T09:12:43.000Z</time>
      </trkpt>
      <trkpt lat="43.69082" lon="1.43225">
        <ele>134.80000305176</ele>
        <time>2013-10-27T09:12:48.000Z</time>
      </trkpt>
      <trkpt lat="43.69069" lon="1.43246">
        <ele>134.80000305176</ele>
        <time>2013-10-27T09:12:53.000Z</time>
      </trkpt>
      <trkpt lat="43.69056" lon="1.43266">
        <ele>134.39999389648</ele>
        <time>2013-10-27T09:12:58.000Z</time>
      </trkpt>
      <trkpt lat="43.69043" lon="1.43286">
        <ele>133.80000305176</ele>
        <time>2013-10-27T09:13:03.000Z</time>
      </trkpt>
      <trkpt lat="43.69029" lon="1.43309">
        <ele>133.19999694824</ele>
        <time>2013-10-27T09:13:09.000Z</time>
      </trkpt>
      <trkpt lat="43.69017" lon="1.43328">
        <ele>132.80000305176</ele>
        <time>2013-10-27T09:13:14.000Z</time>
      </trkpt>
      <trkpt lat="43.69005" lon="1.43348">
        <ele>132</ele>
        <time>2013-10-27T09:13:19.000Z</time>
      </trkpt>
      <trkpt lat="43.68991" lon="1.43372">
        <ele>131.39999389648</ele>
        <time>2013-10-27T09:13:25.000Z</time>
      </trkpt>
      <trkpt lat="43.68979" lon="1.43392">
        <ele>131.19999694824</ele>
        <time>2013-10-27T09:13:30.000Z</time>
      </trkpt>
      <trkpt lat="43.68964" lon="1.43414">
        <ele>130.80000305176</ele>
        <time>2013-10-27T09:13:36.000Z</time>
      </trkpt>
      <trkpt lat="43.68953" lon="1.43433">
        <ele>129.80000305176</ele>
        <time>2013-10-27T09:13:41.000Z</time>
      </trkpt>
      <trkpt lat="43.68944" lon="1.43445">
        <ele>129.60000610352</ele>
        <time>2013-10-27T09:13:44.000Z</time>
      </trkpt>
      <trkpt lat="43.68928" lon="1.43471">
        <ele>129</ele>
        <time>2013-10-27T09:13:51.000Z</time>
      </trkpt>
      <trkpt lat="43.68915" lon="1.43491">
        <ele>128.80000305176</ele>
        <time>2013-10-27T09:13:57.000Z</time>
      </trkpt>
      <trkpt lat="43.6891" lon="1.43498">
        <ele>128.80000305176</ele>
        <time>2013-10-27T09:13:59.000Z</time>
      </trkpt>
      <trkpt lat="43.68901" lon="1.43513">
        <ele>128.80000305176</ele>
        <time>2013-10-27T09:14:03.000Z</time>
      </trkpt>
      <trkpt lat="43.68887" lon="1.43535">
        <ele>127.80000305176</ele>
        <time>2013-10-27T09:14:09.000Z</time>
      </trkpt>
      <trkpt lat="43.68872" lon="1.43555">
        <ele>127.40000152588</ele>
        <time>2013-10-27T09:14:15.000Z</time>
      </trkpt>
      <trkpt lat="43.68858" lon="1.43578">
        <ele>127</ele>
        <time>2013-10-27T09:14:21.000Z</time>
      </trkpt>
      <trkpt lat="43.68846" lon="1.43597">
        <ele>126.80000305176</ele>
        <time>2013-10-27T09:14:26.000Z</time>
      </trkpt>
      <trkpt lat="43.68832" lon="1.43618">
        <ele>126.80000305176</ele>
        <time>2013-10-27T09:14:32.000Z</time>
      </trkpt>
      <trkpt lat="43.68819" lon="1.43636">
        <ele>126.80000305176</ele>
        <time>2013-10-27T09:14:37.000Z</time>
      </trkpt>
      <trkpt lat="43.68806" lon="1.43654">
        <ele>126.59999847412</ele>
        <time>2013-10-27T09:14:42.000Z</time>
      </trkpt>
      <trkpt lat="43.68794" lon="1.43673">
        <ele>126.59999847412</ele>
        <time>2013-10-27T09:14:47.000Z</time>
      </trkpt>
      <trkpt lat="43.68782" lon="1.43691">
        <ele>126.59999847412</ele>
        <time>2013-10-27T09:14:52.000Z</time>
      </trkpt>
      <trkpt lat="43.6877" lon="1.4371">
        <ele>126.59999847412</ele>
        <time>2013-10-27T09:14:57.000Z</time>
      </trkpt>
      <trkpt lat="43.68757" lon="1.43728">
        <ele>126.59999847412</ele>
        <time>2013-10-27T09:15:02.000Z</time>
      </trkpt>
      <trkpt lat="43.68743" lon="1.43748">
        <ele>126.59999847412</ele>
        <time>2013-10-27T09:15:07.000Z</time>
      </trkpt>
      <trkpt lat="43.6873" lon="1.4377">
        <ele>126.59999847412</ele>
        <time>2013-10-27T09:15:13.000Z</time>
      </trkpt>
      <trkpt lat="43.68718" lon="1.4379">
        <ele>126.59999847412</ele>
        <time>2013-10-27T09:15:18.000Z</time>
      </trkpt>
      <trkpt lat="43.68705" lon="1.43808">
        <ele>126.59999847412</ele>
        <time>2013-10-27T09:15:23.000Z</time>
      </trkpt>
      <trkpt lat="43.68691" lon="1.43825">
        <ele>126.59999847412</ele>
        <time>2013-10-27T09:15:28.000Z</time>
      </trkpt>
      <trkpt lat="43.68675" lon="1.43837">
        <ele>126.59999847412</ele>
        <time>2013-10-27T09:15:33.000Z</time>
      </trkpt>
      <trkpt lat="43.68664" lon="1.43846">
        <ele>126.59999847412</ele>
        <time>2013-10-27T09:15:36.000Z</time>
      </trkpt>
      <trkpt lat="43.68642" lon="1.43866">
        <ele>126.59999847412</ele>
        <time>2013-10-27T09:15:43.000Z</time>
      </trkpt>
      <trkpt lat="43.68636" lon="1.43871">
        <ele>126.59999847412</ele>
        <time>2013-10-27T09:15:45.000Z</time>
      </trkpt>
      <trkpt lat="43.68616" lon="1.43885">
        <ele>126.59999847412</ele>
        <time>2013-10-27T09:15:51.000Z</time>
      </trkpt>
      <trkpt lat="43.68601" lon="1.43897">
        <ele>126.59999847412</ele>
        <time>2013-10-27T09:15:56.000Z</time>
      </trkpt>
      <trkpt lat="43.68583" lon="1.43913">
        <ele>126.59999847412</ele>
        <time>2013-10-27T09:16:02.000Z</time>
      </trkpt>
      <trkpt lat="43.6857" lon="1.43926">
        <ele>126.59999847412</ele>
        <time>2013-10-27T09:16:07.000Z</time>
      </trkpt>
      <trkpt lat="43.68559" lon="1.43937">
        <ele>126.59999847412</ele>
        <time>2013-10-27T09:16:11.000Z</time>
      </trkpt>
      <trkpt lat="43.68541" lon="1.43953">
        <ele>126.59999847412</ele>
        <time>2013-10-27T09:16:17.000Z</time>
      </trkpt>
      <trkpt lat="43.68525" lon="1.43965">
        <ele>126.59999847412</ele>
        <time>2013-10-27T09:16:22.000Z</time>
      </trkpt>
      <trkpt lat="43.68511" lon="1.43979">
        <ele>126.59999847412</ele>
        <time>2013-10-27T09:16:27.000Z</time>
      </trkpt>
      <trkpt lat="43.68496" lon="1.43991">
        <ele>126.59999847412</ele>
        <time>2013-10-27T09:16:32.000Z</time>
      </trkpt>
      <trkpt lat="43.68481" lon="1.44006">
        <ele>126.40000152588</ele>
        <time>2013-10-27T09:16:37.000Z</time>
      </trkpt>
      <trkpt lat="43.68465" lon="1.44027">
        <ele>125.59999847412</ele>
        <time>2013-10-27T09:16:43.000Z</time>
      </trkpt>
      <trkpt lat="43.68455" lon="1.44042">
        <ele>125.40000152588</ele>
        <time>2013-10-27T09:16:47.000Z</time>
      </trkpt>
      <trkpt lat="43.68441" lon="1.44063">
        <ele>125</ele>
        <time>2013-10-27T09:16:53.000Z</time>
      </trkpt>
      <trkpt lat="43.68429" lon="1.44081">
        <ele>124.80000305176</ele>
        <time>2013-10-27T09:16:58.000Z</time>
      </trkpt>
      <trkpt lat="43.68415" lon="1.44103">
        <ele>124.80000305176</ele>
        <time>2013-10-27T09:17:04.000Z</time>
      </trkpt>
      <trkpt lat="43.684" lon="1.44123">
        <ele>124.59999847412</ele>
        <time>2013-10-27T09:17:10.000Z</time>
      </trkpt>
      <trkpt lat="43.68384" lon="1.44143">
        <ele>124.59999847412</ele>
        <time>2013-10-27T09:17:16.000Z</time>
      </trkpt>
      <trkpt lat="43.6837" lon="1.4416">
        <ele>124.59999847412</ele>
        <time>2013-10-27T09:17:21.000Z</time>
      </trkpt>
      <trkpt lat="43.68356" lon="1.44176">
        <ele>124.59999847412</ele>
        <time>2013-10-27T09:17:26.000Z</time>
      </trkpt>
      <trkpt lat="43.68342" lon="1.44197">
        <ele>124.59999847412</ele>
        <time>2013-10-27T09:17:32.000Z</time>
      </trkpt>
      <trkpt lat="43.68327" lon="1.44231">
        <ele>124.59999847412</ele>
        <time>2013-10-27T09:17:40.000Z</time>
      </trkpt>
      <trkpt lat="43.68318" lon="1.44258">
        <ele>124.59999847412</ele>
        <time>2013-10-27T09:17:46.000Z</time>
      </trkpt>
      <trkpt lat="43.68311" lon="1.44277">
        <ele>124.59999847412</ele>
        <time>2013-10-27T09:17:50.000Z</time>
      </trkpt>
      <trkpt lat="43.68309" lon="1.44283">
        <ele>124.59999847412</ele>
        <time>2013-10-27T09:17:51.000Z</time>
      </trkpt>
      <trkpt lat="43.68297" lon="1.44313">
        <ele>124.59999847412</ele>
        <time>2013-10-27T09:17:58.000Z</time>
      </trkpt>
      <trkpt lat="43.68287" lon="1.44339">
        <ele>124.59999847412</ele>
        <time>2013-10-27T09:18:04.000Z</time>
      </trkpt>
      <trkpt lat="43.68279" lon="1.44359">
        <ele>124.59999847412</ele>
        <time>2013-10-27T09:18:09.000Z</time>
      </trkpt>
      <trkpt lat="43.6827" lon="1.4438">
        <ele>124.59999847412</ele>
        <time>2013-10-27T09:18:14.000Z</time>
      </trkpt>
      <trkpt lat="43.68264" lon="1.44406">
        <ele>124.59999847412</ele>
        <time>2013-10-27T09:18:20.000Z</time>
      </trkpt>
      <trkpt lat="43.68263" lon="1.44432">
        <ele>124.59999847412</ele>
        <time>2013-10-27T09:18:25.000Z</time>
      </trkpt>
      <trkpt lat="43.68266" lon="1.44457">
        <ele>124.59999847412</ele>
        <time>2013-10-27T09:18:30.000Z</time>
      </trkpt>
      <trkpt lat="43.68269" lon="1.44482">
        <ele>124.59999847412</ele>
        <time>2013-10-27T09:18:35.000Z</time>
      </trkpt>
      <trkpt lat="43.68277" lon="1.44506">
        <ele>124.59999847412</ele>
        <time>2013-10-27T09:18:40.000Z</time>
      </trkpt>
      <trkpt lat="43.68285" lon="1.44533">
        <ele>124.59999847412</ele>
        <time>2013-10-27T09:18:45.000Z</time>
      </trkpt>
      <trkpt lat="43.68289" lon="1.44558">
        <ele>124.59999847412</ele>
        <time>2013-10-27T09:18:50.000Z</time>
      </trkpt>
      <trkpt lat="43.68293" lon="1.44578">
        <ele>124.80000305176</ele>
        <time>2013-10-27T09:18:54.000Z</time>
      </trkpt>
      <trkpt lat="43.68296" lon="1.44597">
        <ele>125.40000152588</ele>
        <time>2013-10-27T09:18:58.000Z</time>
      </trkpt>
      <trkpt lat="43.68297" lon="1.44616">
        <ele>125.80000305176</ele>
        <time>2013-10-27T09:19:02.000Z</time>
      </trkpt>
      <trkpt lat="43.683" lon="1.44636">
        <ele>126.19999694824</ele>
        <time>2013-10-27T09:19:06.000Z</time>
      </trkpt>
      <trkpt lat="43.68301" lon="1.44659">
        <ele>126.40000152588</ele>
        <time>2013-10-27T09:19:11.000Z</time>
      </trkpt>
      <trkpt lat="43.68302" lon="1.44678">
        <ele>127.19999694824</ele>
        <time>2013-10-27T09:19:15.000Z</time>
      </trkpt>
      <trkpt lat="43.68304" lon="1.44698">
        <ele>127.80000305176</ele>
        <time>2013-10-27T09:19:19.000Z</time>
      </trkpt>
      <trkpt lat="43.68309" lon="1.44726">
        <ele>128.60000610352</ele>
        <time>2013-10-27T09:19:25.000Z</time>
      </trkpt>
      <trkpt lat="43.68311" lon="1.4475">
        <ele>129.60000610352</ele>
        <time>2013-10-27T09:19:30.000Z</time>
      </trkpt>
      <trkpt lat="43.68314" lon="1.44774">
        <ele>130.19999694824</ele>
        <time>2013-10-27T09:19:36.000Z</time>
      </trkpt>
      <trkpt lat="43.68314" lon="1.44784">
        <ele>130.39999389648</ele>
        <time>2013-10-27T09:19:39.000Z</time>
      </trkpt>
      <trkpt lat="43.68314" lon="1.44806">
        <ele>131.60000610352</ele>
        <time>2013-10-27T09:19:44.000Z</time>
      </trkpt>
      <trkpt lat="43.68316" lon="1.44832">
        <ele>132.19999694824</ele>
        <time>2013-10-27T09:19:49.000Z</time>
      </trkpt>
      <trkpt lat="43.68318" lon="1.4485">
        <ele>132.39999389648</ele>
        <time>2013-10-27T09:19:53.000Z</time>
      </trkpt>
      <trkpt lat="43.68318" lon="1.44877">
        <ele>132.60000610352</ele>
        <time>2013-10-27T09:19:58.000Z</time>
      </trkpt>
      <trkpt lat="43.68316" lon="1.44902">
        <ele>132.80000305176</ele>
        <time>2013-10-27T09:20:03.000Z</time>
      </trkpt>
      <trkpt lat="43.68311" lon="1.44925">
        <ele>132.80000305176</ele>
        <time>2013-10-27T09:20:08.000Z</time>
      </trkpt>
      <trkpt lat="43.68305" lon="1.44949">
        <ele>133</ele>
        <time>2013-10-27T09:20:13.000Z</time>
      </trkpt>
      <trkpt lat="43.68299" lon="1.44973">
        <ele>133</ele>
        <time>2013-10-27T09:20:18.000Z</time>
      </trkpt>
      <trkpt lat="43.68293" lon="1.44997">
        <ele>133</ele>
        <time>2013-10-27T09:20:23.000Z</time>
      </trkpt>
      <trkpt lat="43.68284" lon="1.45023">
        <ele>133</ele>
        <time>2013-10-27T09:20:29.000Z</time>
      </trkpt>
      <trkpt lat="43.68274" lon="1.45041">
        <ele>133</ele>
        <time>2013-10-27T09:20:34.000Z</time>
      </trkpt>
      <trkpt lat="43.68261" lon="1.45064">
        <ele>133</ele>
        <time>2013-10-27T09:20:40.000Z</time>
      </trkpt>
      <trkpt lat="43.68254" lon="1.45089">
        <ele>133</ele>
        <time>2013-10-27T09:20:45.000Z</time>
      </trkpt>
      <trkpt lat="43.68242" lon="1.45112">
        <ele>133</ele>
        <time>2013-10-27T09:20:51.000Z</time>
      </trkpt>
      <trkpt lat="43.68231" lon="1.45132">
        <ele>133</ele>
        <time>2013-10-27T09:20:56.000Z</time>
      </trkpt>
      <trkpt lat="43.68219" lon="1.45149">
        <ele>132.39999389648</ele>
        <time>2013-10-27T09:21:01.000Z</time>
      </trkpt>
      <trkpt lat="43.68203" lon="1.45169">
        <ele>131.80000305176</ele>
        <time>2013-10-27T09:21:07.000Z</time>
      </trkpt>
      <trkpt lat="43.68186" lon="1.45185">
        <ele>131.39999389648</ele>
        <time>2013-10-27T09:21:13.000Z</time>
      </trkpt>
      <trkpt lat="43.68174" lon="1.45196">
        <ele>131.19999694824</ele>
        <time>2013-10-27T09:21:17.000Z</time>
      </trkpt>
      <trkpt lat="43.68158" lon="1.45209">
        <ele>131.19999694824</ele>
        <time>2013-10-27T09:21:22.000Z</time>
      </trkpt>
      <trkpt lat="43.68144" lon="1.45223">
        <ele>130.60000610352</ele>
        <time>2013-10-27T09:21:27.000Z</time>
      </trkpt>
      <trkpt lat="43.68128" lon="1.45237">
        <ele>129.80000305176</ele>
        <time>2013-10-27T09:21:32.000Z</time>
      </trkpt>
      <trkpt lat="43.68111" lon="1.45253">
        <ele>129.39999389648</ele>
        <time>2013-10-27T09:21:38.000Z</time>
      </trkpt>
      <trkpt lat="43.68095" lon="1.45266">
        <ele>129.19999694824</ele>
        <time>2013-10-27T09:21:43.000Z</time>
      </trkpt>
      <trkpt lat="43.68079" lon="1.45279">
        <ele>129.19999694824</ele>
        <time>2013-10-27T09:21:48.000Z</time>
      </trkpt>
      <trkpt lat="43.68063" lon="1.45294">
        <ele>129</ele>
        <time>2013-10-27T09:21:53.000Z</time>
      </trkpt>
      <trkpt lat="43.68047" lon="1.45308">
        <ele>129</ele>
        <time>2013-10-27T09:21:58.000Z</time>
      </trkpt>
      <trkpt lat="43.68028" lon="1.45324">
        <ele>129</ele>
        <time>2013-10-27T09:22:04.000Z</time>
      </trkpt>
      <trkpt lat="43.68013" lon="1.45337">
        <ele>129.39999389648</ele>
        <time>2013-10-27T09:22:09.000Z</time>
      </trkpt>
      <trkpt lat="43.67997" lon="1.45349">
        <ele>130</ele>
        <time>2013-10-27T09:22:14.000Z</time>
      </trkpt>
      <trkpt lat="43.67981" lon="1.45362">
        <ele>130.39999389648</ele>
        <time>2013-10-27T09:22:19.000Z</time>
      </trkpt>
      <trkpt lat="43.67976" lon="1.45366">
        <ele>130.60000610352</ele>
        <time>2013-10-27T09:22:21.000Z</time>
      </trkpt>
      <trkpt lat="43.67963" lon="1.45375">
        <ele>130.60000610352</ele>
        <time>2013-10-27T09:22:25.000Z</time>
      </trkpt>
      <trkpt lat="43.67945" lon="1.45386">
        <ele>130.80000305176</ele>
        <time>2013-10-27T09:22:30.000Z</time>
      </trkpt>
      <trkpt lat="43.67925" lon="1.45398">
        <ele>130.80000305176</ele>
        <time>2013-10-27T09:22:36.000Z</time>
      </trkpt>
      <trkpt lat="43.67908" lon="1.4541">
        <ele>131</ele>
        <time>2013-10-27T09:22:41.000Z</time>
      </trkpt>
      <trkpt lat="43.67899" lon="1.45417">
        <ele>131</ele>
        <time>2013-10-27T09:22:44.000Z</time>
      </trkpt>
      <trkpt lat="43.67889" lon="1.45424">
        <ele>131</ele>
        <time>2013-10-27T09:22:47.000Z</time>
      </trkpt>
      <trkpt lat="43.67867" lon="1.4544">
        <ele>131</ele>
        <time>2013-10-27T09:22:53.000Z</time>
      </trkpt>
      <trkpt lat="43.67851" lon="1.45454">
        <ele>131</ele>
        <time>2013-10-27T09:22:58.000Z</time>
      </trkpt>
      <trkpt lat="43.67839" lon="1.45466">
        <ele>131</ele>
        <time>2013-10-27T09:23:02.000Z</time>
      </trkpt>
      <trkpt lat="43.67823" lon="1.45482">
        <ele>131</ele>
        <time>2013-10-27T09:23:07.000Z</time>
      </trkpt>
      <trkpt lat="43.67809" lon="1.45498">
        <ele>131.80000305176</ele>
        <time>2013-10-27T09:23:12.000Z</time>
      </trkpt>
      <trkpt lat="43.67792" lon="1.45515">
        <ele>132.39999389648</ele>
        <time>2013-10-27T09:23:18.000Z</time>
      </trkpt>
      <trkpt lat="43.67777" lon="1.45528">
        <ele>132.60000610352</ele>
        <time>2013-10-27T09:23:23.000Z</time>
      </trkpt>
      <trkpt lat="43.67766" lon="1.45539">
        <ele>132.80000305176</ele>
        <time>2013-10-27T09:23:27.000Z</time>
      </trkpt>
      <trkpt lat="43.67752" lon="1.45555">
        <ele>132.80000305176</ele>
        <time>2013-10-27T09:23:32.000Z</time>
      </trkpt>
      <trkpt lat="43.67735" lon="1.45571">
        <ele>133.19999694824</ele>
        <time>2013-10-27T09:23:38.000Z</time>
      </trkpt>
      <trkpt lat="43.6772" lon="1.45585">
        <ele>134</ele>
        <time>2013-10-27T09:23:43.000Z</time>
      </trkpt>
      <trkpt lat="43.67695" lon="1.45611">
        <ele>134.60000610352</ele>
        <time>2013-10-27T09:23:52.000Z</time>
      </trkpt>
      <trkpt lat="43.67679" lon="1.45623">
        <ele>134.80000305176</ele>
        <time>2013-10-27T09:23:57.000Z</time>
      </trkpt>
      <trkpt lat="43.67661" lon="1.45629">
        <ele>134.80000305176</ele>
        <time>2013-10-27T09:24:02.000Z</time>
      </trkpt>
      <trkpt lat="43.67642" lon="1.45631">
        <ele>135</ele>
        <time>2013-10-27T09:24:07.000Z</time>
      </trkpt>
      <trkpt lat="43.67624" lon="1.45631">
        <ele>135</ele>
        <time>2013-10-27T09:24:12.000Z</time>
      </trkpt>
      <trkpt lat="43.67604" lon="1.45632">
        <ele>135</ele>
        <time>2013-10-27T09:24:18.000Z</time>
      </trkpt>
      <trkpt lat="43.67583" lon="1.45633">
        <ele>135</ele>
        <time>2013-10-27T09:24:24.000Z</time>
      </trkpt>
      <trkpt lat="43.67562" lon="1.45636">
        <ele>135</ele>
        <time>2013-10-27T09:24:30.000Z</time>
      </trkpt>
      <trkpt lat="43.67542" lon="1.4564">
        <ele>135</ele>
        <time>2013-10-27T09:24:36.000Z</time>
      </trkpt>
      <trkpt lat="43.67519" lon="1.45646">
        <ele>135</ele>
        <time>2013-10-27T09:24:43.000Z</time>
      </trkpt>
      <trkpt lat="43.67504" lon="1.45652">
        <ele>135</ele>
        <time>2013-10-27T09:24:48.000Z</time>
      </trkpt>
      <trkpt lat="43.67485" lon="1.45661">
        <ele>135</ele>
        <time>2013-10-27T09:24:54.000Z</time>
      </trkpt>
      <trkpt lat="43.67468" lon="1.45666">
        <ele>135</ele>
        <time>2013-10-27T09:24:59.000Z</time>
      </trkpt>
      <trkpt lat="43.67451" lon="1.45674">
        <ele>135</ele>
        <time>2013-10-27T09:25:04.000Z</time>
      </trkpt>
      <trkpt lat="43.67431" lon="1.45681">
        <ele>135</ele>
        <time>2013-10-27T09:25:10.000Z</time>
      </trkpt>
      <trkpt lat="43.67416" lon="1.45684">
        <ele>135</ele>
        <time>2013-10-27T09:25:14.000Z</time>
      </trkpt>
      <trkpt lat="43.67397" lon="1.45689">
        <ele>135</ele>
        <time>2013-10-27T09:25:19.000Z</time>
      </trkpt>
      <trkpt lat="43.67387" lon="1.4569">
        <ele>135</ele>
        <time>2013-10-27T09:25:21.000Z</time>
      </trkpt>
      <trkpt lat="43.67378" lon="1.45691">
        <ele>135</ele>
        <time>2013-10-27T09:25:23.000Z</time>
      </trkpt>
      <trkpt lat="43.67364" lon="1.45689">
        <ele>135.60000610352</ele>
        <time>2013-10-27T09:25:26.000Z</time>
      </trkpt>
      <trkpt lat="43.67347" lon="1.4567">
        <ele>136.19999694824</ele>
        <time>2013-10-27T09:25:31.000Z</time>
      </trkpt>
      <trkpt lat="43.67342" lon="1.45662">
        <ele>136.39999389648</ele>
        <time>2013-10-27T09:25:33.000Z</time>
      </trkpt>
      <trkpt lat="43.67326" lon="1.45638">
        <ele>136.60000610352</ele>
        <time>2013-10-27T09:25:39.000Z</time>
      </trkpt>
      <trkpt lat="43.67323" lon="1.45635">
        <ele>136.60000610352</ele>
        <time>2013-10-27T09:25:40.000Z</time>
      </trkpt>
      <trkpt lat="43.67303" lon="1.45622">
        <ele>136.80000305176</ele>
        <time>2013-10-27T09:25:46.000Z</time>
      </trkpt>
      <trkpt lat="43.67289" lon="1.45619">
        <ele>136.80000305176</ele>
        <time>2013-10-27T09:25:50.000Z</time>
      </trkpt>
      <trkpt lat="43.67265" lon="1.45625">
        <ele>137</ele>
        <time>2013-10-27T09:25:57.000Z</time>
      </trkpt>
      <trkpt lat="43.67245" lon="1.45633">
        <ele>137</ele>
        <time>2013-10-27T09:26:03.000Z</time>
      </trkpt>
      <trkpt lat="43.67232" lon="1.45639">
        <ele>137</ele>
        <time>2013-10-27T09:26:07.000Z</time>
      </trkpt>
      <trkpt lat="43.67215" lon="1.45649">
        <ele>137</ele>
        <time>2013-10-27T09:26:12.000Z</time>
      </trkpt>
      <trkpt lat="43.67197" lon="1.45658">
        <ele>136.60000610352</ele>
        <time>2013-10-27T09:26:17.000Z</time>
      </trkpt>
      <trkpt lat="43.67178" lon="1.45663">
        <ele>136</ele>
        <time>2013-10-27T09:26:22.000Z</time>
      </trkpt>
      <trkpt lat="43.67161" lon="1.45668">
        <ele>135.60000610352</ele>
        <time>2013-10-27T09:26:27.000Z</time>
      </trkpt>
      <trkpt lat="43.67141" lon="1.45672">
        <ele>135.19999694824</ele>
        <time>2013-10-27T09:26:33.000Z</time>
      </trkpt>
      <trkpt lat="43.67121" lon="1.45674">
        <ele>135.19999694824</ele>
        <time>2013-10-27T09:26:39.000Z</time>
      </trkpt>
      <trkpt lat="43.67108" lon="1.45676">
        <ele>134.39999389648</ele>
        <time>2013-10-27T09:26:43.000Z</time>
      </trkpt>
      <trkpt lat="43.67089" lon="1.45681">
        <ele>133.80000305176</ele>
        <time>2013-10-27T09:26:49.000Z</time>
      </trkpt>
      <trkpt lat="43.67071" lon="1.45691">
        <ele>133.39999389648</ele>
        <time>2013-10-27T09:26:55.000Z</time>
      </trkpt>
      <trkpt lat="43.67053" lon="1.45706">
        <ele>133.19999694824</ele>
        <time>2013-10-27T09:27:01.000Z</time>
      </trkpt>
      <trkpt lat="43.67039" lon="1.45716">
        <ele>133</ele>
        <time>2013-10-27T09:27:06.000Z</time>
      </trkpt>
      <trkpt lat="43.67023" lon="1.45734">
        <ele>133</ele>
        <time>2013-10-27T09:27:12.000Z</time>
      </trkpt>
      <trkpt lat="43.67007" lon="1.45746">
        <ele>133</ele>
        <time>2013-10-27T09:27:17.000Z</time>
      </trkpt>
      <trkpt lat="43.6699" lon="1.45757">
        <ele>133</ele>
        <time>2013-10-27T09:27:22.000Z</time>
      </trkpt>
      <trkpt lat="43.6697" lon="1.45768">
        <ele>133</ele>
        <time>2013-10-27T09:27:28.000Z</time>
      </trkpt>
      <trkpt lat="43.66951" lon="1.45779">
        <ele>133</ele>
        <time>2013-10-27T09:27:34.000Z</time>
      </trkpt>
      <trkpt lat="43.6693" lon="1.45788">
        <ele>133</ele>
        <time>2013-10-27T09:27:40.000Z</time>
      </trkpt>
      <trkpt lat="43.6691" lon="1.45796">
        <ele>133</ele>
        <time>2013-10-27T09:27:46.000Z</time>
      </trkpt>
      <trkpt lat="43.66891" lon="1.45805">
        <ele>133</ele>
        <time>2013-10-27T09:27:52.000Z</time>
      </trkpt>
      <trkpt lat="43.66872" lon="1.45812">
        <ele>133</ele>
        <time>2013-10-27T09:27:58.000Z</time>
      </trkpt>
      <trkpt lat="43.66856" lon="1.45818">
        <ele>132.19999694824</ele>
        <time>2013-10-27T09:28:03.000Z</time>
      </trkpt>
      <trkpt lat="43.66839" lon="1.45826">
        <ele>131.60000610352</ele>
        <time>2013-10-27T09:28:08.000Z</time>
      </trkpt>
      <trkpt lat="43.66825" lon="1.45831">
        <ele>131.39999389648</ele>
        <time>2013-10-27T09:28:12.000Z</time>
      </trkpt>
      <trkpt lat="43.66806" lon="1.45835">
        <ele>131.19999694824</ele>
        <time>2013-10-27T09:28:17.000Z</time>
      </trkpt>
      <trkpt lat="43.66788" lon="1.45838">
        <ele>130.19999694824</ele>
        <time>2013-10-27T09:28:22.000Z</time>
      </trkpt>
      <trkpt lat="43.66767" lon="1.45839">
        <ele>129.39999389648</ele>
        <time>2013-10-27T09:28:28.000Z</time>
      </trkpt>
      <trkpt lat="43.66746" lon="1.45838">
        <ele>128.60000610352</ele>
        <time>2013-10-27T09:28:34.000Z</time>
      </trkpt>
      <trkpt lat="43.66725" lon="1.45838">
        <ele>127.59999847412</ele>
        <time>2013-10-27T09:28:40.000Z</time>
      </trkpt>
      <trkpt lat="43.66704" lon="1.45837">
        <ele>127.19999694824</ele>
        <time>2013-10-27T09:28:46.000Z</time>
      </trkpt>
      <trkpt lat="43.66683" lon="1.45836">
        <ele>126.19999694824</ele>
        <time>2013-10-27T09:28:52.000Z</time>
      </trkpt>
      <trkpt lat="43.66662" lon="1.45835">
        <ele>125.40000152588</ele>
        <time>2013-10-27T09:28:58.000Z</time>
      </trkpt>
      <trkpt lat="43.66642" lon="1.45834">
        <ele>124.19999694824</ele>
        <time>2013-10-27T09:29:04.000Z</time>
      </trkpt>
      <trkpt lat="43.66624" lon="1.45833">
        <ele>123.40000152588</ele>
        <time>2013-10-27T09:29:09.000Z</time>
      </trkpt>
      <trkpt lat="43.66605" lon="1.45832">
        <ele>123</ele>
        <time>2013-10-27T09:29:14.000Z</time>
      </trkpt>
      <trkpt lat="43.66586" lon="1.4583">
        <ele>122.19999694824</ele>
        <time>2013-10-27T09:29:19.000Z</time>
      </trkpt>
      <trkpt lat="43.66567" lon="1.45828">
        <ele>121.40000152588</ele>
        <time>2013-10-27T09:29:24.000Z</time>
      </trkpt>
      <trkpt lat="43.66548" lon="1.45825">
        <ele>121</ele>
        <time>2013-10-27T09:29:29.000Z</time>
      </trkpt>
      <trkpt lat="43.66529" lon="1.4582">
        <ele>120.59999847412</ele>
        <time>2013-10-27T09:29:34.000Z</time>
      </trkpt>
      <trkpt lat="43.66504" lon="1.45808">
        <ele>121.40000152588</ele>
        <time>2013-10-27T09:29:41.000Z</time>
      </trkpt>
      <trkpt lat="43.6649" lon="1.458">
        <ele>121.59999847412</ele>
        <time>2013-10-27T09:29:45.000Z</time>
      </trkpt>
      <trkpt lat="43.66469" lon="1.45786">
        <ele>122.80000305176</ele>
        <time>2013-10-27T09:29:51.000Z</time>
      </trkpt>
      <trkpt lat="43.66452" lon="1.45775">
        <ele>123.80000305176</ele>
        <time>2013-10-27T09:29:56.000Z</time>
      </trkpt>
      <trkpt lat="43.66432" lon="1.45765">
        <ele>125.59999847412</ele>
        <time>2013-10-27T09:30:02.000Z</time>
      </trkpt>
      <trkpt lat="43.66415" lon="1.45764">
        <ele>127</ele>
        <time>2013-10-27T09:30:07.000Z</time>
      </trkpt>
      <trkpt lat="43.66396" lon="1.45768">
        <ele>128.60000610352</ele>
        <time>2013-10-27T09:30:13.000Z</time>
      </trkpt>
      <trkpt lat="43.66376" lon="1.45775">
        <ele>129.80000305176</ele>
        <time>2013-10-27T09:30:19.000Z</time>
      </trkpt>
      <trkpt lat="43.66357" lon="1.45782">
        <ele>130.39999389648</ele>
        <time>2013-10-27T09:30:26.000Z</time>
      </trkpt>
      <trkpt lat="43.66341" lon="1.45788">
        <ele>130.60000610352</ele>
        <time>2013-10-27T09:30:31.000Z</time>
      </trkpt>
      <trkpt lat="43.66325" lon="1.45794">
        <ele>130.80000305176</ele>
        <time>2013-10-27T09:30:36.000Z</time>
      </trkpt>
      <trkpt lat="43.66295" lon="1.45801">
        <ele>130.80000305176</ele>
        <time>2013-10-27T09:30:45.000Z</time>
      </trkpt>
      <trkpt lat="43.6628" lon="1.45786">
        <ele>130.80000305176</ele>
        <time>2013-10-27T09:30:50.000Z</time>
      </trkpt>
      <trkpt lat="43.66266" lon="1.45768">
        <ele>131.60000610352</ele>
        <time>2013-10-27T09:30:55.000Z</time>
      </trkpt>
      <trkpt lat="43.66252" lon="1.45747">
        <ele>132.19999694824</ele>
        <time>2013-10-27T09:31:01.000Z</time>
      </trkpt>
      <trkpt lat="43.66236" lon="1.45727">
        <ele>133.60000610352</ele>
        <time>2013-10-27T09:31:07.000Z</time>
      </trkpt>
      <trkpt lat="43.66223" lon="1.45708">
        <ele>135.19999694824</ele>
        <time>2013-10-27T09:31:13.000Z</time>
      </trkpt>
      <trkpt lat="43.66208" lon="1.45688">
        <ele>137</ele>
        <time>2013-10-27T09:31:19.000Z</time>
      </trkpt>
      <trkpt lat="43.66195" lon="1.4567">
        <ele>138.19999694824</ele>
        <time>2013-10-27T09:31:24.000Z</time>
      </trkpt>
      <trkpt lat="43.66181" lon="1.45654">
        <ele>139.60000610352</ele>
        <time>2013-10-27T09:31:29.000Z</time>
      </trkpt>
      <trkpt lat="43.66166" lon="1.45636">
        <ele>140.60000610352</ele>
        <time>2013-10-27T09:31:35.000Z</time>
      </trkpt>
      <trkpt lat="43.66151" lon="1.45621">
        <ele>141.19999694824</ele>
        <time>2013-10-27T09:31:40.000Z</time>
      </trkpt>
      <trkpt lat="43.66134" lon="1.45606">
        <ele>142.39999389648</ele>
        <time>2013-10-27T09:31:46.000Z</time>
      </trkpt>
      <trkpt lat="43.66106" lon="1.45582">
        <ele>143.19999694824</ele>
        <time>2013-10-27T09:31:56.000Z</time>
      </trkpt>
      <trkpt lat="43.6609" lon="1.4557">
        <ele>143.39999389648</ele>
        <time>2013-10-27T09:32:02.000Z</time>
      </trkpt>
      <trkpt lat="43.66072" lon="1.45557">
        <ele>143.60000610352</ele>
        <time>2013-10-27T09:32:08.000Z</time>
      </trkpt>
      <trkpt lat="43.66055" lon="1.45547">
        <ele>143.60000610352</ele>
        <time>2013-10-27T09:32:13.000Z</time>
      </trkpt>
      <trkpt lat="43.66042" lon="1.45537">
        <ele>143.60000610352</ele>
        <time>2013-10-27T09:32:17.000Z</time>
      </trkpt>
      <trkpt lat="43.66025" lon="1.45523">
        <ele>143.80000305176</ele>
        <time>2013-10-27T09:32:23.000Z</time>
      </trkpt>
      <trkpt lat="43.66014" lon="1.45514">
        <ele>143.80000305176</ele>
        <time>2013-10-27T09:32:27.000Z</time>
      </trkpt>
      <trkpt lat="43.65998" lon="1.45506">
        <ele>143.80000305176</ele>
        <time>2013-10-27T09:32:33.000Z</time>
      </trkpt>
      <trkpt lat="43.6598" lon="1.45506">
        <ele>143.80000305176</ele>
        <time>2013-10-27T09:32:39.000Z</time>
      </trkpt>
      <trkpt lat="43.65962" lon="1.45514">
        <ele>143.60000610352</ele>
        <time>2013-10-27T09:32:45.000Z</time>
      </trkpt>
      <trkpt lat="43.65949" lon="1.45516">
        <ele>142.80000305176</ele>
        <time>2013-10-27T09:32:49.000Z</time>
      </trkpt>
      <trkpt lat="43.65937" lon="1.45509">
        <ele>142.39999389648</ele>
        <time>2013-10-27T09:32:53.000Z</time>
      </trkpt>
      <trkpt lat="43.65919" lon="1.45498">
        <ele>142</ele>
        <time>2013-10-27T09:32:59.000Z</time>
      </trkpt>
      <trkpt lat="43.65901" lon="1.45494">
        <ele>141.80000305176</ele>
        <time>2013-10-27T09:33:05.000Z</time>
      </trkpt>
      <trkpt lat="43.65882" lon="1.45494">
        <ele>141.19999694824</ele>
        <time>2013-10-27T09:33:11.000Z</time>
      </trkpt>
      <trkpt lat="43.65866" lon="1.45495">
        <ele>140.39999389648</ele>
        <time>2013-10-27T09:33:16.000Z</time>
      </trkpt>
      <trkpt lat="43.65847" lon="1.45498">
        <ele>140</ele>
        <time>2013-10-27T09:33:22.000Z</time>
      </trkpt>
      <trkpt lat="43.65828" lon="1.45504">
        <ele>138.80000305176</ele>
        <time>2013-10-27T09:33:28.000Z</time>
      </trkpt>
      <trkpt lat="43.6581" lon="1.45511">
        <ele>138.19999694824</ele>
        <time>2013-10-27T09:33:34.000Z</time>
      </trkpt>
      <trkpt lat="43.6579" lon="1.45522">
        <ele>137.80000305176</ele>
        <time>2013-10-27T09:33:40.000Z</time>
      </trkpt>
      <trkpt lat="43.65775" lon="1.45534">
        <ele>137.60000610352</ele>
        <time>2013-10-27T09:33:45.000Z</time>
      </trkpt>
      <trkpt lat="43.65759" lon="1.45552">
        <ele>137.60000610352</ele>
        <time>2013-10-27T09:33:51.000Z</time>
      </trkpt>
      <trkpt lat="43.65744" lon="1.4557">
        <ele>137.39999389648</ele>
        <time>2013-10-27T09:33:57.000Z</time>
      </trkpt>
      <trkpt lat="43.65729" lon="1.45585">
        <ele>137.39999389648</ele>
        <time>2013-10-27T09:34:02.000Z</time>
      </trkpt>
      <trkpt lat="43.65715" lon="1.45599">
        <ele>137</ele>
        <time>2013-10-27T09:34:07.000Z</time>
      </trkpt>
      <trkpt lat="43.657" lon="1.45614">
        <ele>136.39999389648</ele>
        <time>2013-10-27T09:34:12.000Z</time>
      </trkpt>
      <trkpt lat="43.65685" lon="1.45629">
        <ele>136</ele>
        <time>2013-10-27T09:34:17.000Z</time>
      </trkpt>
      <trkpt lat="43.65669" lon="1.45647">
        <ele>135.60000610352</ele>
        <time>2013-10-27T09:34:23.000Z</time>
      </trkpt>
      <trkpt lat="43.65653" lon="1.45666">
        <ele>135.60000610352</ele>
        <time>2013-10-27T09:34:29.000Z</time>
      </trkpt>
      <trkpt lat="43.65637" lon="1.45684">
        <ele>135.39999389648</ele>
        <time>2013-10-27T09:34:35.000Z</time>
      </trkpt>
      <trkpt lat="43.65622" lon="1.45703">
        <ele>135.39999389648</ele>
        <time>2013-10-27T09:34:41.000Z</time>
      </trkpt>
      <trkpt lat="43.65606" lon="1.45721">
        <ele>135.39999389648</ele>
        <time>2013-10-27T09:34:47.000Z</time>
      </trkpt>
      <trkpt lat="43.65591" lon="1.45739">
        <ele>135.39999389648</ele>
        <time>2013-10-27T09:34:53.000Z</time>
      </trkpt>
      <trkpt lat="43.65575" lon="1.45756">
        <ele>135.39999389648</ele>
        <time>2013-10-27T09:34:59.000Z</time>
      </trkpt>
      <trkpt lat="43.65558" lon="1.45774">
        <ele>135.39999389648</ele>
        <time>2013-10-27T09:35:05.000Z</time>
      </trkpt>
      <trkpt lat="43.65544" lon="1.45791">
        <ele>135.39999389648</ele>
        <time>2013-10-27T09:35:10.000Z</time>
      </trkpt>
      <trkpt lat="43.65532" lon="1.45813">
        <ele>134.80000305176</ele>
        <time>2013-10-27T09:35:16.000Z</time>
      </trkpt>
      <trkpt lat="43.65523" lon="1.45834">
        <ele>134.19999694824</ele>
        <time>2013-10-27T09:35:21.000Z</time>
      </trkpt>
      <trkpt lat="43.65515" lon="1.45859">
        <ele>133.80000305176</ele>
        <time>2013-10-27T09:35:27.000Z</time>
      </trkpt>
      <trkpt lat="43.65509" lon="1.45876">
        <ele>133.60000610352</ele>
        <time>2013-10-27T09:35:31.000Z</time>
      </trkpt>
      <trkpt lat="43.65496" lon="1.45914">
        <ele>133.39999389648</ele>
        <time>2013-10-27T09:35:40.000Z</time>
      </trkpt>
      <trkpt lat="43.65488" lon="1.4594">
        <ele>132.60000610352</ele>
        <time>2013-10-27T09:35:46.000Z</time>
      </trkpt>
      <trkpt lat="43.65476" lon="1.45978">
        <ele>131.80000305176</ele>
        <time>2013-10-27T09:35:55.000Z</time>
      </trkpt>
      <trkpt lat="43.65468" lon="1.45998">
        <ele>131.60000610352</ele>
        <time>2013-10-27T09:36:00.000Z</time>
      </trkpt>
      <trkpt lat="43.6546" lon="1.46025">
        <ele>131.19999694824</ele>
        <time>2013-10-27T09:36:06.000Z</time>
      </trkpt>
      <trkpt lat="43.6545" lon="1.46051">
        <ele>130.39999389648</ele>
        <time>2013-10-27T09:36:12.000Z</time>
      </trkpt>
      <trkpt lat="43.65442" lon="1.46076">
        <ele>129.80000305176</ele>
        <time>2013-10-27T09:36:18.000Z</time>
      </trkpt>
      <trkpt lat="43.65432" lon="1.461">
        <ele>129.60000610352</ele>
        <time>2013-10-27T09:36:24.000Z</time>
      </trkpt>
      <trkpt lat="43.65423" lon="1.46119">
        <ele>129.39999389648</ele>
        <time>2013-10-27T09:36:29.000Z</time>
      </trkpt>
      <trkpt lat="43.65419" lon="1.46133">
        <ele>129.39999389648</ele>
        <time>2013-10-27T09:36:33.000Z</time>
      </trkpt>
      <trkpt lat="43.65412" lon="1.46152">
        <ele>129.39999389648</ele>
        <time>2013-10-27T09:36:38.000Z</time>
      </trkpt>
      <trkpt lat="43.65405" lon="1.46175">
        <ele>129.39999389648</ele>
        <time>2013-10-27T09:36:44.000Z</time>
      </trkpt>
      <trkpt lat="43.65398" lon="1.46195">
        <ele>129.39999389648</ele>
        <time>2013-10-27T09:36:49.000Z</time>
      </trkpt>
      <trkpt lat="43.65391" lon="1.46216">
        <ele>129.39999389648</ele>
        <time>2013-10-27T09:36:54.000Z</time>
      </trkpt>
      <trkpt lat="43.65386" lon="1.46233">
        <ele>129.19999694824</ele>
        <time>2013-10-27T09:36:58.000Z</time>
      </trkpt>
      <trkpt lat="43.65376" lon="1.46258">
        <ele>129.19999694824</ele>
        <time>2013-10-27T09:37:04.000Z</time>
      </trkpt>
      <trkpt lat="43.65367" lon="1.46276">
        <ele>129.19999694824</ele>
        <time>2013-10-27T09:37:09.000Z</time>
      </trkpt>
      <trkpt lat="43.65356" lon="1.46297">
        <ele>129.19999694824</ele>
        <time>2013-10-27T09:37:15.000Z</time>
      </trkpt>
      <trkpt lat="43.65342" lon="1.46317">
        <ele>129.19999694824</ele>
        <time>2013-10-27T09:37:21.000Z</time>
      </trkpt>
      <trkpt lat="43.65327" lon="1.46331">
        <ele>129.19999694824</ele>
        <time>2013-10-27T09:37:26.000Z</time>
      </trkpt>
      <trkpt lat="43.65312" lon="1.46348">
        <ele>129.19999694824</ele>
        <time>2013-10-27T09:37:32.000Z</time>
      </trkpt>
      <trkpt lat="43.65298" lon="1.46362">
        <ele>129.19999694824</ele>
        <time>2013-10-27T09:37:37.000Z</time>
      </trkpt>
      <trkpt lat="43.65285" lon="1.46373">
        <ele>129.19999694824</ele>
        <time>2013-10-27T09:37:42.000Z</time>
      </trkpt>
      <trkpt lat="43.65278" lon="1.4638">
        <ele>129.39999389648</ele>
        <time>2013-10-27T09:37:48.000Z</time>
      </trkpt>
      <trkpt lat="43.65269" lon="1.4639">
        <ele>130.39999389648</ele>
        <time>2013-10-27T09:37:55.000Z</time>
      </trkpt>
      <trkpt lat="43.65256" lon="1.46406">
        <ele>130.80000305176</ele>
        <time>2013-10-27T09:38:00.000Z</time>
      </trkpt>
      <trkpt lat="43.65244" lon="1.46418">
        <ele>131</ele>
        <time>2013-10-27T09:38:05.000Z</time>
      </trkpt>
      <trkpt lat="43.6523" lon="1.46433">
        <ele>131.19999694824</ele>
        <time>2013-10-27T09:38:11.000Z</time>
      </trkpt>
      <trkpt lat="43.65216" lon="1.46447">
        <ele>131.19999694824</ele>
        <time>2013-10-27T09:38:17.000Z</time>
      </trkpt>
      <trkpt lat="43.65208" lon="1.46454">
        <ele>131.19999694824</ele>
        <time>2013-10-27T09:38:20.000Z</time>
      </trkpt>
      <trkpt lat="43.65192" lon="1.46469">
        <ele>131.19999694824</ele>
        <time>2013-10-27T09:38:26.000Z</time>
      </trkpt>
      <trkpt lat="43.65174" lon="1.46483">
        <ele>131.19999694824</ele>
        <time>2013-10-27T09:38:32.000Z</time>
      </trkpt>
      <trkpt lat="43.65158" lon="1.46497">
        <ele>131.19999694824</ele>
        <time>2013-10-27T09:38:38.000Z</time>
      </trkpt>
      <trkpt lat="43.65139" lon="1.46511">
        <ele>131.19999694824</ele>
        <time>2013-10-27T09:38:44.000Z</time>
      </trkpt>
      <trkpt lat="43.65122" lon="1.46524">
        <ele>131.19999694824</ele>
        <time>2013-10-27T09:38:50.000Z</time>
      </trkpt>
      <trkpt lat="43.65102" lon="1.46533">
        <ele>131.19999694824</ele>
        <time>2013-10-27T09:38:56.000Z</time>
      </trkpt>
      <trkpt lat="43.65086" lon="1.46538">
        <ele>132</ele>
        <time>2013-10-27T09:39:01.000Z</time>
      </trkpt>
      <trkpt lat="43.65069" lon="1.4654">
        <ele>132.60000610352</ele>
        <time>2013-10-27T09:39:06.000Z</time>
      </trkpt>
      <trkpt lat="43.65049" lon="1.46541">
        <ele>133</ele>
        <time>2013-10-27T09:39:12.000Z</time>
      </trkpt>
      <trkpt lat="43.65031" lon="1.4654">
        <ele>133.19999694824</ele>
        <time>2013-10-27T09:39:18.000Z</time>
      </trkpt>
      <trkpt lat="43.65014" lon="1.46539">
        <ele>133.19999694824</ele>
        <time>2013-10-27T09:39:24.000Z</time>
      </trkpt>
      <trkpt lat="43.65008" lon="1.4654">
        <ele>133.19999694824</ele>
        <time>2013-10-27T09:39:28.000Z</time>
      </trkpt>
      <trkpt lat="43.65001" lon="1.4654">
        <ele>133.19999694824</ele>
        <time>2013-10-27T09:39:33.000Z</time>
      </trkpt>
      <trkpt lat="43.64999" lon="1.46539">
        <ele>133.19999694824</ele>
        <time>2013-10-27T09:39:34.000Z</time>
      </trkpt>
      <trkpt lat="43.64988" lon="1.46539">
        <ele>133.39999389648</ele>
        <time>2013-10-27T09:39:40.000Z</time>
      </trkpt>
      <trkpt lat="43.64958" lon="1.46536">
        <ele>133.39999389648</ele>
        <time>2013-10-27T09:39:50.000Z</time>
      </trkpt>
      <trkpt lat="43.64939" lon="1.46536">
        <ele>133.39999389648</ele>
        <time>2013-10-27T09:39:56.000Z</time>
      </trkpt>
      <trkpt lat="43.64926" lon="1.46537">
        <ele>133.80000305176</ele>
        <time>2013-10-27T09:40:00.000Z</time>
      </trkpt>
      <trkpt lat="43.6492" lon="1.46536">
        <ele>134</ele>
        <time>2013-10-27T09:40:02.000Z</time>
      </trkpt>
      <trkpt lat="43.64904" lon="1.46534">
        <ele>134.60000610352</ele>
        <time>2013-10-27T09:40:07.000Z</time>
      </trkpt>
      <trkpt lat="43.64886" lon="1.46536">
        <ele>135</ele>
        <time>2013-10-27T09:40:13.000Z</time>
      </trkpt>
      <trkpt lat="43.64874" lon="1.46535">
        <ele>135</ele>
        <time>2013-10-27T09:40:17.000Z</time>
      </trkpt>
      <trkpt lat="43.64856" lon="1.46535">
        <ele>135.19999694824</ele>
        <time>2013-10-27T09:40:23.000Z</time>
      </trkpt>
      <trkpt lat="43.64836" lon="1.46534">
        <ele>135.19999694824</ele>
        <time>2013-10-27T09:40:29.000Z</time>
      </trkpt>
      <trkpt lat="43.64801" lon="1.46534">
        <ele>135.39999389648</ele>
        <time>2013-10-27T09:40:40.000Z</time>
      </trkpt>
      <trkpt lat="43.64781" lon="1.46533">
        <ele>135.39999389648</ele>
        <time>2013-10-27T09:40:46.000Z</time>
      </trkpt>
      <trkpt lat="43.64761" lon="1.46534">
        <ele>135.39999389648</ele>
        <time>2013-10-27T09:40:52.000Z</time>
      </trkpt>
      <trkpt lat="43.64742" lon="1.46532">
        <ele>135.39999389648</ele>
        <time>2013-10-27T09:40:58.000Z</time>
      </trkpt>
      <trkpt lat="43.64722" lon="1.46532">
        <ele>135.39999389648</ele>
        <time>2013-10-27T09:41:04.000Z</time>
      </trkpt>
      <trkpt lat="43.64701" lon="1.46531">
        <ele>135.39999389648</ele>
        <time>2013-10-27T09:41:11.000Z</time>
      </trkpt>
      <trkpt lat="43.64682" lon="1.46529">
        <ele>135.39999389648</ele>
        <time>2013-10-27T09:41:17.000Z</time>
      </trkpt>
      <trkpt lat="43.64668" lon="1.46528">
        <ele>135.39999389648</ele>
        <time>2013-10-27T09:41:22.000Z</time>
      </trkpt>
      <trkpt lat="43.64647" lon="1.46526">
        <ele>135.39999389648</ele>
        <time>2013-10-27T09:41:28.000Z</time>
      </trkpt>
      <trkpt lat="43.64628" lon="1.46524">
        <ele>135.39999389648</ele>
        <time>2013-10-27T09:41:34.000Z</time>
      </trkpt>
      <trkpt lat="43.64608" lon="1.46522">
        <ele>135.39999389648</ele>
        <time>2013-10-27T09:41:40.000Z</time>
      </trkpt>
      <trkpt lat="43.64592" lon="1.46519">
        <ele>135.39999389648</ele>
        <time>2013-10-27T09:41:45.000Z</time>
      </trkpt>
      <trkpt lat="43.64575" lon="1.46516">
        <ele>135.39999389648</ele>
        <time>2013-10-27T09:41:51.000Z</time>
      </trkpt>
      <trkpt lat="43.64554" lon="1.46513">
        <ele>135.39999389648</ele>
        <time>2013-10-27T09:41:57.000Z</time>
      </trkpt>
      <trkpt lat="43.6454" lon="1.46512">
        <ele>135.39999389648</ele>
        <time>2013-10-27T09:42:01.000Z</time>
      </trkpt>
      <trkpt lat="43.64523" lon="1.46508">
        <ele>135.39999389648</ele>
        <time>2013-10-27T09:42:07.000Z</time>
      </trkpt>
      <trkpt lat="43.64507" lon="1.46506">
        <ele>135.39999389648</ele>
        <time>2013-10-27T09:42:13.000Z</time>
      </trkpt>
      <trkpt lat="43.64505" lon="1.46506">
        <ele>135.39999389648</ele>
        <time>2013-10-27T09:42:14.000Z</time>
      </trkpt>
      <trkpt lat="43.64498" lon="1.46504">
        <ele>135.39999389648</ele>
        <time>2013-10-27T09:42:18.000Z</time>
      </trkpt>
      <trkpt lat="43.6449" lon="1.46502">
        <ele>135.39999389648</ele>
        <time>2013-10-27T09:42:23.000Z</time>
      </trkpt>
      <trkpt lat="43.64489" lon="1.46501">
        <ele>135.39999389648</ele>
        <time>2013-10-27T09:42:24.000Z</time>
      </trkpt>
      <trkpt lat="43.64477" lon="1.46499">
        <ele>136</ele>
        <time>2013-10-27T09:42:28.000Z</time>
      </trkpt>
      <trkpt lat="43.64456" lon="1.46497">
        <ele>136.60000610352</ele>
        <time>2013-10-27T09:42:35.000Z</time>
      </trkpt>
      <trkpt lat="43.64439" lon="1.46494">
        <ele>137</ele>
        <time>2013-10-27T09:42:40.000Z</time>
      </trkpt>
      <trkpt lat="43.6442" lon="1.46491">
        <ele>137.19999694824</ele>
        <time>2013-10-27T09:42:46.000Z</time>
      </trkpt>
      <trkpt lat="43.64402" lon="1.46487">
        <ele>137.19999694824</ele>
        <time>2013-10-27T09:42:52.000Z</time>
      </trkpt>
      <trkpt lat="43.6439" lon="1.46484">
        <ele>137.19999694824</ele>
        <time>2013-10-27T09:42:56.000Z</time>
      </trkpt>
      <trkpt lat="43.64383" lon="1.46476">
        <ele>137.80000305176</ele>
        <time>2013-10-27T09:42:59.000Z</time>
      </trkpt>
      <trkpt lat="43.64386" lon="1.46452">
        <ele>138.39999389648</ele>
        <time>2013-10-27T09:43:04.000Z</time>
      </trkpt>
      <trkpt lat="43.64388" lon="1.46447">
        <ele>138.60000610352</ele>
        <time>2013-10-27T09:43:05.000Z</time>
      </trkpt>
      <trkpt lat="43.64395" lon="1.46424">
        <ele>138.80000305176</ele>
        <time>2013-10-27T09:43:10.000Z</time>
      </trkpt>
      <trkpt lat="43.64405" lon="1.46406">
        <ele>139</ele>
        <time>2013-10-27T09:43:14.000Z</time>
      </trkpt>
      <trkpt lat="43.64411" lon="1.46382">
        <ele>139.19999694824</ele>
        <time>2013-10-27T09:43:19.000Z</time>
      </trkpt>
      <trkpt lat="43.64415" lon="1.46354">
        <ele>139.19999694824</ele>
        <time>2013-10-27T09:43:25.000Z</time>
      </trkpt>
      <trkpt lat="43.64415" lon="1.46324">
        <ele>139.19999694824</ele>
        <time>2013-10-27T09:43:31.000Z</time>
      </trkpt>
      <trkpt lat="43.64414" lon="1.46306">
        <ele>139.39999389648</ele>
        <time>2013-10-27T09:43:35.000Z</time>
      </trkpt>
      <trkpt lat="43.64413" lon="1.46278">
        <ele>139.39999389648</ele>
        <time>2013-10-27T09:43:41.000Z</time>
      </trkpt>
      <trkpt lat="43.64412" lon="1.46237">
        <ele>139.39999389648</ele>
        <time>2013-10-27T09:43:50.000Z</time>
      </trkpt>
      <trkpt lat="43.64413" lon="1.46213">
        <ele>139.39999389648</ele>
        <time>2013-10-27T09:43:55.000Z</time>
      </trkpt>
      <trkpt lat="43.64409" lon="1.46194">
        <ele>139.39999389648</ele>
        <time>2013-10-27T09:43:59.000Z</time>
      </trkpt>
      <trkpt lat="43.64407" lon="1.46175">
        <ele>139.39999389648</ele>
        <time>2013-10-27T09:44:03.000Z</time>
      </trkpt>
      <trkpt lat="43.64405" lon="1.46151">
        <ele>139.39999389648</ele>
        <time>2013-10-27T09:44:08.000Z</time>
      </trkpt>
      <trkpt lat="43.64404" lon="1.46146">
        <ele>139.39999389648</ele>
        <time>2013-10-27T09:44:09.000Z</time>
      </trkpt>
      <trkpt lat="43.64402" lon="1.46129">
        <ele>139.39999389648</ele>
        <time>2013-10-27T09:44:13.000Z</time>
      </trkpt>
      <trkpt lat="43.64392" lon="1.46125">
        <ele>139.39999389648</ele>
        <time>2013-10-27T09:44:16.000Z</time>
      </trkpt>
      <trkpt lat="43.64386" lon="1.46126">
        <ele>139.19999694824</ele>
        <time>2013-10-27T09:44:18.000Z</time>
      </trkpt>
      <trkpt lat="43.64361" lon="1.46126">
        <ele>138.19999694824</ele>
        <time>2013-10-27T09:44:25.000Z</time>
      </trkpt>
      <trkpt lat="43.6434" lon="1.46126">
        <ele>137.80000305176</ele>
        <time>2013-10-27T09:44:31.000Z</time>
      </trkpt>
      <trkpt lat="43.64323" lon="1.4612">
        <ele>137.60000610352</ele>
        <time>2013-10-27T09:44:36.000Z</time>
      </trkpt>
      <trkpt lat="43.64314" lon="1.46113">
        <ele>137.60000610352</ele>
        <time>2013-10-27T09:44:39.000Z</time>
      </trkpt>
      <trkpt lat="43.64308" lon="1.46107">
        <ele>137.39999389648</ele>
        <time>2013-10-27T09:44:41.000Z</time>
      </trkpt>
      <trkpt lat="43.64301" lon="1.46084">
        <ele>137.39999389648</ele>
        <time>2013-10-27T09:44:46.000Z</time>
      </trkpt>
      <trkpt lat="43.64299" lon="1.46058">
        <ele>137.39999389648</ele>
        <time>2013-10-27T09:44:51.000Z</time>
      </trkpt>
      <trkpt lat="43.64297" lon="1.46037">
        <ele>137.39999389648</ele>
        <time>2013-10-27T09:44:55.000Z</time>
      </trkpt>
      <trkpt lat="43.64296" lon="1.46013">
        <ele>137.39999389648</ele>
        <time>2013-10-27T09:45:00.000Z</time>
      </trkpt>
      <trkpt lat="43.64293" lon="1.45987">
        <ele>137.39999389648</ele>
        <time>2013-10-27T09:45:05.000Z</time>
      </trkpt>
      <trkpt lat="43.64291" lon="1.45961">
        <ele>137.80000305176</ele>
        <time>2013-10-27T09:45:10.000Z</time>
      </trkpt>
      <trkpt lat="43.6429" lon="1.45937">
        <ele>138.39999389648</ele>
        <time>2013-10-27T09:45:15.000Z</time>
      </trkpt>
      <trkpt lat="43.64288" lon="1.45912">
        <ele>138.80000305176</ele>
        <time>2013-10-27T09:45:20.000Z</time>
      </trkpt>
      <trkpt lat="43.64284" lon="1.45887">
        <ele>139</ele>
        <time>2013-10-27T09:45:25.000Z</time>
      </trkpt>
      <trkpt lat="43.64284" lon="1.45868">
        <ele>139.19999694824</ele>
        <time>2013-10-27T09:45:29.000Z</time>
      </trkpt>
      <trkpt lat="43.64286" lon="1.45865">
        <ele>139.19999694824</ele>
        <time>2013-10-27T09:45:30.000Z</time>
      </trkpt>
      <trkpt lat="43.64288" lon="1.45852">
        <ele>139.19999694824</ele>
        <time>2013-10-27T09:45:33.000Z</time>
      </trkpt>
      <trkpt lat="43.64289" lon="1.45846">
        <ele>139.19999694824</ele>
        <time>2013-10-27T09:45:34.000Z</time>
      </trkpt>
      <trkpt lat="43.64292" lon="1.45821">
        <ele>139.19999694824</ele>
        <time>2013-10-27T09:45:39.000Z</time>
      </trkpt>
      <trkpt lat="43.6429" lon="1.45802">
        <ele>139.19999694824</ele>
        <time>2013-10-27T09:45:43.000Z</time>
      </trkpt>
      <trkpt lat="43.6429" lon="1.45777">
        <ele>139.19999694824</ele>
        <time>2013-10-27T09:45:48.000Z</time>
      </trkpt>
      <trkpt lat="43.6429" lon="1.45752">
        <ele>139.19999694824</ele>
        <time>2013-10-27T09:45:53.000Z</time>
      </trkpt>
      <trkpt lat="43.6429" lon="1.45724">
        <ele>139.39999389648</ele>
        <time>2013-10-27T09:45:58.000Z</time>
      </trkpt>
      <trkpt lat="43.6429" lon="1.45703">
        <ele>139.39999389648</ele>
        <time>2013-10-27T09:46:02.000Z</time>
      </trkpt>
      <trkpt lat="43.64291" lon="1.45699">
        <ele>139.39999389648</ele>
        <time>2013-10-27T09:46:03.000Z</time>
      </trkpt>
      <trkpt lat="43.64292" lon="1.45672">
        <ele>139.39999389648</ele>
        <time>2013-10-27T09:46:08.000Z</time>
      </trkpt>
      <trkpt lat="43.64295" lon="1.45652">
        <ele>139.39999389648</ele>
        <time>2013-10-27T09:46:12.000Z</time>
      </trkpt>
      <trkpt lat="43.6429" lon="1.45626">
        <ele>139.39999389648</ele>
        <time>2013-10-27T09:46:18.000Z</time>
      </trkpt>
      <trkpt lat="43.64282" lon="1.456">
        <ele>139.39999389648</ele>
        <time>2013-10-27T09:46:24.000Z</time>
      </trkpt>
      <trkpt lat="43.6428" lon="1.45571">
        <ele>139.39999389648</ele>
        <time>2013-10-27T09:46:30.000Z</time>
      </trkpt>
      <trkpt lat="43.64278" lon="1.45559">
        <ele>139.39999389648</ele>
        <time>2013-10-27T09:46:33.000Z</time>
      </trkpt>
      <trkpt lat="43.64275" lon="1.45537">
        <ele>139.39999389648</ele>
        <time>2013-10-27T09:46:39.000Z</time>
      </trkpt>
      <trkpt lat="43.64265" lon="1.45517">
        <ele>139.39999389648</ele>
        <time>2013-10-27T09:46:44.000Z</time>
      </trkpt>
      <trkpt lat="43.64249" lon="1.45497">
        <ele>139.39999389648</ele>
        <time>2013-10-27T09:46:50.000Z</time>
      </trkpt>
      <trkpt lat="43.64233" lon="1.45478">
        <ele>139.39999389648</ele>
        <time>2013-10-27T09:46:56.000Z</time>
      </trkpt>
      <trkpt lat="43.6422" lon="1.4546">
        <ele>139.80000305176</ele>
        <time>2013-10-27T09:47:01.000Z</time>
      </trkpt>
      <trkpt lat="43.64207" lon="1.45442">
        <ele>140.39999389648</ele>
        <time>2013-10-27T09:47:06.000Z</time>
      </trkpt>
      <trkpt lat="43.64192" lon="1.45421">
        <ele>141</ele>
        <time>2013-10-27T09:47:12.000Z</time>
      </trkpt>
      <trkpt lat="43.64176" lon="1.45401">
        <ele>141.19999694824</ele>
        <time>2013-10-27T09:47:18.000Z</time>
      </trkpt>
      <trkpt lat="43.64162" lon="1.45383">
        <ele>141.19999694824</ele>
        <time>2013-10-27T09:47:24.000Z</time>
      </trkpt>
      <trkpt lat="43.64159" lon="1.45374">
        <ele>141.19999694824</ele>
        <time>2013-10-27T09:47:27.000Z</time>
      </trkpt>
      <trkpt lat="43.64151" lon="1.45355">
        <ele>141.39999389648</ele>
        <time>2013-10-27T09:47:33.000Z</time>
      </trkpt>
      <trkpt lat="43.64137" lon="1.45337">
        <ele>141.39999389648</ele>
        <time>2013-10-27T09:47:38.000Z</time>
      </trkpt>
      <trkpt lat="43.64126" lon="1.45318">
        <ele>141.39999389648</ele>
        <time>2013-10-27T09:47:43.000Z</time>
      </trkpt>
      <trkpt lat="43.6411" lon="1.45298">
        <ele>141.39999389648</ele>
        <time>2013-10-27T09:47:48.000Z</time>
      </trkpt>
      <trkpt lat="43.64107" lon="1.45294">
        <ele>141.39999389648</ele>
        <time>2013-10-27T09:47:49.000Z</time>
      </trkpt>
      <trkpt lat="43.64096" lon="1.45279">
        <ele>141.39999389648</ele>
        <time>2013-10-27T09:47:53.000Z</time>
      </trkpt>
      <trkpt lat="43.64079" lon="1.45254">
        <ele>141.39999389648</ele>
        <time>2013-10-27T09:48:00.000Z</time>
      </trkpt>
      <trkpt lat="43.64066" lon="1.45237">
        <ele>141.39999389648</ele>
        <time>2013-10-27T09:48:05.000Z</time>
      </trkpt>
      <trkpt lat="43.64053" lon="1.45221">
        <ele>141.39999389648</ele>
        <time>2013-10-27T09:48:10.000Z</time>
      </trkpt>
      <trkpt lat="43.64035" lon="1.45205">
        <ele>142</ele>
        <time>2013-10-27T09:48:15.000Z</time>
      </trkpt>
      <trkpt lat="43.64028" lon="1.45203">
        <ele>142.39999389648</ele>
        <time>2013-10-27T09:48:17.000Z</time>
      </trkpt>
      <trkpt lat="43.64016" lon="1.45212">
        <ele>142.80000305176</ele>
        <time>2013-10-27T09:48:21.000Z</time>
      </trkpt>
      <trkpt lat="43.63995" lon="1.4523">
        <ele>143</ele>
        <time>2013-10-27T09:48:27.000Z</time>
      </trkpt>
      <trkpt lat="43.6398" lon="1.45245">
        <ele>144</ele>
        <time>2013-10-27T09:48:32.000Z</time>
      </trkpt>
      <trkpt lat="43.63958" lon="1.45264">
        <ele>145.39999389648</ele>
        <time>2013-10-27T09:48:39.000Z</time>
      </trkpt>
      <trkpt lat="43.63938" lon="1.45275">
        <ele>146.60000610352</ele>
        <time>2013-10-27T09:48:45.000Z</time>
      </trkpt>
      <trkpt lat="43.63921" lon="1.45278">
        <ele>147.19999694824</ele>
        <time>2013-10-27T09:48:50.000Z</time>
      </trkpt>
      <trkpt lat="43.63918" lon="1.45278">
        <ele>147.19999694824</ele>
        <time>2013-10-27T09:48:51.000Z</time>
      </trkpt>
      <trkpt lat="43.63899" lon="1.4528">
        <ele>147.60000610352</ele>
        <time>2013-10-27T09:48:56.000Z</time>
      </trkpt>
      <trkpt lat="43.63879" lon="1.45281">
        <ele>147.80000305176</ele>
        <time>2013-10-27T09:49:02.000Z</time>
      </trkpt>
      <trkpt lat="43.63861" lon="1.45282">
        <ele>147.80000305176</ele>
        <time>2013-10-27T09:49:07.000Z</time>
      </trkpt>
      <trkpt lat="43.63841" lon="1.45281">
        <ele>147.80000305176</ele>
        <time>2013-10-27T09:49:13.000Z</time>
      </trkpt>
      <trkpt lat="43.6382" lon="1.45278">
        <ele>148</ele>
        <time>2013-10-27T09:49:19.000Z</time>
      </trkpt>
      <trkpt lat="43.63803" lon="1.45276">
        <ele>148</ele>
        <time>2013-10-27T09:49:24.000Z</time>
      </trkpt>
      <trkpt lat="43.63785" lon="1.45278">
        <ele>148</ele>
        <time>2013-10-27T09:49:29.000Z</time>
      </trkpt>
      <trkpt lat="43.63781" lon="1.45278">
        <ele>148</ele>
        <time>2013-10-27T09:49:30.000Z</time>
      </trkpt>
      <trkpt lat="43.63768" lon="1.45278">
        <ele>148.19999694824</ele>
        <time>2013-10-27T09:49:34.000Z</time>
      </trkpt>
      <trkpt lat="43.63749" lon="1.45279">
        <ele>149</ele>
        <time>2013-10-27T09:49:39.000Z</time>
      </trkpt>
      <trkpt lat="43.63728" lon="1.45282">
        <ele>149.39999389648</ele>
        <time>2013-10-27T09:49:45.000Z</time>
      </trkpt>
      <trkpt lat="43.63706" lon="1.45285">
        <ele>150.39999389648</ele>
        <time>2013-10-27T09:49:50.000Z</time>
      </trkpt>
      <trkpt lat="43.63702" lon="1.45285">
        <ele>150.60000610352</ele>
        <time>2013-10-27T09:49:51.000Z</time>
      </trkpt>
      <trkpt lat="43.63694" lon="1.45285">
        <ele>151.19999694824</ele>
        <time>2013-10-27T09:49:53.000Z</time>
      </trkpt>
      <trkpt lat="43.63676" lon="1.45286">
        <ele>152.39999389648</ele>
        <time>2013-10-27T09:49:58.000Z</time>
      </trkpt>
      <trkpt lat="43.63657" lon="1.45285">
        <ele>154</ele>
        <time>2013-10-27T09:50:03.000Z</time>
      </trkpt>
      <trkpt lat="43.63637" lon="1.45286">
        <ele>155.39999389648</ele>
        <time>2013-10-27T09:50:08.000Z</time>
      </trkpt>
      <trkpt lat="43.63617" lon="1.45288">
        <ele>156.60000610352</ele>
        <time>2013-10-27T09:50:13.000Z</time>
      </trkpt>
      <trkpt lat="43.63602" lon="1.45286">
        <ele>157.39999389648</ele>
        <time>2013-10-27T09:50:18.000Z</time>
      </trkpt>
      <trkpt lat="43.63582" lon="1.45285">
        <ele>157.80000305176</ele>
        <time>2013-10-27T09:50:24.000Z</time>
      </trkpt>
      <trkpt lat="43.63564" lon="1.45286">
        <ele>158.39999389648</ele>
        <time>2013-10-27T09:50:29.000Z</time>
      </trkpt>
      <trkpt lat="43.63546" lon="1.45286">
        <ele>159.19999694824</ele>
        <time>2013-10-27T09:50:34.000Z</time>
      </trkpt>
      <trkpt lat="43.63529" lon="1.45286">
        <ele>159.60000610352</ele>
        <time>2013-10-27T09:50:38.000Z</time>
      </trkpt>
      <trkpt lat="43.63507" lon="1.45294">
        <ele>161.19999694824</ele>
        <time>2013-10-27T09:50:45.000Z</time>
      </trkpt>
      <trkpt lat="43.63494" lon="1.45298">
        <ele>161.60000610352</ele>
        <time>2013-10-27T09:50:49.000Z</time>
      </trkpt>
      <trkpt lat="43.63481" lon="1.45303">
        <ele>161.39999389648</ele>
        <time>2013-10-27T09:50:53.000Z</time>
      </trkpt>
      <trkpt lat="43.63463" lon="1.45305">
        <ele>160.39999389648</ele>
        <time>2013-10-27T09:50:58.000Z</time>
      </trkpt>
      <trkpt lat="43.63441" lon="1.4531">
        <ele>158.60000610352</ele>
        <time>2013-10-27T09:51:04.000Z</time>
      </trkpt>
      <trkpt lat="43.63424" lon="1.4531">
        <ele>157</ele>
        <time>2013-10-27T09:51:09.000Z</time>
      </trkpt>
      <trkpt lat="43.63413" lon="1.45297">
        <ele>156</ele>
        <time>2013-10-27T09:51:13.000Z</time>
      </trkpt>
      <trkpt lat="43.63398" lon="1.45286">
        <ele>154.19999694824</ele>
        <time>2013-10-27T09:51:18.000Z</time>
      </trkpt>
      <trkpt lat="43.63378" lon="1.45279">
        <ele>152.19999694824</ele>
        <time>2013-10-27T09:51:24.000Z</time>
      </trkpt>
      <trkpt lat="43.63361" lon="1.45275">
        <ele>151.19999694824</ele>
        <time>2013-10-27T09:51:29.000Z</time>
      </trkpt>
      <trkpt lat="43.63342" lon="1.45265">
        <ele>149.39999389648</ele>
        <time>2013-10-27T09:51:35.000Z</time>
      </trkpt>
      <trkpt lat="43.63315" lon="1.45241">
        <ele>147.39999389648</ele>
        <time>2013-10-27T09:51:45.000Z</time>
      </trkpt>
      <trkpt lat="43.63301" lon="1.45225">
        <ele>146.39999389648</ele>
        <time>2013-10-27T09:51:51.000Z</time>
      </trkpt>
      <trkpt lat="43.63286" lon="1.45211">
        <ele>145.80000305176</ele>
        <time>2013-10-27T09:51:56.000Z</time>
      </trkpt>
      <trkpt lat="43.63272" lon="1.45197">
        <ele>144.80000305176</ele>
        <time>2013-10-27T09:52:01.000Z</time>
      </trkpt>
      <trkpt lat="43.63258" lon="1.45181">
        <ele>144.19999694824</ele>
        <time>2013-10-27T09:52:06.000Z</time>
      </trkpt>
      <trkpt lat="43.63242" lon="1.45165">
        <ele>143.80000305176</ele>
        <time>2013-10-27T09:52:11.000Z</time>
      </trkpt>
      <trkpt lat="43.63227" lon="1.45149">
        <ele>143.60000610352</ele>
        <time>2013-10-27T09:52:16.000Z</time>
      </trkpt>
      <trkpt lat="43.6321" lon="1.45141">
        <ele>143.39999389648</ele>
        <time>2013-10-27T09:52:21.000Z</time>
      </trkpt>
      <trkpt lat="43.63192" lon="1.45138">
        <ele>143.39999389648</ele>
        <time>2013-10-27T09:52:26.000Z</time>
      </trkpt>
      <trkpt lat="43.63174" lon="1.45138">
        <ele>143.39999389648</ele>
        <time>2013-10-27T09:52:31.000Z</time>
      </trkpt>
      <trkpt lat="43.63157" lon="1.45135">
        <ele>143.39999389648</ele>
        <time>2013-10-27T09:52:36.000Z</time>
      </trkpt>
      <trkpt lat="43.63138" lon="1.45131">
        <ele>143.39999389648</ele>
        <time>2013-10-27T09:52:41.000Z</time>
      </trkpt>
      <trkpt lat="43.63119" lon="1.45126">
        <ele>143.39999389648</ele>
        <time>2013-10-27T09:52:46.000Z</time>
      </trkpt>
      <trkpt lat="43.63102" lon="1.45121">
        <ele>143.39999389648</ele>
        <time>2013-10-27T09:52:51.000Z</time>
      </trkpt>
      <trkpt lat="43.63083" lon="1.45113">
        <ele>142.39999389648</ele>
        <time>2013-10-27T09:52:56.000Z</time>
      </trkpt>
      <trkpt lat="43.63066" lon="1.45105">
        <ele>142</ele>
        <time>2013-10-27T09:53:01.000Z</time>
      </trkpt>
      <trkpt lat="43.63047" lon="1.45094">
        <ele>141</ele>
        <time>2013-10-27T09:53:07.000Z</time>
      </trkpt>
      <trkpt lat="43.63029" lon="1.45079">
        <ele>140</ele>
        <time>2013-10-27T09:53:13.000Z</time>
      </trkpt>
      <trkpt lat="43.63013" lon="1.45066">
        <ele>139.60000610352</ele>
        <time>2013-10-27T09:53:18.000Z</time>
      </trkpt>
      <trkpt lat="43.62997" lon="1.45051">
        <ele>139.39999389648</ele>
        <time>2013-10-27T09:53:23.000Z</time>
      </trkpt>
      <trkpt lat="43.6298" lon="1.45033">
        <ele>138.60000610352</ele>
        <time>2013-10-27T09:53:29.000Z</time>
      </trkpt>
      <trkpt lat="43.62965" lon="1.45017">
        <ele>138</ele>
        <time>2013-10-27T09:53:34.000Z</time>
      </trkpt>
      <trkpt lat="43.62951" lon="1.45001">
        <ele>137.60000610352</ele>
        <time>2013-10-27T09:53:39.000Z</time>
      </trkpt>
      <trkpt lat="43.62933" lon="1.44981">
        <ele>137.39999389648</ele>
        <time>2013-10-27T09:53:46.000Z</time>
      </trkpt>
      <trkpt lat="43.62917" lon="1.44961">
        <ele>137.19999694824</ele>
        <time>2013-10-27T09:53:52.000Z</time>
      </trkpt>
      <trkpt lat="43.62903" lon="1.44942">
        <ele>137.80000305176</ele>
        <time>2013-10-27T09:53:58.000Z</time>
      </trkpt>
      <trkpt lat="43.6289" lon="1.44921">
        <ele>138.39999389648</ele>
        <time>2013-10-27T09:54:04.000Z</time>
      </trkpt>
      <trkpt lat="43.62878" lon="1.44899">
        <ele>138.80000305176</ele>
        <time>2013-10-27T09:54:10.000Z</time>
      </trkpt>
      <trkpt lat="43.62872" lon="1.44888">
        <ele>138.80000305176</ele>
        <time>2013-10-27T09:54:14.000Z</time>
      </trkpt>
      <trkpt lat="43.62866" lon="1.44875">
        <ele>139</ele>
        <time>2013-10-27T09:54:18.000Z</time>
      </trkpt>
      <trkpt lat="43.62861" lon="1.44863">
        <ele>139.80000305176</ele>
        <time>2013-10-27T09:54:22.000Z</time>
      </trkpt>
      <trkpt lat="43.62853" lon="1.44846">
        <ele>140.19999694824</ele>
        <time>2013-10-27T09:54:26.000Z</time>
      </trkpt>
      <trkpt lat="43.62842" lon="1.44825">
        <ele>140.60000610352</ele>
        <time>2013-10-27T09:54:31.000Z</time>
      </trkpt>
      <trkpt lat="43.62829" lon="1.44802">
        <ele>140.80000305176</ele>
        <time>2013-10-27T09:54:36.000Z</time>
      </trkpt>
      <trkpt lat="43.62827" lon="1.44798">
        <ele>140.80000305176</ele>
        <time>2013-10-27T09:54:37.000Z</time>
      </trkpt>
      <trkpt lat="43.62818" lon="1.4478">
        <ele>141</ele>
        <time>2013-10-27T09:54:41.000Z</time>
      </trkpt>
      <trkpt lat="43.62807" lon="1.44755">
        <ele>141</ele>
        <time>2013-10-27T09:54:47.000Z</time>
      </trkpt>
      <trkpt lat="43.62797" lon="1.44733">
        <ele>141</ele>
        <time>2013-10-27T09:54:52.000Z</time>
      </trkpt>
      <trkpt lat="43.62786" lon="1.4471">
        <ele>141</ele>
        <time>2013-10-27T09:54:57.000Z</time>
      </trkpt>
      <trkpt lat="43.62777" lon="1.44688">
        <ele>141.19999694824</ele>
        <time>2013-10-27T09:55:02.000Z</time>
      </trkpt>
      <trkpt lat="43.62767" lon="1.44667">
        <ele>141.80000305176</ele>
        <time>2013-10-27T09:55:07.000Z</time>
      </trkpt>
      <trkpt lat="43.62757" lon="1.44646">
        <ele>142.39999389648</ele>
        <time>2013-10-27T09:55:12.000Z</time>
      </trkpt>
      <trkpt lat="43.62744" lon="1.44621">
        <ele>142.80000305176</ele>
        <time>2013-10-27T09:55:18.000Z</time>
      </trkpt>
      <trkpt lat="43.62738" lon="1.44597">
        <ele>143</ele>
        <time>2013-10-27T09:55:23.000Z</time>
      </trkpt>
      <trkpt lat="43.62734" lon="1.44573">
        <ele>143</ele>
        <time>2013-10-27T09:55:28.000Z</time>
      </trkpt>
      <trkpt lat="43.62719" lon="1.44549">
        <ele>143</ele>
        <time>2013-10-27T09:55:35.000Z</time>
      </trkpt>
      <trkpt lat="43.62706" lon="1.4453">
        <ele>143.19999694824</ele>
        <time>2013-10-27T09:55:39.000Z</time>
      </trkpt>
      <trkpt lat="43.62701" lon="1.4452">
        <ele>143.19999694824</ele>
        <time>2013-10-27T09:55:42.000Z</time>
      </trkpt>
      <trkpt lat="43.62699" lon="1.44519">
        <ele>143.19999694824</ele>
        <time>2013-10-27T09:55:44.000Z</time>
      </trkpt>
      <trkpt lat="43.62694" lon="1.44498">
        <ele>143.19999694824</ele>
        <time>2013-10-27T09:55:50.000Z</time>
      </trkpt>
      <trkpt lat="43.62684" lon="1.44472">
        <ele>143.19999694824</ele>
        <time>2013-10-27T09:55:55.000Z</time>
      </trkpt>
      <trkpt lat="43.62677" lon="1.44449">
        <ele>143.19999694824</ele>
        <time>2013-10-27T09:56:00.000Z</time>
      </trkpt>
      <trkpt lat="43.62667" lon="1.44425">
        <ele>143.19999694824</ele>
        <time>2013-10-27T09:56:06.000Z</time>
      </trkpt>
      <trkpt lat="43.62657" lon="1.444">
        <ele>143.19999694824</ele>
        <time>2013-10-27T09:56:12.000Z</time>
      </trkpt>
      <trkpt lat="43.62646" lon="1.44376">
        <ele>143.19999694824</ele>
        <time>2013-10-27T09:56:18.000Z</time>
      </trkpt>
      <trkpt lat="43.62635" lon="1.44359">
        <ele>143.19999694824</ele>
        <time>2013-10-27T09:56:23.000Z</time>
      </trkpt>
      <trkpt lat="43.6262" lon="1.44346">
        <ele>143.19999694824</ele>
        <time>2013-10-27T09:56:28.000Z</time>
      </trkpt>
      <trkpt lat="43.62601" lon="1.44336">
        <ele>143.19999694824</ele>
        <time>2013-10-27T09:56:34.000Z</time>
      </trkpt>
      <trkpt lat="43.62581" lon="1.44326">
        <ele>143.19999694824</ele>
        <time>2013-10-27T09:56:40.000Z</time>
      </trkpt>
      <trkpt lat="43.62563" lon="1.44319">
        <ele>143.19999694824</ele>
        <time>2013-10-27T09:56:45.000Z</time>
      </trkpt>
      <trkpt lat="43.62543" lon="1.44311">
        <ele>143.19999694824</ele>
        <time>2013-10-27T09:56:51.000Z</time>
      </trkpt>
      <trkpt lat="43.62525" lon="1.44305">
        <ele>143.19999694824</ele>
        <time>2013-10-27T09:56:56.000Z</time>
      </trkpt>
      <trkpt lat="43.62508" lon="1.443">
        <ele>143.19999694824</ele>
        <time>2013-10-27T09:57:01.000Z</time>
      </trkpt>
      <trkpt lat="43.62487" lon="1.44293">
        <ele>143.19999694824</ele>
        <time>2013-10-27T09:57:07.000Z</time>
      </trkpt>
      <trkpt lat="43.62478" lon="1.44281">
        <ele>143.39999389648</ele>
        <time>2013-10-27T09:57:11.000Z</time>
      </trkpt>
      <trkpt lat="43.62478" lon="1.4426">
        <ele>144</ele>
        <time>2013-10-27T09:57:15.000Z</time>
      </trkpt>
      <trkpt lat="43.62479" lon="1.44249">
        <ele>144.39999389648</ele>
        <time>2013-10-27T09:57:17.000Z</time>
      </trkpt>
      <trkpt lat="43.6248" lon="1.44238">
        <ele>144.60000610352</ele>
        <time>2013-10-27T09:57:19.000Z</time>
      </trkpt>
      <trkpt lat="43.62485" lon="1.44212">
        <ele>144.80000305176</ele>
        <time>2013-10-27T09:57:24.000Z</time>
      </trkpt>
      <trkpt lat="43.6249" lon="1.44188">
        <ele>145</ele>
        <time>2013-10-27T09:57:29.000Z</time>
      </trkpt>
      <trkpt lat="43.62496" lon="1.44167">
        <ele>145.19999694824</ele>
        <time>2013-10-27T09:57:34.000Z</time>
      </trkpt>
      <trkpt lat="43.625" lon="1.44148">
        <ele>145.19999694824</ele>
        <time>2013-10-27T09:57:38.000Z</time>
      </trkpt>
      <trkpt lat="43.62504" lon="1.44122">
        <ele>145.19999694824</ele>
        <time>2013-10-27T09:57:43.000Z</time>
      </trkpt>
      <trkpt lat="43.62507" lon="1.44098">
        <ele>145.39999389648</ele>
        <time>2013-10-27T09:57:48.000Z</time>
      </trkpt>
      <trkpt lat="43.62513" lon="1.44071">
        <ele>145.39999389648</ele>
        <time>2013-10-27T09:57:54.000Z</time>
      </trkpt>
      <trkpt lat="43.62523" lon="1.44052">
        <ele>145.39999389648</ele>
        <time>2013-10-27T09:57:59.000Z</time>
      </trkpt>
      <trkpt lat="43.62529" lon="1.44031">
        <ele>144.39999389648</ele>
        <time>2013-10-27T09:58:04.000Z</time>
      </trkpt>
      <trkpt lat="43.62537" lon="1.44009">
        <ele>144</ele>
        <time>2013-10-27T09:58:09.000Z</time>
      </trkpt>
      <trkpt lat="43.62542" lon="1.43992">
        <ele>143</ele>
        <time>2013-10-27T09:58:13.000Z</time>
      </trkpt>
      <trkpt lat="43.62545" lon="1.43974">
        <ele>142.39999389648</ele>
        <time>2013-10-27T09:58:17.000Z</time>
      </trkpt>
      <trkpt lat="43.62553" lon="1.43953">
        <ele>141.80000305176</ele>
        <time>2013-10-27T09:58:22.000Z</time>
      </trkpt>
      <trkpt lat="43.6256" lon="1.43927">
        <ele>141.60000610352</ele>
        <time>2013-10-27T09:58:28.000Z</time>
      </trkpt>
      <trkpt lat="43.62565" lon="1.43911">
        <ele>141.39999389648</ele>
        <time>2013-10-27T09:58:32.000Z</time>
      </trkpt>
      <trkpt lat="43.6257" lon="1.43885">
        <ele>141.39999389648</ele>
        <time>2013-10-27T09:58:38.000Z</time>
      </trkpt>
      <trkpt lat="43.6258" lon="1.43864">
        <ele>141.19999694824</ele>
        <time>2013-10-27T09:58:43.000Z</time>
      </trkpt>
      <trkpt lat="43.62589" lon="1.43818">
        <ele>141.19999694824</ele>
        <time>2013-10-27T09:58:53.000Z</time>
      </trkpt>
      <trkpt lat="43.62594" lon="1.43797">
        <ele>141.19999694824</ele>
        <time>2013-10-27T09:58:58.000Z</time>
      </trkpt>
      <trkpt lat="43.626" lon="1.4377">
        <ele>141.19999694824</ele>
        <time>2013-10-27T09:59:04.000Z</time>
      </trkpt>
      <trkpt lat="43.62608" lon="1.43748">
        <ele>141.19999694824</ele>
        <time>2013-10-27T09:59:09.000Z</time>
      </trkpt>
      <trkpt lat="43.62616" lon="1.43728">
        <ele>141.19999694824</ele>
        <time>2013-10-27T09:59:14.000Z</time>
      </trkpt>
      <trkpt lat="43.62621" lon="1.43712">
        <ele>141.19999694824</ele>
        <time>2013-10-27T09:59:18.000Z</time>
      </trkpt>
      <trkpt lat="43.62625" lon="1.43689">
        <ele>141.19999694824</ele>
        <time>2013-10-27T09:59:23.000Z</time>
      </trkpt>
      <trkpt lat="43.62631" lon="1.43661">
        <ele>141.19999694824</ele>
        <time>2013-10-27T09:59:29.000Z</time>
      </trkpt>
      <trkpt lat="43.62636" lon="1.43638">
        <ele>141.19999694824</ele>
        <time>2013-10-27T09:59:34.000Z</time>
      </trkpt>
      <trkpt lat="43.62641" lon="1.43602">
        <ele>141.19999694824</ele>
        <time>2013-10-27T09:59:42.000Z</time>
      </trkpt>
      <trkpt lat="43.62646" lon="1.43588">
        <ele>141.19999694824</ele>
        <time>2013-10-27T09:59:46.000Z</time>
      </trkpt>
      <trkpt lat="43.62651" lon="1.4357">
        <ele>141.19999694824</ele>
        <time>2013-10-27T09:59:50.000Z</time>
      </trkpt>
      <trkpt lat="43.62667" lon="1.43545">
        <ele>141.19999694824</ele>
        <time>2013-10-27T09:59:56.000Z</time>
      </trkpt>
      <trkpt lat="43.62674" lon="1.43522">
        <ele>141.19999694824</ele>
        <time>2013-10-27T10:00:01.000Z</time>
      </trkpt>
      <trkpt lat="43.62675" lon="1.43497">
        <ele>141.19999694824</ele>
        <time>2013-10-27T10:00:06.000Z</time>
      </trkpt>
      <trkpt lat="43.62678" lon="1.43479">
        <ele>141.19999694824</ele>
        <time>2013-10-27T10:00:10.000Z</time>
      </trkpt>
      <trkpt lat="43.62679" lon="1.43452">
        <ele>141.19999694824</ele>
        <time>2013-10-27T10:00:16.000Z</time>
      </trkpt>
      <trkpt lat="43.62687" lon="1.43436">
        <ele>141</ele>
        <time>2013-10-27T10:00:20.000Z</time>
      </trkpt>
      <trkpt lat="43.62696" lon="1.43417">
        <ele>140.19999694824</ele>
        <time>2013-10-27T10:00:25.000Z</time>
      </trkpt>
      <trkpt lat="43.62692" lon="1.43405">
        <ele>140</ele>
        <time>2013-10-27T10:00:28.000Z</time>
      </trkpt>
      <trkpt lat="43.62675" lon="1.434">
        <ele>139.60000610352</ele>
        <time>2013-10-27T10:00:33.000Z</time>
      </trkpt>
      <trkpt lat="43.62654" lon="1.43404">
        <ele>139.39999389648</ele>
        <time>2013-10-27T10:00:38.000Z</time>
      </trkpt>
      <trkpt lat="43.6265" lon="1.43405">
        <ele>139.39999389648</ele>
        <time>2013-10-27T10:00:39.000Z</time>
      </trkpt>
      <trkpt lat="43.62626" lon="1.43409">
        <ele>140.19999694824</ele>
        <time>2013-10-27T10:00:45.000Z</time>
      </trkpt>
      <trkpt lat="43.62608" lon="1.43411">
        <ele>141.60000610352</ele>
        <time>2013-10-27T10:00:50.000Z</time>
      </trkpt>
      <trkpt lat="43.62589" lon="1.43414">
        <ele>143</ele>
        <time>2013-10-27T10:00:55.000Z</time>
      </trkpt>
      <trkpt lat="43.62571" lon="1.43418">
        <ele>144.39999389648</ele>
        <time>2013-10-27T10:01:00.000Z</time>
      </trkpt>
      <trkpt lat="43.62552" lon="1.43421">
        <ele>145.80000305176</ele>
        <time>2013-10-27T10:01:05.000Z</time>
      </trkpt>
      <trkpt lat="43.62534" lon="1.4342">
        <ele>147</ele>
        <time>2013-10-27T10:01:10.000Z</time>
      </trkpt>
      <trkpt lat="43.62514" lon="1.43422">
        <ele>148.19999694824</ele>
        <time>2013-10-27T10:01:16.000Z</time>
      </trkpt>
      <trkpt lat="43.625" lon="1.43425">
        <ele>149</ele>
        <time>2013-10-27T10:01:21.000Z</time>
      </trkpt>
      <trkpt lat="43.62488" lon="1.43429">
        <ele>150</ele>
        <time>2013-10-27T10:01:25.000Z</time>
      </trkpt>
      <trkpt lat="43.62473" lon="1.43432">
        <ele>150.80000305176</ele>
        <time>2013-10-27T10:01:30.000Z</time>
      </trkpt>
      <trkpt lat="43.62459" lon="1.43434">
        <ele>151.60000610352</ele>
        <time>2013-10-27T10:01:34.000Z</time>
      </trkpt>
      <trkpt lat="43.6245" lon="1.43432">
        <ele>152.60000610352</ele>
        <time>2013-10-27T10:01:39.000Z</time>
      </trkpt>
      <trkpt lat="43.6244" lon="1.4343">
        <ele>153.60000610352</ele>
        <time>2013-10-27T10:01:44.000Z</time>
      </trkpt>
      <trkpt lat="43.62421" lon="1.43427">
        <ele>154.80000305176</ele>
        <time>2013-10-27T10:01:50.000Z</time>
      </trkpt>
      <trkpt lat="43.62401" lon="1.43428">
        <ele>155.19999694824</ele>
        <time>2013-10-27T10:01:54.000Z</time>
      </trkpt>
      <trkpt lat="43.6239" lon="1.43426">
        <ele>155.80000305176</ele>
        <time>2013-10-27T10:01:57.000Z</time>
      </trkpt>
      <trkpt lat="43.62381" lon="1.43425">
        <ele>156.19999694824</ele>
        <time>2013-10-27T10:01:58.000Z</time>
      </trkpt>
      <trkpt lat="43.62372" lon="1.4343">
        <ele>156.80000305176</ele>
        <time>2013-10-27T10:02:01.000Z</time>
      </trkpt>
      <trkpt lat="43.62353" lon="1.43439">
        <ele>157.39999389648</ele>
        <time>2013-10-27T10:02:07.000Z</time>
      </trkpt>
      <trkpt lat="43.62333" lon="1.43447">
        <ele>157.80000305176</ele>
        <time>2013-10-27T10:02:13.000Z</time>
      </trkpt>
      <trkpt lat="43.62317" lon="1.43455">
        <ele>158</ele>
        <time>2013-10-27T10:02:18.000Z</time>
      </trkpt>
      <trkpt lat="43.62301" lon="1.43461">
        <ele>158</ele>
        <time>2013-10-27T10:02:23.000Z</time>
      </trkpt>
      <trkpt lat="43.62293" lon="1.43464">
        <ele>158</ele>
        <time>2013-10-27T10:02:28.000Z</time>
      </trkpt>
      <trkpt lat="43.62282" lon="1.4347">
        <ele>158</ele>
        <time>2013-10-27T10:02:32.000Z</time>
      </trkpt>
      <trkpt lat="43.62268" lon="1.43475">
        <ele>158.19999694824</ele>
        <time>2013-10-27T10:02:37.000Z</time>
      </trkpt>
      <trkpt lat="43.62248" lon="1.43484">
        <ele>158.19999694824</ele>
        <time>2013-10-27T10:02:43.000Z</time>
      </trkpt>
      <trkpt lat="43.62231" lon="1.43491">
        <ele>157.19999694824</ele>
        <time>2013-10-27T10:02:48.000Z</time>
      </trkpt>
      <trkpt lat="43.62215" lon="1.43499">
        <ele>156.80000305176</ele>
        <time>2013-10-27T10:02:53.000Z</time>
      </trkpt>
      <trkpt lat="43.62198" lon="1.43511">
        <ele>156.39999389648</ele>
        <time>2013-10-27T10:02:59.000Z</time>
      </trkpt>
      <trkpt lat="43.62183" lon="1.43518">
        <ele>156.19999694824</ele>
        <time>2013-10-27T10:03:04.000Z</time>
      </trkpt>
      <trkpt lat="43.62168" lon="1.4352">
        <ele>156.19999694824</ele>
        <time>2013-10-27T10:03:08.000Z</time>
      </trkpt>
      <trkpt lat="43.62149" lon="1.43522">
        <ele>156.19999694824</ele>
        <time>2013-10-27T10:03:13.000Z</time>
      </trkpt>
      <trkpt lat="43.62128" lon="1.4352">
        <ele>156.19999694824</ele>
        <time>2013-10-27T10:03:18.000Z</time>
      </trkpt>
      <trkpt lat="43.62116" lon="1.43527">
        <ele>157</ele>
        <time>2013-10-27T10:03:22.000Z</time>
      </trkpt>
      <trkpt lat="43.62104" lon="1.4353">
        <ele>157.19999694824</ele>
        <time>2013-10-27T10:03:25.000Z</time>
      </trkpt>
      <trkpt lat="43.62102" lon="1.43533">
        <ele>157.39999389648</ele>
        <time>2013-10-27T10:03:26.000Z</time>
      </trkpt>
      <trkpt lat="43.62091" lon="1.43547">
        <ele>157.60000610352</ele>
        <time>2013-10-27T10:03:32.000Z</time>
      </trkpt>
      <trkpt lat="43.6208" lon="1.43554">
        <ele>157.80000305176</ele>
        <time>2013-10-27T10:03:37.000Z</time>
      </trkpt>
      <trkpt lat="43.62064" lon="1.43564">
        <ele>158</ele>
        <time>2013-10-27T10:03:42.000Z</time>
      </trkpt>
      <trkpt lat="43.62048" lon="1.43576">
        <ele>158</ele>
        <time>2013-10-27T10:03:47.000Z</time>
      </trkpt>
      <trkpt lat="43.62032" lon="1.43587">
        <ele>158</ele>
        <time>2013-10-27T10:03:53.000Z</time>
      </trkpt>
      <trkpt lat="43.62012" lon="1.43595">
        <ele>158</ele>
        <time>2013-10-27T10:03:59.000Z</time>
      </trkpt>
      <trkpt lat="43.61993" lon="1.43604">
        <ele>158</ele>
        <time>2013-10-27T10:04:05.000Z</time>
      </trkpt>
      <trkpt lat="43.61974" lon="1.43611">
        <ele>158</ele>
        <time>2013-10-27T10:04:12.000Z</time>
      </trkpt>
      <trkpt lat="43.61953" lon="1.43618">
        <ele>158</ele>
        <time>2013-10-27T10:04:19.000Z</time>
      </trkpt>
      <trkpt lat="43.61934" lon="1.43624">
        <ele>158</ele>
        <time>2013-10-27T10:04:25.000Z</time>
      </trkpt>
      <trkpt lat="43.6192" lon="1.43628">
        <ele>158</ele>
        <time>2013-10-27T10:04:29.000Z</time>
      </trkpt>
      <trkpt lat="43.61906" lon="1.43634">
        <ele>158</ele>
        <time>2013-10-27T10:04:34.000Z</time>
      </trkpt>
      <trkpt lat="43.6189" lon="1.43639">
        <ele>157.60000610352</ele>
        <time>2013-10-27T10:04:39.000Z</time>
      </trkpt>
      <trkpt lat="43.61873" lon="1.43644">
        <ele>156.80000305176</ele>
        <time>2013-10-27T10:04:45.000Z</time>
      </trkpt>
      <trkpt lat="43.61861" lon="1.43649">
        <ele>156.60000610352</ele>
        <time>2013-10-27T10:04:49.000Z</time>
      </trkpt>
      <trkpt lat="43.61844" lon="1.43654">
        <ele>156.39999389648</ele>
        <time>2013-10-27T10:04:54.000Z</time>
      </trkpt>
      <trkpt lat="43.61826" lon="1.4366">
        <ele>156.19999694824</ele>
        <time>2013-10-27T10:04:59.000Z</time>
      </trkpt>
      <trkpt lat="43.61805" lon="1.43666">
        <ele>156.19999694824</ele>
        <time>2013-10-27T10:05:05.000Z</time>
      </trkpt>
      <trkpt lat="43.61786" lon="1.43673">
        <ele>156</ele>
        <time>2013-10-27T10:05:11.000Z</time>
      </trkpt>
      <trkpt lat="43.61768" lon="1.4368">
        <ele>156</ele>
        <time>2013-10-27T10:05:17.000Z</time>
      </trkpt>
      <trkpt lat="43.61748" lon="1.43686">
        <ele>156</ele>
        <time>2013-10-27T10:05:23.000Z</time>
      </trkpt>
      <trkpt lat="43.61733" lon="1.4369">
        <ele>156</ele>
        <time>2013-10-27T10:05:28.000Z</time>
      </trkpt>
      <trkpt lat="43.61715" lon="1.43696">
        <ele>156</ele>
        <time>2013-10-27T10:05:34.000Z</time>
      </trkpt>
      <trkpt lat="43.61697" lon="1.43704">
        <ele>156</ele>
        <time>2013-10-27T10:05:40.000Z</time>
      </trkpt>
      <trkpt lat="43.6168" lon="1.43711">
        <ele>156</ele>
        <time>2013-10-27T10:05:46.000Z</time>
      </trkpt>
      <trkpt lat="43.61665" lon="1.43715">
        <ele>156</ele>
        <time>2013-10-27T10:05:51.000Z</time>
      </trkpt>
      <trkpt lat="43.61647" lon="1.43721">
        <ele>156.80000305176</ele>
        <time>2013-10-27T10:05:57.000Z</time>
      </trkpt>
      <trkpt lat="43.61627" lon="1.43729">
        <ele>157.39999389648</ele>
        <time>2013-10-27T10:06:04.000Z</time>
      </trkpt>
      <trkpt lat="43.61612" lon="1.43735">
        <ele>157.80000305176</ele>
        <time>2013-10-27T10:06:09.000Z</time>
      </trkpt>
      <trkpt lat="43.61593" lon="1.43741">
        <ele>157.80000305176</ele>
        <time>2013-10-27T10:06:15.000Z</time>
      </trkpt>
      <trkpt lat="43.6159" lon="1.43742">
        <ele>157.80000305176</ele>
        <time>2013-10-27T10:06:16.000Z</time>
      </trkpt>
      <trkpt lat="43.61574" lon="1.43745">
        <ele>158</ele>
        <time>2013-10-27T10:06:21.000Z</time>
      </trkpt>
      <trkpt lat="43.6156" lon="1.43752">
        <ele>158</ele>
        <time>2013-10-27T10:06:26.000Z</time>
      </trkpt>
      <trkpt lat="43.61542" lon="1.43756">
        <ele>158</ele>
        <time>2013-10-27T10:06:32.000Z</time>
      </trkpt>
      <trkpt lat="43.61528" lon="1.4376">
        <ele>158</ele>
        <time>2013-10-27T10:06:37.000Z</time>
      </trkpt>
      <trkpt lat="43.61524" lon="1.43768">
        <ele>158</ele>
        <time>2013-10-27T10:06:41.000Z</time>
      </trkpt>
      <trkpt lat="43.61519" lon="1.43769">
        <ele>158</ele>
        <time>2013-10-27T10:06:42.000Z</time>
      </trkpt>
      <trkpt lat="43.61495" lon="1.43773">
        <ele>158</ele>
        <time>2013-10-27T10:06:48.000Z</time>
      </trkpt>
      <trkpt lat="43.61482" lon="1.43775">
        <ele>157.39999389648</ele>
        <time>2013-10-27T10:06:51.000Z</time>
      </trkpt>
      <trkpt lat="43.61468" lon="1.43781">
        <ele>157</ele>
        <time>2013-10-27T10:06:55.000Z</time>
      </trkpt>
      <trkpt lat="43.61444" lon="1.43787">
        <ele>156.39999389648</ele>
        <time>2013-10-27T10:07:02.000Z</time>
      </trkpt>
      <trkpt lat="43.61429" lon="1.43792">
        <ele>156.39999389648</ele>
        <time>2013-10-27T10:07:06.000Z</time>
      </trkpt>
      <trkpt lat="43.61409" lon="1.43795">
        <ele>156.19999694824</ele>
        <time>2013-10-27T10:07:12.000Z</time>
      </trkpt>
      <trkpt lat="43.6139" lon="1.438">
        <ele>156.19999694824</ele>
        <time>2013-10-27T10:07:18.000Z</time>
      </trkpt>
      <trkpt lat="43.61371" lon="1.43804">
        <ele>156</ele>
        <time>2013-10-27T10:07:22.000Z</time>
      </trkpt>
      <trkpt lat="43.61355" lon="1.43809">
        <ele>156</ele>
        <time>2013-10-27T10:07:27.000Z</time>
      </trkpt>
      <trkpt lat="43.61338" lon="1.43814">
        <ele>155.60000610352</ele>
        <time>2013-10-27T10:07:31.000Z</time>
      </trkpt>
      <trkpt lat="43.6132" lon="1.4382">
        <ele>155</ele>
        <time>2013-10-27T10:07:37.000Z</time>
      </trkpt>
      <trkpt lat="43.61295" lon="1.43834">
        <ele>154.39999389648</ele>
        <time>2013-10-27T10:07:47.000Z</time>
      </trkpt>
      <trkpt lat="43.61266" lon="1.43842">
        <ele>154.19999694824</ele>
        <time>2013-10-27T10:07:57.000Z</time>
      </trkpt>
      <trkpt lat="43.61253" lon="1.43845">
        <ele>154.60000610352</ele>
        <time>2013-10-27T10:08:01.000Z</time>
      </trkpt>
      <trkpt lat="43.61244" lon="1.43845">
        <ele>155</ele>
        <time>2013-10-27T10:08:02.000Z</time>
      </trkpt>
      <trkpt lat="43.61223" lon="1.43843">
        <ele>155.39999389648</ele>
        <time>2013-10-27T10:08:06.000Z</time>
      </trkpt>
      <trkpt lat="43.61216" lon="1.43845">
        <ele>155.39999389648</ele>
        <time>2013-10-27T10:08:08.000Z</time>
      </trkpt>
      <trkpt lat="43.61202" lon="1.43846">
        <ele>155.80000305176</ele>
        <time>2013-10-27T10:08:12.000Z</time>
      </trkpt>
      <trkpt lat="43.61186" lon="1.43844">
        <ele>156.19999694824</ele>
        <time>2013-10-27T10:08:15.000Z</time>
      </trkpt>
      <trkpt lat="43.61167" lon="1.4385">
        <ele>157</ele>
        <time>2013-10-27T10:08:20.000Z</time>
      </trkpt>
      <trkpt lat="43.61163" lon="1.4387">
        <ele>157.39999389648</ele>
        <time>2013-10-27T10:08:24.000Z</time>
      </trkpt>
      <trkpt lat="43.61161" lon="1.4388">
        <ele>157.60000610352</ele>
        <time>2013-10-27T10:08:26.000Z</time>
      </trkpt>
      <trkpt lat="43.61152" lon="1.43912">
        <ele>157.80000305176</ele>
        <time>2013-10-27T10:08:32.000Z</time>
      </trkpt>
      <trkpt lat="43.61147" lon="1.43933">
        <ele>158</ele>
        <time>2013-10-27T10:08:36.000Z</time>
      </trkpt>
      <trkpt lat="43.61142" lon="1.43956">
        <ele>158</ele>
        <time>2013-10-27T10:08:41.000Z</time>
      </trkpt>
      <trkpt lat="43.61135" lon="1.43983">
        <ele>158.19999694824</ele>
        <time>2013-10-27T10:08:47.000Z</time>
      </trkpt>
      <trkpt lat="43.61133" lon="1.43988">
        <ele>158.19999694824</ele>
        <time>2013-10-27T10:08:48.000Z</time>
      </trkpt>
      <trkpt lat="43.61134" lon="1.44012">
        <ele>157.39999389648</ele>
        <time>2013-10-27T10:08:53.000Z</time>
      </trkpt>
      <trkpt lat="43.6113" lon="1.44033">
        <ele>156.80000305176</ele>
        <time>2013-10-27T10:08:58.000Z</time>
      </trkpt>
      <trkpt lat="43.61125" lon="1.44056">
        <ele>156.60000610352</ele>
        <time>2013-10-27T10:09:03.000Z</time>
      </trkpt>
      <trkpt lat="43.6112" lon="1.44082">
        <ele>156.39999389648</ele>
        <time>2013-10-27T10:09:08.000Z</time>
      </trkpt>
      <trkpt lat="43.61115" lon="1.44106">
        <ele>156.19999694824</ele>
        <time>2013-10-27T10:09:13.000Z</time>
      </trkpt>
      <trkpt lat="43.61113" lon="1.44127">
        <ele>156.19999694824</ele>
        <time>2013-10-27T10:09:17.000Z</time>
      </trkpt>
      <trkpt lat="43.61108" lon="1.44151">
        <ele>156.19999694824</ele>
        <time>2013-10-27T10:09:22.000Z</time>
      </trkpt>
      <trkpt lat="43.61103" lon="1.44177">
        <ele>156</ele>
        <time>2013-10-27T10:09:28.000Z</time>
      </trkpt>
      <trkpt lat="43.61101" lon="1.44203">
        <ele>156</ele>
        <time>2013-10-27T10:09:34.000Z</time>
      </trkpt>
      <trkpt lat="43.61098" lon="1.44223">
        <ele>156</ele>
        <time>2013-10-27T10:09:38.000Z</time>
      </trkpt>
      <trkpt lat="43.61093" lon="1.44247">
        <ele>156</ele>
        <time>2013-10-27T10:09:43.000Z</time>
      </trkpt>
      <trkpt lat="43.61087" lon="1.44265">
        <ele>156</ele>
        <time>2013-10-27T10:09:47.000Z</time>
      </trkpt>
      <trkpt lat="43.61085" lon="1.44285">
        <ele>156</ele>
        <time>2013-10-27T10:09:51.000Z</time>
      </trkpt>
      <trkpt lat="43.61083" lon="1.44289">
        <ele>156</ele>
        <time>2013-10-27T10:09:52.000Z</time>
      </trkpt>
      <trkpt lat="43.6108" lon="1.44304">
        <ele>156</ele>
        <time>2013-10-27T10:09:55.000Z</time>
      </trkpt>
      <trkpt lat="43.61073" lon="1.44327">
        <ele>156</ele>
        <time>2013-10-27T10:10:00.000Z</time>
      </trkpt>
      <trkpt lat="43.61071" lon="1.4433">
        <ele>156</ele>
        <time>2013-10-27T10:10:01.000Z</time>
      </trkpt>
      <trkpt lat="43.61059" lon="1.44343">
        <ele>156</ele>
        <time>2013-10-27T10:10:05.000Z</time>
      </trkpt>
      <trkpt lat="43.6105" lon="1.44357">
        <ele>156</ele>
        <time>2013-10-27T10:10:09.000Z</time>
      </trkpt>
      <trkpt lat="43.61043" lon="1.44368">
        <ele>156</ele>
        <time>2013-10-27T10:10:12.000Z</time>
      </trkpt>
      <trkpt lat="43.6103" lon="1.44385">
        <ele>156.19999694824</ele>
        <time>2013-10-27T10:10:17.000Z</time>
      </trkpt>
      <trkpt lat="43.61015" lon="1.44405">
        <ele>157</ele>
        <time>2013-10-27T10:10:23.000Z</time>
      </trkpt>
      <trkpt lat="43.60997" lon="1.44422">
        <ele>157.60000610352</ele>
        <time>2013-10-27T10:10:30.000Z</time>
      </trkpt>
      <trkpt lat="43.60984" lon="1.44438">
        <ele>157.80000305176</ele>
        <time>2013-10-27T10:10:34.000Z</time>
      </trkpt>
      <trkpt lat="43.60967" lon="1.44455">
        <ele>158</ele>
        <time>2013-10-27T10:10:40.000Z</time>
      </trkpt>
      <trkpt lat="43.60954" lon="1.44468">
        <ele>158.19999694824</ele>
        <time>2013-10-27T10:10:45.000Z</time>
      </trkpt>
      <trkpt lat="43.6094" lon="1.44483">
        <ele>159</ele>
        <time>2013-10-27T10:10:50.000Z</time>
      </trkpt>
      <trkpt lat="43.60923" lon="1.44499">
        <ele>159.39999389648</ele>
        <time>2013-10-27T10:10:57.000Z</time>
      </trkpt>
      <trkpt lat="43.60906" lon="1.44512">
        <ele>159.80000305176</ele>
        <time>2013-10-27T10:11:01.000Z</time>
      </trkpt>
      <trkpt lat="43.60892" lon="1.44527">
        <ele>159.80000305176</ele>
        <time>2013-10-27T10:11:06.000Z</time>
      </trkpt>
      <trkpt lat="43.60879" lon="1.4454">
        <ele>160</ele>
        <time>2013-10-27T10:11:11.000Z</time>
      </trkpt>
      <trkpt lat="43.60863" lon="1.44557">
        <ele>160.60000610352</ele>
        <time>2013-10-27T10:11:17.000Z</time>
      </trkpt>
      <trkpt lat="43.6085" lon="1.44575">
        <ele>161.19999694824</ele>
        <time>2013-10-27T10:11:22.000Z</time>
      </trkpt>
      <trkpt lat="43.60834" lon="1.44592">
        <ele>161.60000610352</ele>
        <time>2013-10-27T10:11:28.000Z</time>
      </trkpt>
      <trkpt lat="43.60817" lon="1.44608">
        <ele>162</ele>
        <time>2013-10-27T10:11:34.000Z</time>
      </trkpt>
      <trkpt lat="43.608" lon="1.44624">
        <ele>162</ele>
        <time>2013-10-27T10:11:40.000Z</time>
      </trkpt>
      <trkpt lat="43.60777" lon="1.44654">
        <ele>162.19999694824</ele>
        <time>2013-10-27T10:11:50.000Z</time>
      </trkpt>
      <trkpt lat="43.60764" lon="1.44667">
        <ele>162.19999694824</ele>
        <time>2013-10-27T10:11:55.000Z</time>
      </trkpt>
      <trkpt lat="43.60749" lon="1.44682">
        <ele>162.19999694824</ele>
        <time>2013-10-27T10:12:00.000Z</time>
      </trkpt>
      <trkpt lat="43.60736" lon="1.44695">
        <ele>162.19999694824</ele>
        <time>2013-10-27T10:12:05.000Z</time>
      </trkpt>
      <trkpt lat="43.60722" lon="1.44708">
        <ele>162.19999694824</ele>
        <time>2013-10-27T10:12:10.000Z</time>
      </trkpt>
      <trkpt lat="43.60711" lon="1.44721">
        <ele>162.19999694824</ele>
        <time>2013-10-27T10:12:15.000Z</time>
      </trkpt>
      <trkpt lat="43.60708" lon="1.44724">
        <ele>162.19999694824</ele>
        <time>2013-10-27T10:12:17.000Z</time>
      </trkpt>
      <trkpt lat="43.60697" lon="1.44737">
        <ele>162.19999694824</ele>
        <time>2013-10-27T10:12:21.000Z</time>
      </trkpt>
      <trkpt lat="43.60682" lon="1.4475">
        <ele>162.19999694824</ele>
        <time>2013-10-27T10:12:27.000Z</time>
      </trkpt>
      <trkpt lat="43.60667" lon="1.44766">
        <ele>162.80000305176</ele>
        <time>2013-10-27T10:12:33.000Z</time>
      </trkpt>
      <trkpt lat="43.60656" lon="1.44782">
        <ele>163.39999389648</ele>
        <time>2013-10-27T10:12:38.000Z</time>
      </trkpt>
      <trkpt lat="43.60653" lon="1.44784">
        <ele>163.80000305176</ele>
        <time>2013-10-27T10:12:39.000Z</time>
      </trkpt>
      <trkpt lat="43.60637" lon="1.44797">
        <ele>165</ele>
        <time>2013-10-27T10:12:45.000Z</time>
      </trkpt>
      <trkpt lat="43.60622" lon="1.44813">
        <ele>166.60000610352</ele>
        <time>2013-10-27T10:12:51.000Z</time>
      </trkpt>
      <trkpt lat="43.60621" lon="1.44817">
        <ele>166.80000305176</ele>
        <time>2013-10-27T10:12:52.000Z</time>
      </trkpt>
      <trkpt lat="43.6061" lon="1.44827">
        <ele>167.39999389648</ele>
        <time>2013-10-27T10:12:57.000Z</time>
      </trkpt>
      <trkpt lat="43.606" lon="1.44835">
        <ele>167.80000305176</ele>
        <time>2013-10-27T10:12:59.000Z</time>
      </trkpt>
      <trkpt lat="43.60589" lon="1.44847">
        <ele>168.80000305176</ele>
        <time>2013-10-27T10:13:03.000Z</time>
      </trkpt>
      <trkpt lat="43.60573" lon="1.44861">
        <ele>169.39999389648</ele>
        <time>2013-10-27T10:13:08.000Z</time>
      </trkpt>
      <trkpt lat="43.6056" lon="1.44876">
        <ele>170</ele>
        <time>2013-10-27T10:13:13.000Z</time>
      </trkpt>
      <trkpt lat="43.60545" lon="1.44893">
        <ele>171</ele>
        <time>2013-10-27T10:13:20.000Z</time>
      </trkpt>
      <trkpt lat="43.60534" lon="1.44905">
        <ele>171.80000305176</ele>
        <time>2013-10-27T10:13:25.000Z</time>
      </trkpt>
      <trkpt lat="43.60523" lon="1.44913">
        <ele>172</ele>
        <time>2013-10-27T10:13:28.000Z</time>
      </trkpt>
      <trkpt lat="43.60513" lon="1.44922">
        <ele>172.19999694824</ele>
        <time>2013-10-27T10:13:32.000Z</time>
      </trkpt>
      <trkpt lat="43.60499" lon="1.44932">
        <ele>172.19999694824</ele>
        <time>2013-10-27T10:13:37.000Z</time>
      </trkpt>
      <trkpt lat="43.60483" lon="1.44946">
        <ele>171.60000610352</ele>
        <time>2013-10-27T10:13:42.000Z</time>
      </trkpt>
      <trkpt lat="43.60471" lon="1.44958">
        <ele>171.19999694824</ele>
        <time>2013-10-27T10:13:48.000Z</time>
      </trkpt>
      <trkpt lat="43.60456" lon="1.44975">
        <ele>171</ele>
        <time>2013-10-27T10:13:53.000Z</time>
      </trkpt>
      <trkpt lat="43.6044" lon="1.44992">
        <ele>170.80000305176</ele>
        <time>2013-10-27T10:13:59.000Z</time>
      </trkpt>
      <trkpt lat="43.60428" lon="1.45007">
        <ele>170.80000305176</ele>
        <time>2013-10-27T10:14:04.000Z</time>
      </trkpt>
      <trkpt lat="43.60412" lon="1.45024">
        <ele>170.60000610352</ele>
        <time>2013-10-27T10:14:11.000Z</time>
      </trkpt>
      <trkpt lat="43.60395" lon="1.45039">
        <ele>170.60000610352</ele>
        <time>2013-10-27T10:14:15.000Z</time>
      </trkpt>
      <trkpt lat="43.60383" lon="1.4505">
        <ele>170.60000610352</ele>
        <time>2013-10-27T10:14:20.000Z</time>
      </trkpt>
      <trkpt lat="43.60368" lon="1.45069">
        <ele>170.60000610352</ele>
        <time>2013-10-27T10:14:26.000Z</time>
      </trkpt>
      <trkpt lat="43.60354" lon="1.45087">
        <ele>170.19999694824</ele>
        <time>2013-10-27T10:14:31.000Z</time>
      </trkpt>
      <trkpt lat="43.60342" lon="1.45101">
        <ele>169.60000610352</ele>
        <time>2013-10-27T10:14:37.000Z</time>
      </trkpt>
      <trkpt lat="43.60333" lon="1.45112">
        <ele>169.19999694824</ele>
        <time>2013-10-27T10:14:40.000Z</time>
      </trkpt>
      <trkpt lat="43.60329" lon="1.45117">
        <ele>169</ele>
        <time>2013-10-27T10:14:42.000Z</time>
      </trkpt>
      <trkpt lat="43.60312" lon="1.45139">
        <ele>168.80000305176</ele>
        <time>2013-10-27T10:14:48.000Z</time>
      </trkpt>
      <trkpt lat="43.60299" lon="1.45147">
        <ele>169</ele>
        <time>2013-10-27T10:14:52.000Z</time>
      </trkpt>
      <trkpt lat="43.60296" lon="1.45148">
        <ele>169.19999694824</ele>
        <time>2013-10-27T10:14:53.000Z</time>
      </trkpt>
      <trkpt lat="43.60283" lon="1.45153">
        <ele>169.80000305176</ele>
        <time>2013-10-27T10:14:57.000Z</time>
      </trkpt>
      <trkpt lat="43.60265" lon="1.45165">
        <ele>170.19999694824</ele>
        <time>2013-10-27T10:15:03.000Z</time>
      </trkpt>
      <trkpt lat="43.60261" lon="1.45166">
        <ele>170.19999694824</ele>
        <time>2013-10-27T10:15:04.000Z</time>
      </trkpt>
      <trkpt lat="43.60247" lon="1.45175">
        <ele>171</ele>
        <time>2013-10-27T10:15:08.000Z</time>
      </trkpt>
      <trkpt lat="43.60227" lon="1.45181">
        <ele>171.80000305176</ele>
        <time>2013-10-27T10:15:15.000Z</time>
      </trkpt>
      <trkpt lat="43.60211" lon="1.45183">
        <ele>172.80000305176</ele>
        <time>2013-10-27T10:15:20.000Z</time>
      </trkpt>
      <trkpt lat="43.60194" lon="1.45189">
        <ele>173.60000610352</ele>
        <time>2013-10-27T10:15:25.000Z</time>
      </trkpt>
      <trkpt lat="43.6019" lon="1.4519">
        <ele>174</ele>
        <time>2013-10-27T10:15:26.000Z</time>
      </trkpt>
      <trkpt lat="43.60172" lon="1.45196">
        <ele>175.19999694824</ele>
        <time>2013-10-27T10:15:31.000Z</time>
      </trkpt>
      <trkpt lat="43.60155" lon="1.45196">
        <ele>175.80000305176</ele>
        <time>2013-10-27T10:15:35.000Z</time>
      </trkpt>
      <trkpt lat="43.60136" lon="1.45197">
        <ele>177.19999694824</ele>
        <time>2013-10-27T10:15:40.000Z</time>
      </trkpt>
      <trkpt lat="43.60113" lon="1.45197">
        <ele>178.19999694824</ele>
        <time>2013-10-27T10:15:47.000Z</time>
      </trkpt>
      <trkpt lat="43.60095" lon="1.45197">
        <ele>179.60000610352</ele>
        <time>2013-10-27T10:15:53.000Z</time>
      </trkpt>
      <trkpt lat="43.60078" lon="1.45201">
        <ele>181</ele>
        <time>2013-10-27T10:15:57.000Z</time>
      </trkpt>
      <trkpt lat="43.60057" lon="1.45203">
        <ele>182.60000610352</ele>
        <time>2013-10-27T10:16:03.000Z</time>
      </trkpt>
      <trkpt lat="43.60037" lon="1.45201">
        <ele>184.39999389648</ele>
        <time>2013-10-27T10:16:08.000Z</time>
      </trkpt>
      <trkpt lat="43.60021" lon="1.45201">
        <ele>185.80000305176</ele>
        <time>2013-10-27T10:16:13.000Z</time>
      </trkpt>
      <trkpt lat="43.6" lon="1.452">
        <ele>187.60000610352</ele>
        <time>2013-10-27T10:16:20.000Z</time>
      </trkpt>
      <trkpt lat="43.59989" lon="1.45197">
        <ele>188.60000610352</ele>
        <time>2013-10-27T10:16:23.000Z</time>
      </trkpt>
      <trkpt lat="43.59969" lon="1.45196">
        <ele>189.19999694824</ele>
        <time>2013-10-27T10:16:30.000Z</time>
      </trkpt>
      <trkpt lat="43.59952" lon="1.45196">
        <ele>189.60000610352</ele>
        <time>2013-10-27T10:16:35.000Z</time>
      </trkpt>
      <trkpt lat="43.59932" lon="1.45198">
        <ele>189.60000610352</ele>
        <time>2013-10-27T10:16:41.000Z</time>
      </trkpt>
      <trkpt lat="43.59911" lon="1.452">
        <ele>188.80000305176</ele>
        <time>2013-10-27T10:16:47.000Z</time>
      </trkpt>
      <trkpt lat="43.59898" lon="1.45202">
        <ele>188.60000610352</ele>
        <time>2013-10-27T10:16:51.000Z</time>
      </trkpt>
      <trkpt lat="43.5988" lon="1.45206">
        <ele>187.60000610352</ele>
        <time>2013-10-27T10:16:56.000Z</time>
      </trkpt>
      <trkpt lat="43.5986" lon="1.45212">
        <ele>186.80000305176</ele>
        <time>2013-10-27T10:17:02.000Z</time>
      </trkpt>
      <trkpt lat="43.59846" lon="1.45214">
        <ele>186.39999389648</ele>
        <time>2013-10-27T10:17:06.000Z</time>
      </trkpt>
      <trkpt lat="43.59827" lon="1.45217">
        <ele>186.19999694824</ele>
        <time>2013-10-27T10:17:11.000Z</time>
      </trkpt>
      <trkpt lat="43.59811" lon="1.45218">
        <ele>186.19999694824</ele>
        <time>2013-10-27T10:17:15.000Z</time>
      </trkpt>
      <trkpt lat="43.59794" lon="1.4522">
        <ele>186</ele>
        <time>2013-10-27T10:17:21.000Z</time>
      </trkpt>
      <trkpt lat="43.59775" lon="1.4522">
        <ele>186</ele>
        <time>2013-10-27T10:17:27.000Z</time>
      </trkpt>
      <trkpt lat="43.59761" lon="1.45222">
        <ele>186</ele>
        <time>2013-10-27T10:17:31.000Z</time>
      </trkpt>
      <trkpt lat="43.59744" lon="1.45222">
        <ele>185.80000305176</ele>
        <time>2013-10-27T10:17:36.000Z</time>
      </trkpt>
      <trkpt lat="43.59738" lon="1.45223">
        <ele>185.39999389648</ele>
        <time>2013-10-27T10:17:38.000Z</time>
      </trkpt>
      <trkpt lat="43.59715" lon="1.45222">
        <ele>184.60000610352</ele>
        <time>2013-10-27T10:17:43.000Z</time>
      </trkpt>
      <trkpt lat="43.59699" lon="1.45224">
        <ele>184</ele>
        <time>2013-10-27T10:17:48.000Z</time>
      </trkpt>
      <trkpt lat="43.59682" lon="1.45224">
        <ele>183</ele>
        <time>2013-10-27T10:17:53.000Z</time>
      </trkpt>
      <trkpt lat="43.5967" lon="1.45214">
        <ele>182.60000610352</ele>
        <time>2013-10-27T10:17:57.000Z</time>
      </trkpt>
      <trkpt lat="43.59659" lon="1.45193">
        <ele>181.19999694824</ele>
        <time>2013-10-27T10:18:03.000Z</time>
      </trkpt>
      <trkpt lat="43.59647" lon="1.45173">
        <ele>180</ele>
        <time>2013-10-27T10:18:08.000Z</time>
      </trkpt>
      <trkpt lat="43.59638" lon="1.45159">
        <ele>178.80000305176</ele>
        <time>2013-10-27T10:18:13.000Z</time>
      </trkpt>
      <trkpt lat="43.59624" lon="1.45144">
        <ele>177.19999694824</ele>
        <time>2013-10-27T10:18:18.000Z</time>
      </trkpt>
      <trkpt lat="43.59616" lon="1.45135">
        <ele>175.80000305176</ele>
        <time>2013-10-27T10:18:21.000Z</time>
      </trkpt>
      <trkpt lat="43.59604" lon="1.45128">
        <ele>174.19999694824</ele>
        <time>2013-10-27T10:18:26.000Z</time>
      </trkpt>
      <trkpt lat="43.5959" lon="1.45123">
        <ele>172.80000305176</ele>
        <time>2013-10-27T10:18:30.000Z</time>
      </trkpt>
      <trkpt lat="43.59573" lon="1.45127">
        <ele>171.19999694824</ele>
        <time>2013-10-27T10:18:35.000Z</time>
      </trkpt>
      <trkpt lat="43.59556" lon="1.45134">
        <ele>169.39999389648</ele>
        <time>2013-10-27T10:18:41.000Z</time>
      </trkpt>
      <trkpt lat="43.59541" lon="1.45144">
        <ele>168</ele>
        <time>2013-10-27T10:18:45.000Z</time>
      </trkpt>
      <trkpt lat="43.59527" lon="1.45157">
        <ele>166.80000305176</ele>
        <time>2013-10-27T10:18:51.000Z</time>
      </trkpt>
      <trkpt lat="43.59512" lon="1.45175">
        <ele>165.19999694824</ele>
        <time>2013-10-27T10:18:57.000Z</time>
      </trkpt>
      <trkpt lat="43.59499" lon="1.45194">
        <ele>163.60000610352</ele>
        <time>2013-10-27T10:19:03.000Z</time>
      </trkpt>
      <trkpt lat="43.59494" lon="1.45212">
        <ele>162.19999694824</ele>
        <time>2013-10-27T10:19:08.000Z</time>
      </trkpt>
      <trkpt lat="43.59486" lon="1.45227">
        <ele>161.60000610352</ele>
        <time>2013-10-27T10:19:12.000Z</time>
      </trkpt>
      <trkpt lat="43.5947" lon="1.45239">
        <ele>160.60000610352</ele>
        <time>2013-10-27T10:19:17.000Z</time>
      </trkpt>
      <trkpt lat="43.59452" lon="1.45242">
        <ele>159.60000610352</ele>
        <time>2013-10-27T10:19:21.000Z</time>
      </trkpt>
      <trkpt lat="43.59449" lon="1.45243">
        <ele>159.39999389648</ele>
        <time>2013-10-27T10:19:23.000Z</time>
      </trkpt>
      <trkpt lat="43.59434" lon="1.45245">
        <ele>159</ele>
        <time>2013-10-27T10:19:27.000Z</time>
      </trkpt>
      <trkpt lat="43.59416" lon="1.4525">
        <ele>158.80000305176</ele>
        <time>2013-10-27T10:19:32.000Z</time>
      </trkpt>
      <trkpt lat="43.59398" lon="1.45252">
        <ele>158.60000610352</ele>
        <time>2013-10-27T10:19:37.000Z</time>
      </trkpt>
      <trkpt lat="43.59387" lon="1.45254">
        <ele>158.39999389648</ele>
        <time>2013-10-27T10:19:40.000Z</time>
      </trkpt>
      <trkpt lat="43.59369" lon="1.45256">
        <ele>158.39999389648</ele>
        <time>2013-10-27T10:19:45.000Z</time>
      </trkpt>
      <trkpt lat="43.59331" lon="1.45263">
        <ele>158.19999694824</ele>
        <time>2013-10-27T10:19:57.000Z</time>
      </trkpt>
      <trkpt lat="43.5931" lon="1.45265">
        <ele>158.19999694824</ele>
        <time>2013-10-27T10:20:03.000Z</time>
      </trkpt>
      <trkpt lat="43.59294" lon="1.45267">
        <ele>158.19999694824</ele>
        <time>2013-10-27T10:20:08.000Z</time>
      </trkpt>
      <trkpt lat="43.59275" lon="1.45271">
        <ele>158.19999694824</ele>
        <time>2013-10-27T10:20:13.000Z</time>
      </trkpt>
      <trkpt lat="43.59258" lon="1.45275">
        <ele>158.19999694824</ele>
        <time>2013-10-27T10:20:18.000Z</time>
      </trkpt>
      <trkpt lat="43.59238" lon="1.45276">
        <ele>158.19999694824</ele>
        <time>2013-10-27T10:20:25.000Z</time>
      </trkpt>
      <trkpt lat="43.59225" lon="1.45278">
        <ele>158.19999694824</ele>
        <time>2013-10-27T10:20:28.000Z</time>
      </trkpt>
      <trkpt lat="43.59215" lon="1.4528">
        <ele>159</ele>
        <time>2013-10-27T10:20:33.000Z</time>
      </trkpt>
      <trkpt lat="43.5919" lon="1.45284">
        <ele>160.80000305176</ele>
        <time>2013-10-27T10:20:41.000Z</time>
      </trkpt>
      <trkpt lat="43.5917" lon="1.45286">
        <ele>162.39999389648</ele>
        <time>2013-10-27T10:20:47.000Z</time>
      </trkpt>
      <trkpt lat="43.59152" lon="1.45287">
        <ele>163.39999389648</ele>
        <time>2013-10-27T10:20:52.000Z</time>
      </trkpt>
      <trkpt lat="43.59133" lon="1.45287">
        <ele>164</ele>
        <time>2013-10-27T10:20:57.000Z</time>
      </trkpt>
      <trkpt lat="43.59118" lon="1.45278">
        <ele>164.19999694824</ele>
        <time>2013-10-27T10:21:03.000Z</time>
      </trkpt>
      <trkpt lat="43.59099" lon="1.45265">
        <ele>164.39999389648</ele>
        <time>2013-10-27T10:21:08.000Z</time>
      </trkpt>
      <trkpt lat="43.59083" lon="1.45257">
        <ele>164.39999389648</ele>
        <time>2013-10-27T10:21:13.000Z</time>
      </trkpt>
      <trkpt lat="43.59065" lon="1.45245">
        <ele>164.60000610352</ele>
        <time>2013-10-27T10:21:20.000Z</time>
      </trkpt>
      <trkpt lat="43.59054" lon="1.45239">
        <ele>164.60000610352</ele>
        <time>2013-10-27T10:21:24.000Z</time>
      </trkpt>
      <trkpt lat="43.5904" lon="1.45232">
        <ele>164.60000610352</ele>
        <time>2013-10-27T10:21:29.000Z</time>
      </trkpt>
      <trkpt lat="43.59023" lon="1.45219">
        <ele>164.60000610352</ele>
        <time>2013-10-27T10:21:35.000Z</time>
      </trkpt>
      <trkpt lat="43.59009" lon="1.4521">
        <ele>164.60000610352</ele>
        <time>2013-10-27T10:21:40.000Z</time>
      </trkpt>
      <trkpt lat="43.58987" lon="1.4519">
        <ele>164.60000610352</ele>
        <time>2013-10-27T10:21:50.000Z</time>
      </trkpt>
      <trkpt lat="43.58979" lon="1.45184">
        <ele>164.60000610352</ele>
        <time>2013-10-27T10:21:53.000Z</time>
      </trkpt>
      <trkpt lat="43.5896" lon="1.45173">
        <ele>164.60000610352</ele>
        <time>2013-10-27T10:21:59.000Z</time>
      </trkpt>
      <trkpt lat="43.58942" lon="1.4516">
        <ele>164.60000610352</ele>
        <time>2013-10-27T10:22:05.000Z</time>
      </trkpt>
      <trkpt lat="43.58923" lon="1.4515">
        <ele>164.60000610352</ele>
        <time>2013-10-27T10:22:11.000Z</time>
      </trkpt>
      <trkpt lat="43.58908" lon="1.45138">
        <ele>164.60000610352</ele>
        <time>2013-10-27T10:22:16.000Z</time>
      </trkpt>
      <trkpt lat="43.58903" lon="1.45132">
        <ele>164.60000610352</ele>
        <time>2013-10-27T10:22:18.000Z</time>
      </trkpt>
      <trkpt lat="43.58907" lon="1.45112">
        <ele>164.60000610352</ele>
        <time>2013-10-27T10:22:21.000Z</time>
      </trkpt>
      <trkpt lat="43.58908" lon="1.45106">
        <ele>164.60000610352</ele>
        <time>2013-10-27T10:22:23.000Z</time>
      </trkpt>
      <trkpt lat="43.58919" lon="1.45086">
        <ele>164</ele>
        <time>2013-10-27T10:22:27.000Z</time>
      </trkpt>
      <trkpt lat="43.58932" lon="1.45064">
        <ele>163.39999389648</ele>
        <time>2013-10-27T10:22:33.000Z</time>
      </trkpt>
      <trkpt lat="43.58943" lon="1.45049">
        <ele>162.39999389648</ele>
        <time>2013-10-27T10:22:38.000Z</time>
      </trkpt>
      <trkpt lat="43.58952" lon="1.45033">
        <ele>161.60000610352</ele>
        <time>2013-10-27T10:22:43.000Z</time>
      </trkpt>
      <trkpt lat="43.58973" lon="1.45006">
        <ele>160.80000305176</ele>
        <time>2013-10-27T10:22:51.000Z</time>
      </trkpt>
      <trkpt lat="43.58988" lon="1.44996">
        <ele>159.80000305176</ele>
        <time>2013-10-27T10:22:56.000Z</time>
      </trkpt>
      <trkpt lat="43.58996" lon="1.44985">
        <ele>159.39999389648</ele>
        <time>2013-10-27T10:23:00.000Z</time>
      </trkpt>
      <trkpt lat="43.59004" lon="1.44994">
        <ele>159</ele>
        <time>2013-10-27T10:23:03.000Z</time>
      </trkpt>
      <trkpt lat="43.59014" lon="1.45014">
        <ele>158.80000305176</ele>
        <time>2013-10-27T10:23:09.000Z</time>
      </trkpt>
      <trkpt lat="43.59019" lon="1.45023">
        <ele>158.60000610352</ele>
        <time>2013-10-27T10:23:15.000Z</time>
      </trkpt>
      <trkpt lat="43.59025" lon="1.45037">
        <ele>158.60000610352</ele>
        <time>2013-10-27T10:23:20.000Z</time>
      </trkpt>
      <trkpt lat="43.59034" lon="1.45054">
        <ele>158.39999389648</ele>
        <time>2013-10-27T10:23:25.000Z</time>
      </trkpt>
      <trkpt lat="43.59041" lon="1.45067">
        <ele>158.39999389648</ele>
        <time>2013-10-27T10:23:28.000Z</time>
      </trkpt>
      <trkpt lat="43.59051" lon="1.4509">
        <ele>158.39999389648</ele>
        <time>2013-10-27T10:23:35.000Z</time>
      </trkpt>
      <trkpt lat="43.5906" lon="1.45111">
        <ele>158.39999389648</ele>
        <time>2013-10-27T10:23:41.000Z</time>
      </trkpt>
      <trkpt lat="43.59071" lon="1.45132">
        <ele>159.19999694824</ele>
        <time>2013-10-27T10:23:47.000Z</time>
      </trkpt>
      <trkpt lat="43.59081" lon="1.4515">
        <ele>159.80000305176</ele>
        <time>2013-10-27T10:23:51.000Z</time>
      </trkpt>
      <trkpt lat="43.59089" lon="1.45167">
        <ele>160</ele>
        <time>2013-10-27T10:23:57.000Z</time>
      </trkpt>
      <trkpt lat="43.59097" lon="1.4519">
        <ele>160.19999694824</ele>
        <time>2013-10-27T10:24:02.000Z</time>
      </trkpt>
      <trkpt lat="43.59103" lon="1.45201">
        <ele>160.80000305176</ele>
        <time>2013-10-27T10:24:07.000Z</time>
      </trkpt>
      <trkpt lat="43.59109" lon="1.45214">
        <ele>161.80000305176</ele>
        <time>2013-10-27T10:24:12.000Z</time>
      </trkpt>
      <trkpt lat="43.5911" lon="1.45216">
        <ele>162</ele>
        <time>2013-10-27T10:24:13.000Z</time>
      </trkpt>
      <trkpt lat="43.59115" lon="1.45221">
        <ele>162.60000610352</ele>
        <time>2013-10-27T10:24:15.000Z</time>
      </trkpt>
      <trkpt lat="43.59119" lon="1.45232">
        <ele>163.19999694824</ele>
        <time>2013-10-27T10:24:18.000Z</time>
      </trkpt>
      <trkpt lat="43.59129" lon="1.45254">
        <ele>163.60000610352</ele>
        <time>2013-10-27T10:24:24.000Z</time>
      </trkpt>
      <trkpt lat="43.59136" lon="1.45248">
        <ele>164</ele>
        <time>2013-10-27T10:24:29.000Z</time>
      </trkpt>
      <trkpt lat="43.59143" lon="1.45236">
        <ele>164.19999694824</ele>
        <time>2013-10-27T10:24:33.000Z</time>
      </trkpt>
      <trkpt lat="43.59153" lon="1.45223">
        <ele>164.39999389648</ele>
        <time>2013-10-27T10:24:38.000Z</time>
      </trkpt>
      <trkpt lat="43.59179" lon="1.45198">
        <ele>163.80000305176</ele>
        <time>2013-10-27T10:24:48.000Z</time>
      </trkpt>
      <trkpt lat="43.59188" lon="1.45187">
        <ele>163.39999389648</ele>
        <time>2013-10-27T10:24:52.000Z</time>
      </trkpt>
      <trkpt lat="43.59189" lon="1.45182">
        <ele>163.19999694824</ele>
        <time>2013-10-27T10:24:53.000Z</time>
      </trkpt>
      <trkpt lat="43.59196" lon="1.45171">
        <ele>162.19999694824</ele>
        <time>2013-10-27T10:24:56.000Z</time>
      </trkpt>
      <trkpt lat="43.59198" lon="1.45167">
        <ele>162</ele>
        <time>2013-10-27T10:24:57.000Z</time>
      </trkpt>
      <trkpt lat="43.59206" lon="1.45156">
        <ele>161.60000610352</ele>
        <time>2013-10-27T10:25:02.000Z</time>
      </trkpt>
      <trkpt lat="43.59215" lon="1.45146">
        <ele>161.19999694824</ele>
        <time>2013-10-27T10:25:07.000Z</time>
      </trkpt>
      <trkpt lat="43.59225" lon="1.45137">
        <ele>161</ele>
        <time>2013-10-27T10:25:11.000Z</time>
      </trkpt>
      <trkpt lat="43.59234" lon="1.45125">
        <ele>160.80000305176</ele>
        <time>2013-10-27T10:25:16.000Z</time>
      </trkpt>
      <trkpt lat="43.59247" lon="1.45111">
        <ele>160</ele>
        <time>2013-10-27T10:25:21.000Z</time>
      </trkpt>
      <trkpt lat="43.59256" lon="1.45099">
        <ele>159.60000610352</ele>
        <time>2013-10-27T10:25:25.000Z</time>
      </trkpt>
      <trkpt lat="43.59271" lon="1.45085">
        <ele>159</ele>
        <time>2013-10-27T10:25:31.000Z</time>
      </trkpt>
      <trkpt lat="43.59285" lon="1.45069">
        <ele>158.80000305176</ele>
        <time>2013-10-27T10:25:37.000Z</time>
      </trkpt>
      <trkpt lat="43.59287" lon="1.45065">
        <ele>158.60000610352</ele>
        <time>2013-10-27T10:25:38.000Z</time>
      </trkpt>
      <trkpt lat="43.59289" lon="1.45055">
        <ele>158.60000610352</ele>
        <time>2013-10-27T10:25:42.000Z</time>
      </trkpt>
      <trkpt lat="43.59292" lon="1.45051">
        <ele>158.60000610352</ele>
        <time>2013-10-27T10:25:44.000Z</time>
      </trkpt>
      <trkpt lat="43.59294" lon="1.45049">
        <ele>158.60000610352</ele>
        <time>2013-10-27T10:25:47.000Z</time>
      </trkpt>
      <trkpt lat="43.59304" lon="1.45046">
        <ele>158.39999389648</ele>
        <time>2013-10-27T10:25:54.000Z</time>
      </trkpt>
      <trkpt lat="43.59309" lon="1.45043">
        <ele>158.39999389648</ele>
        <time>2013-10-27T10:25:56.000Z</time>
      </trkpt>
      <trkpt lat="43.59322" lon="1.45028">
        <ele>157.39999389648</ele>
        <time>2013-10-27T10:26:02.000Z</time>
      </trkpt>
      <trkpt lat="43.59336" lon="1.45013">
        <ele>157</ele>
        <time>2013-10-27T10:26:08.000Z</time>
      </trkpt>
      <trkpt lat="43.59338" lon="1.45011">
        <ele>156.80000305176</ele>
        <time>2013-10-27T10:26:09.000Z</time>
      </trkpt>
      <trkpt lat="43.59349" lon="1.44998">
        <ele>156.39999389648</ele>
        <time>2013-10-27T10:26:14.000Z</time>
      </trkpt>
      <trkpt lat="43.59359" lon="1.44988">
        <ele>155.60000610352</ele>
        <time>2013-10-27T10:26:18.000Z</time>
      </trkpt>
      <trkpt lat="43.59366" lon="1.4498">
        <ele>155.39999389648</ele>
        <time>2013-10-27T10:26:21.000Z</time>
      </trkpt>
      <trkpt lat="43.59378" lon="1.44965">
        <ele>154.80000305176</ele>
        <time>2013-10-27T10:26:26.000Z</time>
      </trkpt>
      <trkpt lat="43.59381" lon="1.44963">
        <ele>154.80000305176</ele>
        <time>2013-10-27T10:26:27.000Z</time>
      </trkpt>
      <trkpt lat="43.59393" lon="1.44955">
        <ele>154.60000610352</ele>
        <time>2013-10-27T10:26:31.000Z</time>
      </trkpt>
      <trkpt lat="43.59395" lon="1.44952">
        <ele>154.60000610352</ele>
        <time>2013-10-27T10:26:32.000Z</time>
      </trkpt>
      <trkpt lat="43.59411" lon="1.44936">
        <ele>154.39999389648</ele>
        <time>2013-10-27T10:26:38.000Z</time>
      </trkpt>
      <trkpt lat="43.59424" lon="1.4492">
        <ele>154.39999389648</ele>
        <time>2013-10-27T10:26:43.000Z</time>
      </trkpt>
      <trkpt lat="43.59437" lon="1.44905">
        <ele>154.39999389648</ele>
        <time>2013-10-27T10:26:49.000Z</time>
      </trkpt>
      <trkpt lat="43.59451" lon="1.44893">
        <ele>154.39999389648</ele>
        <time>2013-10-27T10:26:54.000Z</time>
      </trkpt>
      <trkpt lat="43.59456" lon="1.44889">
        <ele>154.19999694824</ele>
        <time>2013-10-27T10:26:56.000Z</time>
      </trkpt>
      <trkpt lat="43.59451" lon="1.44876">
        <ele>154.19999694824</ele>
        <time>2013-10-27T10:27:00.000Z</time>
      </trkpt>
      <trkpt lat="43.59449" lon="1.44873">
        <ele>154.19999694824</ele>
        <time>2013-10-27T10:27:01.000Z</time>
      </trkpt>
      <trkpt lat="43.59441" lon="1.44854">
        <ele>154.19999694824</ele>
        <time>2013-10-27T10:27:06.000Z</time>
      </trkpt>
      <trkpt lat="43.59433" lon="1.44837">
        <ele>155.19999694824</ele>
        <time>2013-10-27T10:27:11.000Z</time>
      </trkpt>
      <trkpt lat="43.59428" lon="1.44827">
        <ele>155.80000305176</ele>
        <time>2013-10-27T10:27:14.000Z</time>
      </trkpt>
      <trkpt lat="43.59419" lon="1.44806">
        <ele>157</ele>
        <time>2013-10-27T10:27:20.000Z</time>
      </trkpt>
      <trkpt lat="43.59412" lon="1.44785">
        <ele>157.80000305176</ele>
        <time>2013-10-27T10:27:25.000Z</time>
      </trkpt>
      <trkpt lat="43.59406" lon="1.44764">
        <ele>159</ele>
        <time>2013-10-27T10:27:30.000Z</time>
      </trkpt>
      <trkpt lat="43.59401" lon="1.4475">
        <ele>159.60000610352</ele>
        <time>2013-10-27T10:27:33.000Z</time>
      </trkpt>
      <trkpt lat="43.59393" lon="1.44729">
        <ele>160</ele>
        <time>2013-10-27T10:27:39.000Z</time>
      </trkpt>
      <trkpt lat="43.59385" lon="1.44707">
        <ele>160.39999389648</ele>
        <time>2013-10-27T10:27:45.000Z</time>
      </trkpt>
      <trkpt lat="43.59377" lon="1.44684">
        <ele>160.60000610352</ele>
        <time>2013-10-27T10:27:51.000Z</time>
      </trkpt>
      <trkpt lat="43.59371" lon="1.44667">
        <ele>160</ele>
        <time>2013-10-27T10:27:56.000Z</time>
      </trkpt>
      <trkpt lat="43.59363" lon="1.44648">
        <ele>159.39999389648</ele>
        <time>2013-10-27T10:28:01.000Z</time>
      </trkpt>
      <trkpt lat="43.59356" lon="1.44631">
        <ele>159</ele>
        <time>2013-10-27T10:28:06.000Z</time>
      </trkpt>
      <trkpt lat="43.5935" lon="1.44613">
        <ele>158.80000305176</ele>
        <time>2013-10-27T10:28:11.000Z</time>
      </trkpt>
      <trkpt lat="43.59345" lon="1.44601">
        <ele>158.80000305176</ele>
        <time>2013-10-27T10:28:15.000Z</time>
      </trkpt>
      <trkpt lat="43.59341" lon="1.44587">
        <ele>158.80000305176</ele>
        <time>2013-10-27T10:28:19.000Z</time>
      </trkpt>
      <trkpt lat="43.59335" lon="1.44573">
        <ele>159.19999694824</ele>
        <time>2013-10-27T10:28:24.000Z</time>
      </trkpt>
      <trkpt lat="43.5933" lon="1.4456">
        <ele>160</ele>
        <time>2013-10-27T10:28:28.000Z</time>
      </trkpt>
      <trkpt lat="43.59323" lon="1.44541">
        <ele>161.39999389648</ele>
        <time>2013-10-27T10:28:33.000Z</time>
      </trkpt>
      <trkpt lat="43.59317" lon="1.44524">
        <ele>163</ele>
        <time>2013-10-27T10:28:38.000Z</time>
      </trkpt>
      <trkpt lat="43.59309" lon="1.44501">
        <ele>165</ele>
        <time>2013-10-27T10:28:44.000Z</time>
      </trkpt>
      <trkpt lat="43.59301" lon="1.44476">
        <ele>166</ele>
        <time>2013-10-27T10:28:50.000Z</time>
      </trkpt>
      <trkpt lat="43.593" lon="1.44471">
        <ele>166</ele>
        <time>2013-10-27T10:28:51.000Z</time>
      </trkpt>
      <trkpt lat="43.5931" lon="1.44453">
        <ele>166.60000610352</ele>
        <time>2013-10-27T10:28:56.000Z</time>
      </trkpt>
      <trkpt lat="43.59323" lon="1.44443">
        <ele>166.80000305176</ele>
        <time>2013-10-27T10:29:01.000Z</time>
      </trkpt>
      <trkpt lat="43.59326" lon="1.44441">
        <ele>166.80000305176</ele>
        <time>2013-10-27T10:29:02.000Z</time>
      </trkpt>
      <trkpt lat="43.59343" lon="1.44428">
        <ele>167</ele>
        <time>2013-10-27T10:29:09.000Z</time>
      </trkpt>
      <trkpt lat="43.59356" lon="1.44417">
        <ele>167</ele>
        <time>2013-10-27T10:29:14.000Z</time>
      </trkpt>
      <trkpt lat="43.59373" lon="1.44408">
        <ele>167.19999694824</ele>
        <time>2013-10-27T10:29:20.000Z</time>
      </trkpt>
      <trkpt lat="43.59387" lon="1.44399">
        <ele>167.19999694824</ele>
        <time>2013-10-27T10:29:25.000Z</time>
      </trkpt>
      <trkpt lat="43.59402" lon="1.44392">
        <ele>167.19999694824</ele>
        <time>2013-10-27T10:29:30.000Z</time>
      </trkpt>
      <trkpt lat="43.59418" lon="1.44393">
        <ele>167.19999694824</ele>
        <time>2013-10-27T10:29:35.000Z</time>
      </trkpt>
      <trkpt lat="43.59436" lon="1.44404">
        <ele>167.19999694824</ele>
        <time>2013-10-27T10:29:40.000Z</time>
      </trkpt>
      <trkpt lat="43.59453" lon="1.44415">
        <ele>167.19999694824</ele>
        <time>2013-10-27T10:29:46.000Z</time>
      </trkpt>
      <trkpt lat="43.5946" lon="1.44418">
        <ele>167.19999694824</ele>
        <time>2013-10-27T10:29:49.000Z</time>
      </trkpt>
      <trkpt lat="43.59471" lon="1.44437">
        <ele>167.19999694824</ele>
        <time>2013-10-27T10:29:55.000Z</time>
      </trkpt>
      <trkpt lat="43.59481" lon="1.44447">
        <ele>167.19999694824</ele>
        <time>2013-10-27T10:29:59.000Z</time>
      </trkpt>
      <trkpt lat="43.59496" lon="1.44465">
        <ele>167.19999694824</ele>
        <time>2013-10-27T10:30:05.000Z</time>
      </trkpt>
      <trkpt lat="43.59508" lon="1.44484">
        <ele>167.19999694824</ele>
        <time>2013-10-27T10:30:11.000Z</time>
      </trkpt>
      <trkpt lat="43.5952" lon="1.44504">
        <ele>167.19999694824</ele>
        <time>2013-10-27T10:30:16.000Z</time>
      </trkpt>
      <trkpt lat="43.59532" lon="1.44523">
        <ele>167.19999694824</ele>
        <time>2013-10-27T10:30:21.000Z</time>
      </trkpt>
      <trkpt lat="43.59542" lon="1.44537">
        <ele>167.19999694824</ele>
        <time>2013-10-27T10:30:25.000Z</time>
      </trkpt>
      <trkpt lat="43.59548" lon="1.44542">
        <ele>167.19999694824</ele>
        <time>2013-10-27T10:30:27.000Z</time>
      </trkpt>
      <trkpt lat="43.59564" lon="1.44543">
        <ele>168</ele>
        <time>2013-10-27T10:30:32.000Z</time>
      </trkpt>
      <trkpt lat="43.59578" lon="1.44547">
        <ele>168.60000610352</ele>
        <time>2013-10-27T10:30:37.000Z</time>
      </trkpt>
      <trkpt lat="43.59584" lon="1.44547">
        <ele>168.80000305176</ele>
        <time>2013-10-27T10:30:41.000Z</time>
      </trkpt>
      <trkpt lat="43.59595" lon="1.44551">
        <ele>169.60000610352</ele>
        <time>2013-10-27T10:30:46.000Z</time>
      </trkpt>
      <trkpt lat="43.59609" lon="1.44555">
        <ele>170.39999389648</ele>
        <time>2013-10-27T10:30:51.000Z</time>
      </trkpt>
      <trkpt lat="43.59625" lon="1.44556">
        <ele>171.39999389648</ele>
        <time>2013-10-27T10:30:57.000Z</time>
      </trkpt>
      <trkpt lat="43.59642" lon="1.44556">
        <ele>172.39999389648</ele>
        <time>2013-10-27T10:31:04.000Z</time>
      </trkpt>
      <trkpt lat="43.59654" lon="1.44557">
        <ele>173.19999694824</ele>
        <time>2013-10-27T10:31:09.000Z</time>
      </trkpt>
      <trkpt lat="43.59666" lon="1.44559">
        <ele>174</ele>
        <time>2013-10-27T10:31:13.000Z</time>
      </trkpt>
      <trkpt lat="43.59684" lon="1.4456">
        <ele>174.60000610352</ele>
        <time>2013-10-27T10:31:19.000Z</time>
      </trkpt>
      <trkpt lat="43.59697" lon="1.44561">
        <ele>175</ele>
        <time>2013-10-27T10:31:23.000Z</time>
      </trkpt>
      <trkpt lat="43.59712" lon="1.44563">
        <ele>176</ele>
        <time>2013-10-27T10:31:28.000Z</time>
      </trkpt>
      <trkpt lat="43.59724" lon="1.4456">
        <ele>176.60000610352</ele>
        <time>2013-10-27T10:31:32.000Z</time>
      </trkpt>
      <trkpt lat="43.59743" lon="1.44552">
        <ele>177</ele>
        <time>2013-10-27T10:31:38.000Z</time>
      </trkpt>
      <trkpt lat="43.59762" lon="1.44549">
        <ele>177.19999694824</ele>
        <time>2013-10-27T10:31:42.000Z</time>
      </trkpt>
      <trkpt lat="43.5978" lon="1.44543">
        <ele>177.80000305176</ele>
        <time>2013-10-27T10:31:49.000Z</time>
      </trkpt>
      <trkpt lat="43.59795" lon="1.44539">
        <ele>178.60000610352</ele>
        <time>2013-10-27T10:31:55.000Z</time>
      </trkpt>
      <trkpt lat="43.59809" lon="1.4454">
        <ele>179</ele>
        <time>2013-10-27T10:32:00.000Z</time>
      </trkpt>
      <trkpt lat="43.59822" lon="1.44542">
        <ele>179.19999694824</ele>
        <time>2013-10-27T10:32:04.000Z</time>
      </trkpt>
      <trkpt lat="43.59836" lon="1.44545">
        <ele>179.39999389648</ele>
        <time>2013-10-27T10:32:08.000Z</time>
      </trkpt>
      <trkpt lat="43.5984" lon="1.44548">
        <ele>179.39999389648</ele>
        <time>2013-10-27T10:32:09.000Z</time>
      </trkpt>
      <trkpt lat="43.5985" lon="1.44552">
        <ele>179.39999389648</ele>
        <time>2013-10-27T10:32:13.000Z</time>
      </trkpt>
      <trkpt lat="43.59859" lon="1.44552">
        <ele>179.60000610352</ele>
        <time>2013-10-27T10:32:17.000Z</time>
      </trkpt>
      <trkpt lat="43.5987" lon="1.44551">
        <ele>179.60000610352</ele>
        <time>2013-10-27T10:32:21.000Z</time>
      </trkpt>
      <trkpt lat="43.59883" lon="1.44551">
        <ele>180.19999694824</ele>
        <time>2013-10-27T10:32:25.000Z</time>
      </trkpt>
      <trkpt lat="43.59895" lon="1.44549">
        <ele>180.80000305176</ele>
        <time>2013-10-27T10:32:30.000Z</time>
      </trkpt>
      <trkpt lat="43.59912" lon="1.44544">
        <ele>181.39999389648</ele>
        <time>2013-10-27T10:32:36.000Z</time>
      </trkpt>
      <trkpt lat="43.59932" lon="1.44544">
        <ele>182.80000305176</ele>
        <time>2013-10-27T10:32:43.000Z</time>
      </trkpt>
      <trkpt lat="43.59943" lon="1.44547">
        <ele>183</ele>
        <time>2013-10-27T10:32:47.000Z</time>
      </trkpt>
      <trkpt lat="43.59956" lon="1.44553">
        <ele>183.39999389648</ele>
        <time>2013-10-27T10:32:52.000Z</time>
      </trkpt>
      <trkpt lat="43.59959" lon="1.44555">
        <ele>183.39999389648</ele>
        <time>2013-10-27T10:32:53.000Z</time>
      </trkpt>
      <trkpt lat="43.59979" lon="1.4456">
        <ele>183.60000610352</ele>
        <time>2013-10-27T10:32:59.000Z</time>
      </trkpt>
      <trkpt lat="43.59994" lon="1.44565">
        <ele>183.80000305176</ele>
        <time>2013-10-27T10:33:04.000Z</time>
      </trkpt>
      <trkpt lat="43.60009" lon="1.44565">
        <ele>184.80000305176</ele>
        <time>2013-10-27T10:33:09.000Z</time>
      </trkpt>
      <trkpt lat="43.60022" lon="1.44561">
        <ele>185.19999694824</ele>
        <time>2013-10-27T10:33:14.000Z</time>
      </trkpt>
      <trkpt lat="43.60037" lon="1.4456">
        <ele>185.39999389648</ele>
        <time>2013-10-27T10:33:18.000Z</time>
      </trkpt>
      <trkpt lat="43.60053" lon="1.44565">
        <ele>185.60000610352</ele>
        <time>2013-10-27T10:33:23.000Z</time>
      </trkpt>
      <trkpt lat="43.60072" lon="1.44566">
        <ele>185.80000305176</ele>
        <time>2013-10-27T10:33:29.000Z</time>
      </trkpt>
      <trkpt lat="43.6009" lon="1.44567">
        <ele>185.80000305176</ele>
        <time>2013-10-27T10:33:34.000Z</time>
      </trkpt>
      <trkpt lat="43.60103" lon="1.44566">
        <ele>186</ele>
        <time>2013-10-27T10:33:37.000Z</time>
      </trkpt>
      <trkpt lat="43.6012" lon="1.44565">
        <ele>186</ele>
        <time>2013-10-27T10:33:42.000Z</time>
      </trkpt>
      <trkpt lat="43.60141" lon="1.44566">
        <ele>186</ele>
        <time>2013-10-27T10:33:47.000Z</time>
      </trkpt>
      <trkpt lat="43.60154" lon="1.44568">
        <ele>186.39999389648</ele>
        <time>2013-10-27T10:33:50.000Z</time>
      </trkpt>
      <trkpt lat="43.60178" lon="1.44572">
        <ele>187</ele>
        <time>2013-10-27T10:33:57.000Z</time>
      </trkpt>
      <trkpt lat="43.60192" lon="1.44572">
        <ele>187.39999389648</ele>
        <time>2013-10-27T10:34:02.000Z</time>
      </trkpt>
      <trkpt lat="43.60201" lon="1.44574">
        <ele>187.60000610352</ele>
        <time>2013-10-27T10:34:05.000Z</time>
      </trkpt>
      <trkpt lat="43.60205" lon="1.44574">
        <ele>187.60000610352</ele>
        <time>2013-10-27T10:34:06.000Z</time>
      </trkpt>
      <trkpt lat="43.60221" lon="1.44576">
        <ele>187.80000305176</ele>
        <time>2013-10-27T10:34:11.000Z</time>
      </trkpt>
      <trkpt lat="43.60236" lon="1.44574">
        <ele>187.80000305176</ele>
        <time>2013-10-27T10:34:16.000Z</time>
      </trkpt>
      <trkpt lat="43.60254" lon="1.44576">
        <ele>187.80000305176</ele>
        <time>2013-10-27T10:34:21.000Z</time>
      </trkpt>
      <trkpt lat="43.60271" lon="1.44576">
        <ele>188</ele>
        <time>2013-10-27T10:34:26.000Z</time>
      </trkpt>
      <trkpt lat="43.6029" lon="1.44572">
        <ele>188</ele>
        <time>2013-10-27T10:34:31.000Z</time>
      </trkpt>
      <trkpt lat="43.60303" lon="1.44566">
        <ele>188</ele>
        <time>2013-10-27T10:34:34.000Z</time>
      </trkpt>
      <trkpt lat="43.60307" lon="1.44564">
        <ele>188</ele>
        <time>2013-10-27T10:34:36.000Z</time>
      </trkpt>
      <trkpt lat="43.60319" lon="1.44566">
        <ele>187.39999389648</ele>
        <time>2013-10-27T10:34:39.000Z</time>
      </trkpt>
      <trkpt lat="43.6034" lon="1.44569">
        <ele>186.60000610352</ele>
        <time>2013-10-27T10:34:45.000Z</time>
      </trkpt>
      <trkpt lat="43.60354" lon="1.44572">
        <ele>185.60000610352</ele>
        <time>2013-10-27T10:34:48.000Z</time>
      </trkpt>
      <trkpt lat="43.6037" lon="1.44574">
        <ele>185</ele>
        <time>2013-10-27T10:34:54.000Z</time>
      </trkpt>
      <trkpt lat="43.60381" lon="1.44574">
        <ele>184.60000610352</ele>
        <time>2013-10-27T10:34:58.000Z</time>
      </trkpt>
      <trkpt lat="43.60391" lon="1.44576">
        <ele>184.19999694824</ele>
        <time>2013-10-27T10:35:02.000Z</time>
      </trkpt>
      <trkpt lat="43.60405" lon="1.44574">
        <ele>184.19999694824</ele>
        <time>2013-10-27T10:35:05.000Z</time>
      </trkpt>
      <trkpt lat="43.6042" lon="1.44569">
        <ele>184</ele>
        <time>2013-10-27T10:35:11.000Z</time>
      </trkpt>
      <trkpt lat="43.60434" lon="1.44564">
        <ele>183.19999694824</ele>
        <time>2013-10-27T10:35:16.000Z</time>
      </trkpt>
      <trkpt lat="43.60447" lon="1.44559">
        <ele>182</ele>
        <time>2013-10-27T10:35:21.000Z</time>
      </trkpt>
      <trkpt lat="43.60452" lon="1.44556">
        <ele>181.39999389648</ele>
        <time>2013-10-27T10:35:23.000Z</time>
      </trkpt>
      <trkpt lat="43.60468" lon="1.44548">
        <ele>180.60000610352</ele>
        <time>2013-10-27T10:35:27.000Z</time>
      </trkpt>
      <trkpt lat="43.60477" lon="1.4453">
        <ele>179.19999694824</ele>
        <time>2013-10-27T10:35:32.000Z</time>
      </trkpt>
      <trkpt lat="43.60477" lon="1.44524">
        <ele>179</ele>
        <time>2013-10-27T10:35:33.000Z</time>
      </trkpt>
      <trkpt lat="43.60478" lon="1.44496">
        <ele>177.39999389648</ele>
        <time>2013-10-27T10:35:39.000Z</time>
      </trkpt>
      <trkpt lat="43.6048" lon="1.44467">
        <ele>175.80000305176</ele>
        <time>2013-10-27T10:35:45.000Z</time>
      </trkpt>
      <trkpt lat="43.60482" lon="1.44442">
        <ele>174.19999694824</ele>
        <time>2013-10-27T10:35:50.000Z</time>
      </trkpt>
      <trkpt lat="43.60484" lon="1.44417">
        <ele>172.60000610352</ele>
        <time>2013-10-27T10:35:55.000Z</time>
      </trkpt>
      <trkpt lat="43.6049" lon="1.44399">
        <ele>171.19999694824</ele>
        <time>2013-10-27T10:35:59.000Z</time>
      </trkpt>
      <trkpt lat="43.60491" lon="1.44393">
        <ele>171</ele>
        <time>2013-10-27T10:36:00.000Z</time>
      </trkpt>
      <trkpt lat="43.60484" lon="1.44364">
        <ele>169.19999694824</ele>
        <time>2013-10-27T10:36:05.000Z</time>
      </trkpt>
      <trkpt lat="43.60481" lon="1.44343">
        <ele>168.19999694824</ele>
        <time>2013-10-27T10:36:09.000Z</time>
      </trkpt>
      <trkpt lat="43.6048" lon="1.44337">
        <ele>167.80000305176</ele>
        <time>2013-10-27T10:36:10.000Z</time>
      </trkpt>
      <trkpt lat="43.6048" lon="1.44326">
        <ele>167</ele>
        <time>2013-10-27T10:36:13.000Z</time>
      </trkpt>
      <trkpt lat="43.6048" lon="1.44322">
        <ele>165.80000305176</ele>
        <time>2013-10-27T10:36:18.000Z</time>
      </trkpt>
      <trkpt lat="43.60481" lon="1.44321">
        <ele>163.80000305176</ele>
        <time>2013-10-27T10:36:26.000Z</time>
      </trkpt>
      <trkpt lat="43.60481" lon="1.44317">
        <ele>162.60000610352</ele>
        <time>2013-10-27T10:36:32.000Z</time>
      </trkpt>
      <trkpt lat="43.6048" lon="1.44314">
        <ele>161.19999694824</ele>
        <time>2013-10-27T10:36:39.000Z</time>
      </trkpt>
      <trkpt lat="43.60482" lon="1.44312">
        <ele>158.60000610352</ele>
        <time>2013-10-27T10:36:56.000Z</time>
      </trkpt>
      <trkpt lat="43.60482" lon="1.44311">
        <ele>157.80000305176</ele>
        <time>2013-10-27T10:37:04.000Z</time>
      </trkpt>
    </trkseg>
  </trk>
</gpx>